[[[{"header":{"parameterUnit":"kt","parameterCategory":2,"dx":1,"dy":1,"la1":29.587661999999998,"la2":31.0,"lo1":-88.76705300000003,"lo2":-86.6583820000003,"nx":115,"ny":88,"refTime":"2022-09-20T00:00:00:Z","depth":0,"parameterNumber":1,"parameterNumberName":"U-component_of_WINDS"},"data":[9.455,9.3115,9.535,9.5944,9.5796,9.8314,9.9474,9.9364,9.8971,9.8599,9.8224,9.7815,9.7423,9.7009,9.699,9.7888,9.9485,10.0545,10.1506,10.242,10.3632,10.3663,10.3356,10.3097,10.2845,10.2598,10.2445,10.2445,10.2445,10.2445,10.2445,10.2445,10.2445,10.2445,10.2445,10.2445,10.2445,10.2445,10.2445,10.2445,10.2445,10.2445,10.2445,10.2445,10.2445,10.2445,10.2445,10.2445,10.2445,10.2445,10.2445,10.2445,10.2445,10.2423,10.2262,10.1947,10.1675,10.0832,9.9955,9.8929,9.7631,9.6548,9.5882,9.492,9.412,9.3882,9.3832,9.3759,9.3515,9.3515,9.3515,9.3515,9.3515,9.3515,9.3441,9.2845,9.2272,9.1922,9.1442,9.0633,8.9892,8.9507,8.9044,8.8449,8.785,8.7169,8.6905,8.6905,8.6905,8.6905,8.6905,8.6905,8.6905,8.6905,8.6905,8.6905,8.6905,8.6905,8.6852,8.6746,8.6561,8.6295,8.5923,8.5337,8.507,8.4934,8.4371,8.3857,8.3749,8.3586,8.3586,8.3705,8.4111,8.4902,8.6157,9.4778,9.3883,9.5235,9.5669,9.5715,9.8265,9.9327,9.8971,9.8599,9.8243,9.7815,9.7327,9.7086,9.699,9.707,9.8061,9.8977,9.9823,10.1099,10.2143,10.2954,10.3075,10.2933,10.2815,10.2641,10.2489,10.2445,10.2445,10.2445,10.2445,10.2445,10.2445,10.2445,10.2445,10.2445,10.2445,10.2445,10.2445,10.2445,10.2445,10.2445,10.2445,10.2445,10.2445,10.2445,10.2445,10.2445,10.2445,10.2445,10.2445,10.2445,10.2445,10.2445,10.2445,10.2314,10.2218,10.1947,10.1255,10.0383,9.9614,9.8352,9.7186,9.6667,9.5786,9.458,9.4243,9.4218,9.405,9.366,9.354,9.3515,9.3515,9.3515,9.3491,9.3392,9.3118,9.2522,9.1997,9.1292,9.0532,9.0149,8.9893,8.9379,8.8863,8.8136,8.7247,8.6905,8.6905,8.6905,8.6905,8.6905,8.6905,8.6905,8.6905,8.6905,8.6905,8.6905,8.6905,8.6905,8.6852,8.6772,8.6481,8.6137,8.5738,8.5524,8.5362,8.488,8.4074,8.3776,8.3586,8.3586,8.3659,8.4059,8.4771,8.6,9.4442,9.3627,9.4357,9.4894,9.5558,9.7446,9.8581,9.8822,9.8524,9.7967,9.7366,9.7105,9.699,9.699,9.699,9.7454,9.7641,9.888,9.9981,10.0816,10.1373,10.2159,10.2583,10.2576,10.2467,10.2445,10.2445,10.2445,10.2445,10.2445,10.2445,10.2445,10.2445,10.2445,10.2445,10.2445,10.2445,10.2445,10.2445,10.2445,10.2445,10.2445,10.2445,10.2445,10.2445,10.2445,10.2445,10.2445,10.2445,10.2445,10.2445,10.2445,10.2445,10.2445,10.2445,10.2379,10.2174,10.1771,10.1106,10.0293,9.9324,9.8074,9.728,9.6386,9.5237,9.4968,9.4972,9.4368,9.4004,9.3639,9.3614,9.3592,9.3567,9.3515,9.3417,9.3318,9.287,9.2172,9.1343,9.0659,9.0302,8.997,8.9225,8.8682,8.8136,8.7299,8.6931,8.6905,8.6905,8.6905,8.6905,8.6905,8.6905,8.6905,8.6905,8.6905,8.6905,8.6905,8.6905,8.6879,8.6852,8.6615,8.643,8.6218,8.6031,8.5843,8.5096,8.4157,8.3778,8.3613,8.3586,8.3586,8.4075,8.4635,8.5323,9.4043,9.3195,9.3209,9.4027,9.5351,9.6678,9.7839,9.8767,9.8393,9.7777,9.7136,9.699,9.6982,9.6836,9.6797,9.6665,9.675,9.7731,9.8532,9.9523,10.0514,10.158,10.2271,10.2467,10.2445,10.2445,10.2445,10.2445,10.2445,10.2445,10.2445,10.2445,10.2445,10.2445,10.2445,10.2445,10.2445,10.2445,10.2445,10.2445,10.2445,10.2445,10.2445,10.2445,10.2445,10.2445,10.2445,10.2445,10.2445,10.2445,10.2445,10.2445,10.2445,10.2445,10.2445,10.2445,10.2401,10.2065,10.1506,10.0839,9.9961,9.886,9.7818,9.686,9.6248,9.5981,9.5526,9.4906,9.4398,9.4007,9.3764,9.3745,9.3723,9.3567,9.3491,9.3367,9.3217,9.2372,9.1468,9.0964,9.0481,8.9816,8.8992,8.8396,8.7901,8.7483,8.7063,8.6905,8.6905,8.6905,8.6905,8.6905,8.6905,8.6905,8.6905,8.6905,8.6905,8.6905,8.6905,8.6905,8.6905,8.6773,8.6668,8.6562,8.6483,8.6324,8.5793,8.4615,8.3833,8.364,8.3586,8.3586,8.398,8.4214,8.4583,9.3667,9.2729,9.2156,9.3143,9.5236,9.6302,9.7348,9.8312,9.7986,9.7499,9.7067,9.699,9.6847,9.6584,9.6526,9.6312,9.6276,9.6756,9.7712,9.9153,9.9891,10.0989,10.1868,10.2445,10.2445,10.2445,10.2445,10.2445,10.2445,10.2445,10.2445,10.2445,10.2445,10.2445,10.2445,10.2445,10.2445,10.2445,10.2445,10.2445,10.2445,10.2445,10.2445,10.2445,10.2445,10.2445,10.2445,10.2423,10.2445,10.2445,10.2445,10.2401,10.2423,10.2445,10.2445,10.2445,10.2445,10.2174,10.1771,10.1284,10.0458,9.9552,9.8572,9.7688,9.7167,9.6879,9.6619,9.6053,9.4916,9.4382,9.4258,9.419,9.3967,9.3762,9.3537,9.3343,9.3019,9.2345,9.1543,9.0938,9.0455,8.9816,8.9018,8.8604,8.8162,8.7299,8.6905,8.6905,8.6905,8.6905,8.6905,8.6905,8.6905,8.6905,8.6905,8.6905,8.6905,8.6905,8.6905,8.6905,8.6905,8.6879,8.6853,8.68,8.672,8.6668,8.635,8.4964,8.4019,8.3749,8.3586,8.3586,8.361,8.3727,8.4093,9.3194,9.247,9.1947,9.2102,9.3037,9.4713,9.6102,9.6969,9.7267,9.7212,9.7009,9.699,9.6778,9.6429,9.6331,9.6049,9.5538,9.6013,9.6684,9.7862,9.8742,10.0095,10.1278,10.1988,10.2295,10.2445,10.2445,10.2445,10.2445,10.2445,10.2445,10.2445,10.2445,10.2445,10.2445,10.2445,10.2445,10.2445,10.2445,10.2445,10.2445,10.2445,10.2445,10.2445,10.2445,10.2445,10.2423,10.2035,10.2196,10.2401,10.2035,10.2079,10.2423,10.2445,10.2445,10.2445,10.2445,10.2284,10.2057,10.1639,10.0928,10.012,9.9347,9.8612,9.8167,9.7888,9.7631,9.7105,9.5861,9.4929,9.4809,9.4683,9.4356,9.398,9.3636,9.3291,9.277,9.222,9.1593,9.0964,9.0353,8.9739,8.9225,8.8863,8.8292,8.743,8.6984,8.6931,8.6905,8.6905,8.6905,8.6905,8.6905,8.6905,8.6905,8.6905,8.6905,8.6905,8.6905,8.6905,8.6905,8.6905,8.6879,8.6879,8.6905,8.6852,8.6773,8.5418,8.4209,8.383,8.3586,8.364,8.3692,8.364,8.3806,9.2761,9.2143,9.1749,9.1419,9.1418,9.285,9.4265,9.5512,9.6607,9.699,9.7001,9.6874,9.6565,9.6253,9.6128,9.5616,9.525,9.5201,9.574,9.6588,9.7692,9.9047,10.0283,10.139,10.2018,10.2295,10.2445,10.2445,10.2445,10.2445,10.2445,10.2445,10.2445,10.2445,10.2445,10.2445,10.2445,10.2445,10.2445,10.2445,10.2445,10.2445,10.2445,10.2445,10.2445,10.2284,10.2174,10.1829,10.1881,10.2101,10.1829,10.1917,10.2379,10.2445,10.2445,10.2445,10.2445,10.2445,10.2358,10.1969,10.1351,10.0622,10.0029,9.953,9.9256,9.9026,9.882,9.8023,9.6995,9.6213,9.5858,9.5489,9.5055,9.4538,9.3977,9.3362,9.2472,9.1972,9.1518,9.0938,9.0558,8.9945,8.9224,8.8837,8.8422,8.7562,8.7037,8.6958,8.6905,8.6905,8.6905,8.6905,8.6905,8.6905,8.6905,8.6905,8.6905,8.6905,8.6905,8.6905,8.6905,8.6905,8.6905,8.6905,8.6905,8.6905,8.6879,8.5924,8.4638,8.4128,8.3803,8.3825,8.3798,8.3665,8.3732,9.2389,9.1734,9.1304,9.117,9.1135,9.1032,9.1977,9.377,9.5944,9.6959,9.6951,9.6584,9.6253,9.5872,9.5518,9.507,9.465,9.4569,9.5327,9.6225,9.6803,9.8428,9.9714,10.0672,10.1539,10.2116,10.2445,10.2445,10.2445,10.2445,10.2445,10.2445,10.2445,10.2445,10.2445,10.2445,10.2445,10.2445,10.2445,10.2445,10.2445,10.2445,10.2445,10.2445,10.2401,10.2218,10.1903,10.1653,10.1653,10.1697,10.1668,10.1969,10.224,10.2445,10.2445,10.2445,10.2445,10.2445,10.2379,10.1947,10.1395,10.0965,10.0487,10.0058,9.9666,9.9416,9.921,9.8629,9.8007,9.738,9.6771,9.6263,9.5722,9.5072,9.4413,9.3461,9.2472,9.1922,9.1493,9.104,9.0634,9.0072,8.9404,8.894,8.8604,8.785,8.7378,8.7246,8.7194,8.7167,8.6905,8.6905,8.6905,8.6905,8.6905,8.6905,8.6905,8.6905,8.6905,8.6905,8.6905,8.6905,8.6905,8.6905,8.6905,8.6826,8.6694,8.6031,8.5041,8.4638,8.4314,8.4258,8.4071,8.3884,8.3586,9.2177,9.1716,9.1335,9.117,9.1103,9.0766,9.1306,9.2827,9.479,9.6088,9.6501,9.6487,9.6088,9.5567,9.528,9.494,9.4479,9.4439,9.5027,9.5197,9.6085,9.7581,9.8996,10.0103,10.1031,10.2116,10.2445,10.2445,10.2445,10.2445,10.2445,10.2445,10.2445,10.2445,10.2445,10.2445,10.2445,10.2445,10.2445,10.2445,10.2445,10.2445,10.2445,10.2445,10.2379,10.2153,10.1749,10.1506,10.1403,10.1528,10.1572,10.1646,10.2204,10.2445,10.2445,10.2445,10.2445,10.2445,10.2336,10.1947,10.1484,10.1076,10.057,10.0097,9.9666,9.9559,9.937,9.914,9.8719,9.8301,9.7866,9.678,9.6196,9.5558,9.4757,9.3756,9.2895,9.2522,9.2095,9.1368,9.0862,9.0251,8.961,8.9223,8.8862,8.8293,8.7718,8.764,8.7587,8.7246,8.6905,8.6905,8.6905,8.6905,8.6905,8.6905,8.6905,8.6905,8.6905,8.6905,8.6905,8.6905,8.6905,8.6905,8.6905,8.6826,8.6615,8.6293,8.5619,8.5134,8.4873,8.4638,8.4371,8.4047,8.364,9.1881,9.1567,9.1285,9.117,9.1086,9.0614,9.105,9.2273,9.3711,9.5192,9.6193,9.6284,9.5844,9.5329,9.505,9.475,9.4479,9.4439,9.4439,9.4608,9.5317,9.6683,9.791,9.9137,10.0432,10.1518,10.2355,10.2445,10.2445,10.2445,10.2445,10.2445,10.2445,10.2445,10.2445,10.2445,10.2445,10.2445,10.2445,10.2445,10.2445,10.2445,10.2445,10.2445,10.2445,10.2117,10.1462,10.1247,10.1232,10.1358,10.1269,10.1565,10.227,10.2445,10.2445,10.2445,10.2445,10.2445,10.2336,10.1969,10.1506,10.1069,10.0599,10.0097,9.9621,9.9559,9.9559,9.9403,9.9092,9.8915,9.875,9.7719,9.686,9.6148,9.5361,9.4319,9.3387,9.3016,9.2594,9.187,9.1393,9.0861,9.0199,8.9815,8.9276,8.8682,8.8604,8.85,8.79,8.7454,8.7168,8.7142,8.7063,8.701,8.6905,8.6905,8.6905,8.6905,8.6905,8.6905,8.6905,8.6905,8.6905,8.6905,8.6905,8.6905,8.68,8.6587,8.6043,8.5769,8.5619,8.5387,8.5194,8.4764,8.4231,9.1455,9.117,9.117,9.1153,9.1067,9.0339,9.0759,9.1848,9.2731,9.4216,9.5935,9.6019,9.5616,9.515,9.471,9.4539,9.4439,9.4439,9.4439,9.4439,9.4818,9.5476,9.6743,9.803,9.9326,10.0501,10.1458,10.2146,10.2445,10.2445,10.2445,10.2445,10.2445,10.2445,10.2445,10.2445,10.2445,10.2445,10.2445,10.2445,10.2445,10.2445,10.2445,10.2445,10.2445,10.2095,10.1536,10.1225,10.1247,10.1336,10.1255,10.161,10.2314,10.2423,10.2445,10.2445,10.2445,10.2445,10.2423,10.1969,10.1572,10.1203,10.0615,10.0135,9.9734,9.9559,9.9559,9.9559,9.9403,9.9249,9.8969,9.8555,9.7701,9.6927,9.6224,9.5265,9.4148,9.3461,9.3016,9.242,9.207,9.1746,9.1013,9.0326,8.9765,8.9508,8.9456,8.8993,8.8264,8.7898,8.7744,8.7666,8.7509,8.7431,8.7325,8.7141,8.6905,8.6905,8.6905,8.6905,8.6905,8.6905,8.6905,8.6905,8.6905,8.6905,8.6879,8.6906,8.6638,8.6369,8.6265,8.6184,8.6015,8.5746,8.5384,9.0569,9.117,9.117,9.1019,9.0716,9.0219,9.0172,9.0526,9.1286,9.2776,9.4673,9.5517,9.5408,9.481,9.4479,9.4459,9.4439,9.4439,9.4439,9.4439,9.4608,9.5347,9.6294,9.7282,9.8359,10.0142,10.1061,10.1667,10.2266,10.2415,10.2445,10.2445,10.2445,10.2445,10.2445,10.2445,10.2445,10.2445,10.2445,10.2445,10.2445,10.2445,10.2445,10.2445,10.2445,10.2073,10.1639,10.144,10.144,10.1462,10.1528,10.1793,10.2174,10.2445,10.2445,10.2445,10.2445,10.2445,10.2423,10.2218,10.1999,10.1484,10.0809,10.0345,10.0029,9.9763,9.9581,9.9559,9.9559,9.9484,9.937,9.8952,9.826,9.7538,9.6813,9.6129,9.4972,9.4145,9.363,9.3113,9.2694,9.2345,9.1719,9.119,9.076,9.0633,9.0327,8.9586,8.8889,8.8577,8.837,8.8188,8.8136,8.8006,8.7744,8.7325,8.6958,8.6984,8.7089,8.7037,8.6905,8.6905,8.6905,8.6958,8.6958,8.6905,8.7063,8.7378,8.7247,8.6984,8.6958,8.693,8.682,8.682,8.6455,9.0123,9.1122,9.117,9.0935,9.058,9.0185,8.9868,8.9798,9.0555,9.1637,9.2614,9.409,9.4718,9.453,9.4439,9.4439,9.4439,9.4439,9.4439,9.4439,9.4469,9.4967,9.5646,9.6453,9.7372,9.8757,10.0133,10.1061,10.1787,10.2206,10.2325,10.2445,10.2445,10.2445,10.2445,10.2445,10.2445,10.2445,10.2445,10.2445,10.2445,10.2445,10.2445,10.2445,10.2445,10.2174,10.1763,10.1697,10.1697,10.1675,10.1653,10.1969,10.2358,10.2423,10.2445,10.2445,10.2445,10.2445,10.2423,10.2401,10.2284,10.1815,10.1151,10.0532,10.0255,9.9825,9.9575,9.9559,9.9559,9.9559,9.9513,9.9233,9.8745,9.8051,9.7402,9.6742,9.5957,9.5237,9.4681,9.4169,9.3658,9.309,9.2569,9.207,9.1947,9.1721,9.0938,9.0227,8.969,8.9278,8.9019,8.8785,8.9121,8.9122,8.85,8.7771,8.7037,8.7168,8.7351,8.7142,8.6931,8.6958,8.7089,8.7037,8.7063,8.7142,8.7352,8.7771,8.7693,8.7273,8.7273,8.7589,8.7772,8.7825,8.7616,8.9735,9.1027,9.1139,9.0918,9.0512,9.015,8.985,8.9618,9.036,9.0627,9.0982,9.2299,9.3677,9.427,9.4439,9.4439,9.4439,9.4439,9.4439,9.4439,9.4439,9.4548,9.4937,9.5706,9.6543,9.7312,9.8988,10.0103,10.0762,10.1667,10.2146,10.2445,10.2445,10.2445,10.2445,10.2445,10.2445,10.2445,10.2445,10.2445,10.2445,10.2445,10.2445,10.2445,10.2393,10.221,10.1763,10.1785,10.1807,10.1807,10.1829,10.2057,10.2379,10.2445,10.2445,10.2445,10.2445,10.2445,10.2445,10.2445,10.2393,10.2174,10.169,10.1076,10.0547,9.9939,9.9575,9.9559,9.9559,9.9559,9.9559,9.9461,9.9135,9.8583,9.8051,9.7472,9.6936,9.6244,9.5718,9.5241,9.4684,9.4072,9.3532,9.3313,9.3115,9.2843,9.2093,9.1519,9.0892,9.0383,8.997,8.9738,9.0123,8.997,8.9327,8.863,8.7902,8.7771,8.7849,8.7562,8.7273,8.7247,8.7405,8.7457,8.764,8.751,8.7589,8.85,8.8837,8.7928,8.7745,8.8526,8.8863,8.8863,8.8785,8.8366,8.9657,9.0696,9.075,9.0119,9.0078,8.9712,8.9179,8.9175,8.9602,9.044,9.1372,9.2787,9.41,9.4399,9.4439,9.4439,9.4439,9.4439,9.4439,9.4439,9.4439,9.4618,9.4768,9.5575,9.6654,9.8257,9.9262,10.0091,10.0941,10.1607,10.2393,10.2355,10.2445,10.2445,10.2445,10.2445,10.2445,10.2445,10.2445,10.2445,10.2445,10.2445,10.2445,10.2445,10.2379,10.224,10.2218,10.2218,10.2218,10.2196,10.2218,10.2401,10.2445,10.2445,10.2445,10.2445,10.2445,10.2445,10.2445,10.2445,10.2379,10.2073,10.1654,10.0958,10.039,10.0006,9.9598,9.9552,9.9559,9.9559,9.9559,9.9301,9.8975,9.8676,9.8288,9.7828,9.7313,9.6766,9.6244,9.5646,9.5068,9.4778,9.4538,9.4218,9.39,9.3436,9.2845,9.2299,9.1748,9.1266,9.076,9.0989,9.0836,8.9969,8.9044,8.8682,8.8396,8.8422,8.8292,8.811,8.8032,8.7876,8.8059,8.8344,8.8448,8.876,8.9534,9.0201,8.9482,8.907,8.9661,8.984,8.9969,8.9842,8.7847,8.9152,9.0355,9.0529,9.0027,8.9871,8.9415,8.8812,8.8546,8.8673,8.921,9.0451,9.1695,9.2773,9.413,9.4409,9.4439,9.4439,9.4439,9.4439,9.4439,9.4439,9.4428,9.4387,9.4607,9.5703,9.6856,9.8027,9.8725,9.9595,10.077,10.1607,10.2064,10.2385,10.2445,10.2445,10.2445,10.2445,10.2445,10.2445,10.2445,10.2445,10.2445,10.2445,10.2445,10.2445,10.2423,10.2445,10.2445,10.2445,10.2445,10.2445,10.2445,10.2445,10.2445,10.2445,10.2445,10.2445,10.2445,10.2445,10.2445,10.2423,10.2379,10.2117,10.1425,10.0727,10.0142,9.9871,9.9666,9.953,9.9559,9.9559,9.9318,9.9204,9.9112,9.8774,9.845,9.8079,9.7758,9.7242,9.6699,9.6363,9.6053,9.5766,9.5402,9.504,9.4532,9.4023,9.3532,9.3093,9.2598,9.2022,9.187,9.1744,9.0708,8.9764,8.9507,8.9327,8.9353,8.9095,8.8941,8.8734,8.8474,8.8526,8.8992,8.9559,9.0098,9.0405,9.0405,9.0405,9.0431,9.0277,9.0148,9.0302,9.0226,8.772,8.8818,9.0043,9.0325,8.994,8.9656,8.9113,8.8474,8.8349,8.7905,8.7687,8.9653,9.0687,9.1385,9.3203,9.4219,9.4409,9.4439,9.4398,9.4347,9.4408,9.4408,9.4246,9.3983,9.4254,9.4561,9.55,9.5724,9.6732,9.8768,9.9984,10.074,10.1578,10.2295,10.2385,10.2445,10.2445,10.2445,10.2445,10.2445,10.2445,10.2445,10.2445,10.2445,10.2445,10.2445,10.2445,10.2445,10.2445,10.2445,10.2445,10.2445,10.2445,10.2445,10.2445,10.2445,10.2445,10.2445,10.2445,10.2445,10.2445,10.2445,10.2445,10.2218,10.1749,10.1084,10.0547,10.0338,9.9796,9.9552,9.9559,9.9559,9.9559,9.9461,9.9386,9.9181,9.8997,9.8681,9.8473,9.801,9.7608,9.7374,9.7209,9.6903,9.6596,9.614,9.5686,9.5178,9.4747,9.4475,9.4065,9.3441,9.314,9.2644,9.1768,9.0988,9.0658,9.0427,9.0198,8.9866,8.9892,8.9867,8.943,8.9379,8.9687,9.0224,9.0734,9.0837,9.0557,9.0507,9.0431,9.0405,9.0405,9.0405,9.0379,8.7056,8.7205,8.9567,9.0236,8.9642,8.9337,8.8866,8.8385,8.7785,8.7459,8.7439,8.8616,8.9728,9.0788,9.2175,9.3561,9.4439,9.4439,9.4287,9.4165,9.4327,9.4084,9.3779,9.3677,9.3809,9.3896,9.4852,9.5783,9.5923,9.7072,9.8625,9.9834,10.0561,10.1308,10.2236,10.2355,10.2445,10.2445,10.2445,10.2445,10.2445,10.2445,10.2445,10.2445,10.2445,10.2445,10.2445,10.2445,10.2445,10.2445,10.2445,10.2445,10.2445,10.2445,10.2445,10.2445,10.2445,10.2445,10.2445,10.2445,10.2445,10.2445,10.2445,10.2401,10.2087,10.1661,10.1055,10.039,9.9871,9.9575,9.953,9.9559,9.9559,9.9559,9.9507,9.9461,9.9347,9.9233,9.9055,9.882,9.8531,9.8323,9.8213,9.7958,9.7561,9.7162,9.686,9.6382,9.6049,9.581,9.5477,9.4833,9.427,9.3731,9.3016,9.222,9.1717,9.159,9.1364,9.0986,9.0988,9.0937,9.0937,9.0784,9.1037,9.1212,9.139,9.1593,9.0989,9.0584,9.0482,9.0405,9.0405,9.0405,9.0405,8.6319,8.6959,8.8634,8.9494,8.965,8.9029,8.8528,8.8116,8.7549,8.7203,8.7362,8.8167,8.9053,9.001,9.1577,9.3232,9.4169,9.4439,9.4267,9.4044,9.4246,9.4044,9.3441,9.3502,9.3461,9.3565,9.3855,9.4263,9.4692,9.5661,9.7083,9.8634,10.0044,10.077,10.1428,10.2056,10.2415,10.2445,10.2445,10.2445,10.2445,10.2445,10.2445,10.2445,10.2445,10.2445,10.2445,10.2445,10.2445,10.2445,10.2445,10.2445,10.2445,10.2445,10.2445,10.2445,10.2445,10.2445,10.2445,10.2445,10.2445,10.2445,10.2445,10.2445,10.2379,10.2174,10.1727,10.1032,10.0406,9.9802,9.9552,9.9559,9.9559,9.9559,9.9559,9.9559,9.9536,9.9536,9.937,9.9187,9.902,9.8952,9.8997,9.8768,9.852,9.8271,9.7997,9.7693,9.736,9.7134,9.6898,9.6319,9.579,9.5117,9.4267,9.3409,9.2714,9.2791,9.2667,9.2218,9.202,9.1721,9.1746,9.2095,9.237,9.2567,9.2619,9.2295,9.1419,9.0686,9.0584,9.0482,9.0456,9.0431,9.0405,8.5816,8.7057,8.7766,8.8801,8.9675,8.887,8.826,8.7845,8.7459,8.7063,8.6883,8.7796,8.8335,8.9262,9.1218,9.2863,9.3791,9.4208,9.4125,9.384,9.3963,9.38,9.3194,9.3132,9.31,9.2988,9.3076,9.3102,9.3648,9.4704,9.5871,9.6877,9.8595,10.0112,10.068,10.148,10.2026,10.2355,10.2445,10.2445,10.2445,10.2445,10.2445,10.2445,10.2445,10.2445,10.2445,10.2445,10.2445,10.2445,10.2445,10.2445,10.2445,10.2445,10.2445,10.2445,10.2445,10.2445,10.2445,10.2445,10.2445,10.2445,10.2445,10.2445,10.2445,10.2379,10.2035,10.1498,10.0832,10.0165,9.9627,9.9559,9.9559,9.9559,9.9559,9.9559,9.9559,9.9559,9.9513,9.9416,9.9461,9.9461,9.9301,9.9118,9.8958,9.8825,9.8641,9.8479,9.8149,9.7992,9.788,9.7501,9.712,9.6339,9.5622,9.475,9.4044,9.4218,9.3925,9.351,9.3189,9.2669,9.2694,9.3286,9.3679,9.3778,9.3434,9.3016,9.2095,9.0786,9.0635,9.0584,9.0686,9.0735,9.0659,8.5911,8.6686,8.7619,8.8696,8.9445,8.8795,8.8206,8.7845,8.7428,8.7027,8.6841,8.6827,8.7695,8.8724,9.025,9.1577,9.2705,9.3381,9.3811,9.3473,9.3584,9.3235,9.281,9.2665,9.2581,9.2268,9.2677,9.2884,9.3047,9.3707,9.4832,9.589,9.6955,9.8338,10.0014,10.0762,10.1219,10.2116,10.2236,10.2295,10.2393,10.2445,10.2445,10.2445,10.2445,10.2445,10.2445,10.2445,10.2445,10.2445,10.2445,10.2445,10.2445,10.2445,10.2445,10.2445,10.2445,10.2445,10.2445,10.2445,10.2445,10.2445,10.2445,10.2445,10.2445,10.2423,10.2167,10.1697,10.124,10.0577,9.9695,9.953,9.953,9.9559,9.9559,9.9559,9.9559,9.9559,9.9559,9.9559,9.9559,9.9559,9.9461,9.9393,9.9416,9.937,9.9324,9.9187,9.8837,9.8583,9.8456,9.8154,9.794,9.7332,9.7143,9.6477,9.5738,9.5598,9.5165,9.4875,9.4656,9.4486,9.4608,9.4923,9.4799,9.4826,9.4632,9.3781,9.2519,9.104,9.0659,9.1014,9.109,9.1065,9.1065,8.487,8.5749,8.6559,8.7662,8.8594,8.8365,8.8026,8.7791,8.7258,8.6843,8.6714,8.6677,8.7037,8.7676,8.8963,8.9861,9.0741,9.2208,9.3198,9.3302,9.3276,9.2884,9.2373,9.2235,9.2456,9.2706,9.2706,9.281,9.3017,9.3488,9.4013,9.4773,9.611,9.733,9.8299,9.9116,10.0112,10.1159,10.1398,10.1787,10.2355,10.2445,10.2445,10.2445,10.2445,10.2445,10.2445,10.2445,10.2445,10.2445,10.2445,10.2445,10.2445,10.2445,10.2445,10.2445,10.2445,10.2445,10.2445,10.2445,10.2445,10.2445,10.2445,10.2445,10.2445,10.2445,10.2284,10.2065,10.1594,10.0995,10.0074,9.9757,9.953,9.9559,9.9559,9.9559,9.9559,9.9559,9.9559,9.9559,9.9559,9.9559,9.9559,9.9513,9.9513,9.9461,9.9438,9.9416,9.9089,9.9043,9.894,9.8825,9.8687,9.8572,9.8427,9.7986,9.7167,9.6766,9.6391,9.6129,9.6005,9.622,9.6415,9.6148,9.5858,9.5886,9.5646,9.4295,9.3115,9.2072,9.1519,9.162,9.1746,9.182,9.182,8.4077,8.5108,8.5378,8.6422,8.7753,8.7652,8.7596,8.7658,8.7075,8.6836,8.6696,8.6677,8.6707,8.6846,8.8125,8.8615,8.9154,9.101,9.2456,9.2909,9.304,9.2665,9.2122,9.213,9.2435,9.2644,9.2289,9.2415,9.2851,9.3029,9.3338,9.3896,9.5147,9.6222,9.6753,9.78,9.8787,9.9924,10.0411,10.1069,10.1787,10.2176,10.2445,10.2445,10.2445,10.2445,10.2445,10.2445,10.2445,10.2445,10.2445,10.2445,10.2445,10.2445,10.2445,10.2445,10.2445,10.2445,10.2445,10.2445,10.2445,10.2445,10.2445,10.2445,10.2445,10.2445,10.2445,10.2379,10.1939,10.1366,10.0675,10.0074,9.9763,9.9581,9.9559,9.9559,9.9559,9.9559,9.9559,9.9559,9.9559,9.9559,9.9559,9.9559,9.9559,9.9559,9.9559,9.9559,9.9513,9.9461,9.9376,9.9285,9.917,9.8981,9.8889,9.8658,9.8149,9.7846,9.7501,9.7242,9.7289,9.743,9.7383,9.7191,9.695,9.6908,9.6912,9.565,9.4004,9.3239,9.2569,9.2743,9.2818,9.2669,9.2642,8.4377,8.5403,8.4539,8.5466,8.7159,8.6782,8.6697,8.7211,8.7071,8.6882,8.6733,8.6677,8.6677,8.6786,8.7856,8.8555,8.8634,9.0051,9.1174,9.1779,9.2363,9.2322,9.1826,9.1964,9.2156,9.2239,9.2435,9.2323,9.2364,9.2531,9.2884,9.3518,9.3978,9.5039,9.6203,9.6654,9.7501,9.8688,9.9595,10.0253,10.074,10.1667,10.2146,10.2236,10.2266,10.2445,10.2445,10.2445,10.251,10.2467,10.2445,10.2489,10.2489,10.2445,10.2445,10.2445,10.2445,10.2445,10.2445,10.2445,10.2445,10.2445,10.2445,10.2445,10.2445,10.2445,10.2445,10.2445,10.1969,10.1631,10.1255,10.0675,10.0097,9.9627,9.9559,9.9559,9.9559,9.9559,9.9559,9.9559,9.9559,9.9559,9.9559,9.9559,9.9559,9.9559,9.9559,9.9559,9.9559,9.9559,9.9559,9.9559,9.949,9.937,9.9301,9.9285,9.8958,9.875,9.8363,9.8247,9.8294,9.8317,9.8294,9.8201,9.794,9.7823,9.7712,9.6557,9.4975,9.4075,9.3827,9.39,9.3949,9.3679,9.3581,8.417,8.4261,8.4229,8.4574,8.5022,8.4924,8.5356,8.5999,8.5951,8.6094,8.6625,8.6677,8.6677,8.6707,8.7246,8.7516,8.7695,8.8843,8.9541,9.0009,9.1159,9.1474,9.1192,9.1014,9.1538,9.2126,9.2218,9.2239,9.2285,9.2419,9.2801,9.3276,9.3707,9.4403,9.5416,9.5406,9.6035,9.7252,9.791,9.8688,9.9415,10.062,10.1219,10.1398,10.2108,10.2445,10.2445,10.2445,10.272,10.3058,10.3002,10.288,10.2859,10.2641,10.2445,10.2445,10.2445,10.2445,10.2445,10.2445,10.2445,10.2445,10.2445,10.2445,10.2445,10.2445,10.2445,10.2445,10.224,10.1867,10.1425,10.1002,10.0397,9.9763,9.9559,9.9559,9.9559,9.9559,9.9559,9.9559,9.9559,9.9559,9.9559,9.9559,9.9559,9.9559,9.9559,9.9559,9.9559,9.9559,9.9559,9.9559,9.9513,9.9461,9.9445,9.9422,9.9187,9.921,9.9009,9.9032,9.9049,9.9072,9.8912,9.8653,9.8727,9.8543,9.7916,9.7026,9.5842,9.5265,9.5141,9.502,9.4753,9.4514,9.4511,8.4044,8.3558,8.3758,8.3691,8.3446,8.3263,8.3872,8.4675,8.4744,8.5355,8.6067,8.6516,8.6677,8.6677,8.6677,8.6677,8.6947,8.7725,8.8068,8.846,8.9922,9.0156,8.9773,8.9881,9.0694,9.1671,9.1859,9.2042,9.236,9.2314,9.2656,9.3276,9.3605,9.3992,9.4398,9.4548,9.5057,9.5935,9.6405,9.7192,9.815,9.9401,10.0133,10.0223,10.1121,10.1816,10.2245,10.2305,10.252,10.2754,10.2741,10.2912,10.3101,10.2859,10.2619,10.251,10.2445,10.2445,10.2445,10.2445,10.2445,10.2445,10.2445,10.2445,10.2445,10.2445,10.2445,10.2445,10.2423,10.2138,10.161,10.1329,10.0853,10.0081,9.9877,9.9712,9.9598,9.9598,9.9666,9.9552,9.9559,9.9559,9.9559,9.9559,9.9559,9.9559,9.9559,9.9559,9.9559,9.9559,9.9559,9.9559,9.9559,9.9559,9.9559,9.9559,9.9559,9.9559,9.9513,9.9438,9.9438,9.9438,9.9227,9.9037,9.9095,9.9095,9.8427,9.773,9.7078,9.6248,9.6296,9.6486,9.6081,9.575,9.5794,8.4147,8.3639,8.2875,8.2882,8.315,8.2351,8.2545,8.338,8.4174,8.4648,8.5109,8.6007,8.6558,8.6618,8.6618,8.6677,8.6707,8.6947,8.7441,8.8176,8.8358,8.8223,8.8112,8.9111,8.9924,9.0486,9.1364,9.1866,9.2059,9.2038,9.2394,9.3153,9.3297,9.3677,9.4257,9.4448,9.4518,9.4937,9.5935,9.6495,9.6805,9.8333,9.9181,9.9253,9.9776,10.0618,10.1517,10.167,10.1209,10.0401,10.1485,10.2306,10.295,10.3153,10.2645,10.2216,10.2429,10.2413,10.2407,10.2421,10.251,10.2467,10.2489,10.2445,10.2532,10.2598,10.2619,10.2619,10.2554,10.2423,10.2226,10.186,10.1469,10.1009,10.0622,10.012,9.9718,10.0006,10.0029,9.9741,9.9559,9.9559,9.9559,9.9559,9.9559,9.9559,9.9559,9.9559,9.9559,9.9559,9.9559,9.9559,9.9559,9.9559,9.9559,9.9559,9.9559,9.9559,9.9536,9.9513,9.9536,9.9536,9.9393,9.9416,9.9445,9.9467,9.917,9.8572,9.7922,9.7388,9.7435,9.788,9.7815,9.7469,9.7375,8.4294,8.3745,8.3222,8.2711,8.2105,8.148,8.152,8.2004,8.2404,8.2902,8.375,8.493,8.545,8.5648,8.6348,8.6648,8.6677,8.6677,8.6947,8.7299,8.7239,8.6996,8.684,8.7858,8.8871,8.9927,9.0499,9.1155,9.1882,9.1983,9.2226,9.2727,9.2801,9.3256,9.4024,9.4105,9.4246,9.4528,9.5017,9.5408,9.5972,9.7186,9.8023,9.8379,9.9208,9.9977,10.0392,10.0245,10.0263,10.0641,10.1038,10.1383,10.1437,10.1258,10.0937,10.0899,10.1481,10.1905,10.1739,10.2288,10.2815,10.2576,10.275,10.2924,10.2967,10.3196,10.3274,10.3282,10.308,10.2777,10.2445,10.1978,10.1824,10.1875,10.1462,10.0995,10.0622,10.0667,10.0554,10.0284,10.0052,9.9877,9.965,9.9559,9.9559,9.9559,9.9559,9.9559,9.9559,9.9559,9.9559,9.9559,9.9559,9.9559,9.9559,9.9559,9.9559,9.9604,9.9581,9.9559,9.9559,9.9559,9.9559,9.9559,9.9559,9.9559,9.9536,9.9032,9.8739,9.8513,9.8189,9.8351,9.8351,9.8339,9.8409,8.444,8.3955,8.357,8.2798,8.1838,8.116,8.0961,8.1118,8.1229,8.1665,8.2478,8.3618,8.4133,8.4433,8.548,8.6097,8.6097,8.6286,8.6563,8.6868,8.6922,8.6645,8.634,8.6762,8.7808,8.9037,8.9425,9.0236,9.1235,9.1364,9.1822,9.2419,9.2561,9.3008,9.384,9.3902,9.4084,9.4448,9.4609,9.487,9.529,9.6384,9.7058,9.7418,9.8348,9.8986,9.9065,9.8885,9.9089,9.9661,10.0322,10.0614,10.0458,10.0123,9.9908,9.9856,10.0684,10.1002,10.08,10.1554,10.2021,10.231,10.255,10.2946,10.3372,10.3638,10.3788,10.3736,10.3533,10.3264,10.2885,10.2403,10.2411,10.2785,10.2298,10.1793,10.1764,10.1373,10.1032,10.0801,10.0503,10.0187,9.9893,9.9552,9.953,9.9559,9.9559,9.9559,9.9559,9.9559,9.9559,9.9559,9.9559,9.9559,9.9559,9.9559,9.9666,9.9848,9.9666,9.9559,9.9559,9.9559,9.9559,9.9559,9.9559,9.9559,9.9559,9.9376,9.9147,9.8946,9.8831,9.8745,9.8629,9.8675,9.8814,8.4571,8.4282,8.369,8.3178,8.2567,8.1525,8.0905,8.0984,8.1149,8.1215,8.1445,8.2405,8.2935,8.3133,8.4289,8.4792,8.487,8.5423,8.6165,8.7048,8.7132,8.676,8.6263,8.6356,8.6905,8.7639,8.8338,8.936,9.0508,9.0297,9.0814,9.2118,9.2268,9.2723,9.3792,9.3872,9.4084,9.4489,9.495,9.52,9.537,9.6112,9.6603,9.667,9.7073,9.7551,9.7899,9.7925,9.7803,9.7612,9.883,9.9928,10.0212,10.0183,10.0133,9.9676,9.9776,9.9776,9.9806,10.0029,10.0869,10.1553,10.1919,10.2428,10.325,10.3587,10.3629,10.3613,10.3661,10.3722,10.3588,10.3148,10.3049,10.3544,10.2607,10.233,10.2518,10.1881,10.1158,10.1314,10.0861,10.0435,10.03,10.0029,9.9712,9.9666,9.9621,9.9598,9.9552,9.9559,9.9559,9.9559,9.9559,9.9627,9.9604,9.9604,9.9893,10.0097,9.9871,9.9695,9.9763,9.953,9.953,9.9559,9.9559,9.9559,9.9559,9.9536,9.9353,9.933,9.9422,9.933,9.9216,9.9153,9.9245,8.4618,8.4338,8.4117,8.3568,8.2812,8.2336,8.1838,8.1268,8.109,8.0836,8.083,8.1694,8.2145,8.2404,8.3521,8.385,8.3554,8.4433,8.5493,8.6543,8.6355,8.6589,8.7119,8.7039,8.6917,8.7093,8.7816,8.8711,8.9524,8.9281,8.9515,9.0336,9.0926,9.1675,9.2611,9.3465,9.4114,9.4489,9.496,9.5389,9.5715,9.6409,9.6951,9.7327,9.772,9.8005,9.8187,9.8187,9.8061,9.7991,9.8218,9.849,9.864,9.8632,9.8671,9.8899,9.9581,10.0057,9.9832,10.0551,10.1055,10.1221,10.1516,10.1851,10.226,10.2564,10.2736,10.2919,10.3293,10.3617,10.322,10.2609,10.2095,10.1891,10.137,10.1223,10.1634,10.1387,10.1431,10.1737,10.1416,10.1085,10.0913,10.0667,10.0419,10.0104,10.0074,9.9848,9.9598,9.9559,9.9559,9.9559,9.9604,9.9734,10.0029,10.0307,10.0606,10.0599,10.0442,10.0217,10.0052,9.9712,9.9552,9.953,9.9559,9.9559,9.9559,9.9559,9.9536,9.9536,9.9621,9.9682,9.9598,9.9604,9.9467,8.4647,8.4484,8.4382,8.3985,8.3358,8.3117,8.2645,8.1901,8.1398,8.1001,8.0833,8.1241,8.1506,8.1537,8.2606,8.3124,8.327,8.3904,8.4856,8.5824,8.5615,8.6071,8.7194,8.6884,8.6788,8.7105,8.7564,8.8141,8.87,8.8417,8.8544,8.9222,8.9827,9.047,9.1355,9.2514,9.347,9.406,9.5039,9.5636,9.6058,9.6866,9.7062,9.674,9.6874,9.7034,9.7053,9.7066,9.721,9.7578,9.7485,9.7609,9.7943,9.7986,9.808,9.8399,9.9127,9.951,9.9361,9.9997,10.0491,10.0658,10.0978,10.1351,10.1939,10.201,10.2092,10.2489,10.3204,10.3185,10.2624,10.2441,10.2117,10.1567,10.0993,10.0814,10.0929,10.0786,10.0731,10.1049,10.1009,10.0712,10.0551,10.0855,10.0943,10.0637,10.0591,10.0433,10.0178,10.0081,10.0149,10.0104,10.0081,10.0232,10.0749,10.0995,10.1121,10.1047,10.0883,10.0556,10.03,9.9984,9.9712,9.9689,9.9581,9.9559,9.9575,9.9552,9.9559,9.9598,9.9838,9.9883,9.9773,9.9621,9.9552,8.478,8.4719,8.4501,8.4384,8.4294,8.3705,8.3209,8.2736,8.2135,8.1729,8.1459,8.1172,8.0952,8.111,8.1773,8.2632,8.3735,8.3812,8.4363,8.5196,8.4999,8.5385,8.6203,8.5945,8.6449,8.7566,8.7429,8.7584,8.8024,8.7652,8.7993,8.9006,8.9134,8.9429,9.0077,9.1256,9.2346,9.3224,9.4598,9.5695,9.6182,9.7,9.6535,9.5019,9.4773,9.4916,9.4889,9.4791,9.5224,9.6171,9.6495,9.708,9.7983,9.8082,9.797,9.807,9.82,9.8219,9.8275,9.8344,9.8848,9.9925,10.0157,10.0868,10.2157,10.1839,10.1833,10.2595,10.2577,10.2403,10.1733,10.2312,10.2651,10.1917,10.134,10.0986,10.099,10.0204,9.9581,9.9461,9.9505,9.96,9.9773,10.0482,10.0722,10.0671,10.0883,10.0831,10.0662,10.0876,10.0942,10.0965,10.1106,10.1218,10.1335,10.1343,10.1291,10.0921,10.0529,10.0699,10.0475,10.0271,10.0052,9.9848,9.9877,9.9832,9.9666,9.9712,9.9916,9.988,10.0192,10.0297,10.0338,9.9864,9.9718,8.478,8.4734,8.469,8.4559,8.4338,8.4194,8.3779,8.3177,8.2751,8.2398,8.2104,8.176,8.1839,8.2243,8.2475,8.2725,8.307,8.2915,8.3476,8.4502,8.4351,8.4852,8.5914,8.5873,8.6291,8.7062,8.7023,8.7283,8.7783,8.7246,8.7071,8.7413,8.8039,8.8581,8.9094,9.0305,9.1195,9.1787,9.2431,9.3196,9.3874,9.4771,9.5038,9.4768,9.494,9.5204,9.5481,9.5222,9.5323,9.589,9.5501,9.5407,9.5675,9.5688,9.5657,9.5724,9.619,9.663,9.6909,9.6944,9.7562,9.8813,9.9035,9.9658,10.0907,10.1229,10.1233,10.1238,10.0187,10.0141,10.0611,10.1242,10.1104,10.0408,10.0129,10.0013,10.0023,9.956,9.9379,9.9869,9.9513,9.9587,9.967,9.9645,9.9557,9.915,9.9557,10.0011,9.9814,10.0471,10.1032,10.1099,10.1617,10.1238,9.9847,10.0561,10.0916,10.0371,9.9941,10.0039,9.9952,10.0523,10.066,9.9679,10.0423,10.0563,10.01,10.0892,10.1469,10.0929,10.0767,10.0877,10.0515,10.0645,10.0402,8.4676,8.478,8.478,8.4676,8.4513,8.453,8.4252,8.3809,8.3523,8.3207,8.2797,8.2429,8.246,8.2797,8.2812,8.2812,8.2797,8.2628,8.2991,8.365,8.3461,8.402,8.5172,8.5183,8.5588,8.6442,8.6332,8.6766,8.7393,8.6931,8.677,8.7209,8.7679,8.8129,8.8393,8.9615,9.0485,9.085,9.1602,9.1906,9.1812,9.2273,9.2737,9.3195,9.3437,9.371,9.3864,9.3727,9.3976,9.4682,9.4366,9.4358,9.4874,9.4905,9.4944,9.5183,9.5617,9.5982,9.6375,9.6409,9.6808,9.7574,9.7702,9.8075,9.9092,9.8892,9.9033,9.9382,9.8939,9.8583,9.9037,9.9152,9.8933,9.8469,9.8666,9.8816,9.8805,9.8861,9.8949,9.9111,9.8998,9.8901,9.9079,9.8977,9.8759,9.8802,9.9186,9.9586,9.9267,9.9784,10.0203,10.0063,9.977,9.9303,9.9009,10.0014,9.9984,9.9083,9.8943,9.9113,9.9023,9.9454,9.9658,9.935,9.9145,9.9254,9.9936,10.0485,10.1252,10.1917,10.1635,10.1151,9.9936,9.9585,9.9473,8.4431,8.4748,8.478,8.478,8.478,8.4748,8.4603,8.437,8.4294,8.4002,8.3465,8.3101,8.2965,8.2888,8.2873,8.2889,8.2873,8.2828,8.2829,8.283,8.2567,8.3086,8.4119,8.399,8.4561,8.5599,8.5413,8.5942,8.7173,8.6536,8.6734,8.7728,8.7893,8.796,8.8051,8.9022,8.9812,9.0196,9.1404,9.1353,9.0065,8.9996,9.0373,9.1137,9.1202,9.1122,9.1143,9.1013,9.1563,9.2665,9.2679,9.3243,9.4233,9.4439,9.4612,9.4874,9.4977,9.5324,9.5632,9.5876,9.5978,9.6214,9.6363,9.6707,9.7219,9.5998,9.5894,9.7483,9.8325,9.8109,9.7285,9.7184,9.7185,9.6903,9.7424,9.7724,9.7536,9.8087,9.8417,9.7607,9.7673,9.7758,9.8309,9.8379,9.8588,9.8998,9.927,9.9308,9.9005,9.9191,9.9287,9.8314,9.7038,9.6757,9.7641,9.8221,9.8009,9.8069,9.8189,9.817,9.7977,9.7868,9.78,9.8306,9.7597,9.7697,9.807,9.8248,9.9035,10.0508,10.1274,10.1138,9.87,9.7789,9.7647,8.3676,8.4748,8.478,8.478,8.478,8.478,8.4618,8.4323,8.4027,8.4014,8.4103,8.4058,8.3819,8.3551,8.336,8.3254,8.3239,8.295,8.2812,8.2812,8.272,8.2878,8.313,8.31,8.3634,8.4585,8.463,8.5186,8.6089,8.578,8.6219,8.7474,8.8072,8.8294,8.8324,8.8317,8.8487,8.8884,8.9458,8.9856,8.9992,8.9996,9.0373,9.1118,9.117,9.0766,9.0003,8.9663,8.9331,8.8976,8.8654,8.857,8.8885,8.9082,8.9229,8.9373,8.9807,9.0266,9.0725,9.2174,9.3585,9.4637,9.5753,9.6903,9.7761,9.4958,9.3982,9.6267,9.6513,9.6822,9.7304,9.7377,9.7268,9.6902,9.712,9.7009,9.6696,9.6568,9.6699,9.7342,9.7148,9.7329,9.7998,9.8027,9.7901,9.8119,9.8447,9.849,9.829,9.8995,9.8714,9.7409,9.6337,9.6099,9.5832,9.5759,9.5576,9.5436,9.6365,9.6914,9.71,9.7734,9.8137,9.8014,9.8062,9.74,9.5783,9.5476,9.6633,9.8694,9.9411,9.9174,9.8195,9.7955,9.791,8.1979,8.2767,8.28,8.3154,8.3765,8.3765,8.4033,8.4402,8.2802,8.2215,8.2391,8.2276,8.2436,8.2756,8.2643,8.2919,8.3568,8.3326,8.3251,8.3236,8.3117,8.3056,8.3088,8.2889,8.3082,8.3634,8.3665,8.4276,8.5337,8.5075,8.566,8.6979,8.7186,8.7535,8.7981,8.7766,8.8028,8.8675,8.7848,8.7735,8.835,8.8383,8.8668,8.9279,8.9279,8.9047,8.8484,8.8243,8.7928,8.7426,8.7203,8.7091,8.7076,8.73,8.7236,8.6806,8.7222,8.7438,8.729,8.8906,9.0601,9.2199,9.3059,9.3685,9.409,9.2367,9.1981,9.3449,9.3359,9.3484,9.4209,9.4605,9.4738,9.4529,9.5588,9.6094,9.579,9.6017,9.6509,9.681,9.6768,9.6714,9.6932,9.7238,9.7391,9.7118,9.783,9.815,9.7772,9.8681,9.8745,9.7145,9.6886,9.6518,9.5538,9.485,9.471,9.507,9.5742,9.6184,9.6304,9.6502,9.6961,9.7061,9.6826,9.6085,9.4987,9.4459,9.5027,9.6511,9.666,9.6678,9.6681,9.667,9.6428,8.0189,8.0551,8.0492,8.1205,8.2331,8.2317,8.2993,8.3912,8.1395,8.0253,8.0285,8.0052,8.0561,8.16,8.1564,8.2175,8.3317,8.3496,8.3548,8.3488,8.349,8.345,8.3403,8.3071,8.2904,8.2889,8.292,8.3503,8.4511,8.4323,8.4918,8.6091,8.5924,8.6296,8.717,8.7159,8.7605,8.8467,8.6594,8.5905,8.648,8.648,8.6691,8.7044,8.7139,8.7013,8.6776,8.6776,8.6698,8.6509,8.632,8.6194,8.621,8.6178,8.592,8.5127,8.514,8.4924,8.4395,8.5276,8.678,8.8708,8.9501,8.9306,8.8196,8.9028,8.9837,9.0263,9.0117,8.989,9.0131,9.1,9.1503,9.1561,9.3333,9.4401,9.4029,9.5102,9.5815,9.5779,9.6031,9.5932,9.5803,9.6545,9.6957,9.6653,9.7438,9.8157,9.7858,9.82,9.8013,9.719,9.7328,9.7017,9.5702,9.4929,9.505,9.5754,9.5824,9.5906,9.5856,9.5769,9.5631,9.543,9.5241,9.487,9.476,9.4609,9.4578,9.4618,9.4787,9.4707,9.4777,9.4509,9.4339,7.9841,8.0921,8.0606,8.0657,8.085,8.0818,8.1011,8.1232,8.1205,0.0,0.0,8.1189,8.1279,8.1454,8.1144,8.0998,8.112,8.2067,8.2334,8.2071,8.3158,8.3715,8.3701,8.3435,8.3299,8.3253,8.3284,8.3243,8.3189,8.3466,8.4145,8.5108,8.5124,8.5464,8.6076,8.5668,8.5654,8.6086,8.5925,8.6056,8.6464,8.648,8.6674,8.706,8.7091,8.6525,8.5376,8.5313,8.4778,8.3583,8.2542,8.1943,8.1958,8.1216,8.0749,8.0762,8.0155,7.9946,8.0295,7.9684,8.0532,8.3394,8.6932,8.7632,8.4246,8.5271,8.7091,8.9548,8.9219,8.9337,9.0532,9.0459,9.0268,9.0303,9.0423,9.0485,9.0506,9.1452,9.2633,9.3321,9.4359,9.5343,9.5939,9.633,9.6515,9.6566,9.7249,9.799,9.7828,9.7355,9.6744,9.5868,9.5335,9.5054,9.5058,9.5298,9.5624,9.573,9.571,9.5803,9.5803,9.5763,9.5754,9.5473,9.5359,9.5169,9.5397,9.4799,9.4479,9.4439,9.4439,9.4439,9.4349,9.3641,9.3242,7.854,7.9235,7.8942,7.9244,0.0,7.9878,7.9182,7.8084,7.92,7.9687,7.9654,7.9653,8.0098,8.0728,8.0563,8.0708,8.1187,8.1783,8.1803,8.1367,8.1885,8.2432,8.2976,8.2683,8.29,8.3566,8.3598,8.3477,8.3311,8.3343,8.3662,8.4158,8.3927,8.3947,8.4146,8.4363,8.4312,8.3938,8.4098,8.4305,8.4637,8.4637,8.4716,8.4888,8.4935,0.0,0.0,0.0,0.0,0.0,0.0,0.0,0.0,7.8997,7.7954,7.6901,7.5893,7.4914,7.4091,7.4281,7.5449,7.7831,8.0811,8.0813,7.691,7.9248,8.2137,8.4942,8.4926,8.52,8.6517,8.6947,8.7085,8.7027,8.7989,8.8538,8.852,8.9485,9.0435,9.093,9.212,9.3067,9.3429,9.4592,9.5499,9.5441,9.6396,9.7172,9.7141,9.6924,9.6629,9.6203,9.461,9.3654,9.4833,9.5763,9.6132,9.4879,9.4528,9.4445,9.4445,9.4223,9.407,9.4051,9.3743,9.3542,9.3674,9.3423,9.3377,9.42,9.4439,9.42,9.3202,9.2628,9.2359,7.6751,7.6882,7.6636,7.7165,7.8223,7.8368,7.7304,7.5574,7.683,7.737,7.7358,7.7355,7.7992,7.9091,7.9087,7.977,8.0875,8.1086,8.1107,8.0891,8.0795,8.1251,8.2112,8.1708,8.2094,8.3179,8.3211,8.317,8.3067,8.2923,8.2777,8.2658,8.2329,8.2091,8.2146,0.0,0.0,0.0,8.2518,8.2751,8.2904,8.2904,8.2873,8.2812,8.2812,0.0,8.2495,8.1439,8.0805,8.0579,7.8975,0.0,7.837,0.0,0.0,0.0,0.0,0.0,0.0,0.0,0.0,0.0,7.2111,7.1515,6.9269,7.2594,7.6351,7.9669,7.9854,8.0357,8.1827,8.2778,8.3184,8.3059,8.4994,8.6285,8.603,8.7309,8.8343,8.8289,8.9551,9.0394,9.0501,9.2249,9.3674,9.3701,9.4921,9.5596,9.5106,9.5337,9.5774,9.5674,9.3824,9.3025,9.4374,9.5538,9.5541,9.4191,9.3403,9.3348,9.3404,9.2998,9.2628,9.2659,9.2194,9.1845,9.1331,9.124,9.1743,9.3398,9.3701,9.327,9.1736,9.1394,9.1459,7.4744,7.465,7.4398,7.4288,7.4267,7.5066,7.5249,7.4948,7.5137,7.5215,7.5238,7.5262,7.5331,7.5549,7.5503,7.6211,7.7474,7.8499,7.9491,8.042,8.1244,8.1745,8.1841,8.1219,8.1057,8.1218,8.1264,8.1002,8.056,8.072,8.0584,8.0202,7.976,8.0042,8.0834,8.0158,8.0305,8.1406,8.2874,8.3492,8.333,8.3283,8.3163,8.2828,8.2812,8.2383,8.1514,8.1069,8.0526,7.9802,7.7082,7.5647,7.5778,7.2348,6.9707,0.0,6.5018,0.0,0.0,0.0,0.0,0.0,0.0,0.0,0.0,6.6367,7.0424,7.5853,7.5903,7.673,7.946,7.9436,7.9256,7.9273,8.0346,8.1059,8.1093,8.2984,8.4649,8.5517,8.6897,8.8183,8.9024,8.9478,9.0314,9.1522,9.276,9.2774,9.1027,9.1482,9.202,9.1449,9.188,9.2168,9.2815,9.3788,9.424,9.4033,9.3545,9.3984,9.362,9.3312,9.3199,9.3114,9.2372,9.1441,8.9701,8.9387,8.9753,9.0862,9.1163,9.0953,9.019,8.9927,9.0447,7.4944,7.4989,7.4582,7.2725,7.0148,7.1383,7.1915,7.1983,7.275,7.306,7.2978,7.3024,7.3027,7.3012,7.3069,7.3836,7.5067,7.5446,7.6128,7.7121,7.8241,7.902,7.9376,7.9939,8.0549,8.1181,8.1168,8.1092,8.0816,8.0729,8.0496,8.0114,7.982,7.916,7.8191,7.7568,7.8658,8.1407,8.2221,8.2846,8.339,8.3406,8.3177,8.2812,8.2103,8.1532,8.105,7.961,7.8303,7.7133,7.4414,7.2303,7.0996,6.7034,6.3968,0.0,0.0,0.0,0.0,0.0,0.0,0.0,0.0,0.0,0.0,0.0,6.3537,6.5909,6.8752,7.1592,7.4518,7.4465,7.4136,7.406,7.5111,7.6107,7.6675,7.8232,7.9963,8.1813,8.3118,8.4745,8.6942,8.7852,8.8921,9.0298,8.973,8.9224,8.9605,8.9974,9.0103,8.9939,9.007,9.0205,9.0129,9.1081,9.1367,9.0174,8.9698,8.9561,8.9512,8.9392,8.932,8.9285,8.9012,8.8424,8.7529,8.7285,8.7697,8.8751,8.9416,8.9161,8.7972,8.7637,8.8085,7.3626,7.363,7.2624,6.9912,6.6473,6.76,6.8112,6.8205,6.9279,6.9674,6.9567,6.9567,6.9388,6.9048,6.9119,7.0113,7.1754,7.1839,7.2573,7.384,7.5049,7.6055,7.6844,7.787,7.8776,7.9611,7.9599,7.956,7.9547,7.9268,7.8986,7.8716,7.801,7.6726,7.5035,7.5115,7.6898,8.044,8.1129,8.2053,8.3179,8.338,8.3141,8.2386,8.1378,8.0646,8.0038,7.7892,7.5941,7.4367,7.1425,6.8615,6.6146,6.1777,0.0,0.0,0.0,0.0,0.0,0.0,0.0,0.0,0.0,4.7373,4.8233,0.0,5.6889,0.0,6.1618,6.6117,6.8935,6.8994,0.0,0.0,6.9779,7.1078,7.224,7.335,7.5138,7.792,7.9231,8.1035,8.3908,8.5444,8.681,8.7909,8.6212,8.5737,8.8137,8.8522,8.8609,8.8816,8.88,8.8279,8.7622,8.8559,8.8968,8.702,8.6495,8.6189,8.622,8.6187,8.6187,8.6125,8.6156,8.5893,8.554,8.5447,8.5908,8.711,8.7885,8.777,8.6069,8.5999,8.6449,6.8565,6.8058,6.5518,6.4151,6.3706,6.3809,6.3885,6.3877,6.398,6.4033,6.4016,6.4016,6.3227,6.1882,6.1856,0.0,6.6222,6.7358,6.9326,7.1963,7.289,7.3993,7.5182,7.461,7.4367,7.4443,7.4342,7.4246,7.4178,7.4089,7.3915,7.3615,7.1623,7.0855,7.1425,7.2648,7.4523,7.6985,7.9712,8.1596,8.2654,8.3371,8.2874,8.1091,8.0904,7.9892,7.7881,7.6137,7.4306,7.2321,6.8186,6.4584,6.1958,0.0,0.0,0.0,0.0,0.0,0.0,0.0,0.0,0.0,0.0,0.0,0.0,0.0,0.0,5.1009,5.606,0.0,6.3391,6.3529,0.0,0.0,0.0,6.5783,6.7255,6.837,7.0462,7.4225,0.0,0.0,7.9673,8.1153,8.2154,8.2761,8.2441,8.2709,8.4205,8.5402,8.6361,8.719,8.8257,8.7968,8.5403,8.6568,8.7616,8.7063,8.7172,8.6681,8.6634,8.6618,8.6711,8.646,8.6757,8.6163,8.4268,8.3706,8.4344,8.5619,8.6012,8.5838,8.4856,8.5517,8.6317,6.3625,6.0038,5.8997,5.8491,5.8456,5.8421,5.8456,5.8456,5.8463,5.835,5.8146,5.7225,5.6465,5.5835,5.4978,0.0,0.0,0.0,6.3971,6.6681,6.853,6.9941,7.0929,7.1408,7.1537,7.1384,7.1352,7.1275,7.1231,7.1407,6.935,6.5077,0.0,6.4602,6.6302,6.8466,7.1586,7.569,7.8319,8.0736,8.2791,8.3467,8.2823,8.0917,7.9252,7.7641,7.6087,7.3893,7.1221,6.8125,6.3937,5.9668,0.0,0.0,0.0,0.0,0.0,0.0,0.0,0.0,0.0,0.0,0.0,3.8015,3.9368,0.0,0.0,0.0,5.1441,5.5289,5.9017,5.932,0.0,0.0,0.0,0.0,0.0,0.0,0.0,6.7722,6.9983,7.2787,7.6812,7.6536,7.6901,7.9541,7.9795,8.0501,8.2633,0.0,8.3514,8.3918,8.4105,8.363,8.1992,8.2573,8.3379,8.3665,8.3124,8.2658,8.2611,8.2565,8.255,8.2518,8.2535,8.2394,8.1882,7.9229,7.8109,8.1436,8.2192,8.1824,8.0832,8.1788,8.2967,5.649,0.0,0.0,0.0,0.0,5.1926,5.2159,5.2584,5.2649,5.2274,5.1611,5.0531,0.0,0.0,0.0,0.0,0.0,0.0,5.7856,6.0861,6.3486,6.5414,6.6718,6.7399,6.7597,6.7455,6.7404,6.7404,6.7332,6.5306,6.1722,5.6832,0.0,0.0,0.0,0.0,6.8649,7.3359,7.6794,7.974,8.2389,8.2673,8.2264,8.1168,7.7974,7.5578,7.4092,7.112,6.7685,6.3731,5.9315,0.0,0.0,0.0,0.0,0.0,0.0,0.0,0.0,0.0,0.0,0.0,0.0,0.0,0.0,0.0,0.0,0.0,0.0,0.0,5.3621,5.4691,5.5132,0.0,0.0,0.0,0.0,0.0,0.0,0.0,0.0,0.0,7.1454,7.1517,7.2752,0.0,0.0,7.8807,8.139,8.1568,8.1571,8.1807,8.1267,0.0,7.9235,7.9554,7.9941,7.9802,7.9198,7.869,7.8606,7.8731,7.8796,7.8842,7.8865,7.8222,7.657,7.3323,7.2862,7.6579,7.7616,7.7262,7.6845,7.7756,7.9015,0.0,0.0,0.0,0.0,4.4139,0.0,0.0,0.0,4.65,4.5704,0.0,4.4195,0.0,0.0,0.0,0.0,4.4476,4.7449,0.0,0.0,5.7738,6.0371,6.2713,6.2162,6.1889,6.1871,6.1722,6.1655,6.1322,5.4017,5.0015,0.0,0.0,0.0,0.0,0.0,6.5704,6.9506,7.4966,7.8853,8.1011,8.0813,8.0948,8.1576,7.7423,7.4073,7.179,6.7692,6.3635,5.9589,5.4182,0.0,0.0,0.0,0.0,0.0,0.0,0.0,0.0,0.0,0.0,0.0,0.0,0.0,0.0,0.0,0.0,0.0,0.0,0.0,0.0,4.9256,0.0,0.0,0.0,0.0,0.0,0.0,0.0,0.0,0.0,6.2526,6.259,6.6053,7.0214,7.421,0.0,0.0,0.0,0.0,8.0822,8.1663,8.097,7.9638,7.776,7.8689,7.8887,7.6718,0.0,0.0,7.5955,7.6317,7.6572,7.6649,7.6693,7.4714,6.7409,6.6558,6.8234,7.2216,7.26,7.2496,7.3395,7.4249,7.5563,0.0,0.0,0.0,0.0,0.0,0.0,0.0,0.0,0.0,4.0145,3.9421,3.7503,0.0,0.0,0.0,0.0,0.0,0.0,0.0,0.0,5.1101,5.3632,5.5318,5.5916,5.6145,5.612,5.5156,5.2834,0.0,0.0,0.0,0.0,0.0,0.0,0.0,0.0,6.3572,6.8316,7.361,7.7495,7.9827,8.0304,8.001,7.9039,7.6436,7.2585,6.7434,6.3174,5.875,0.0,0.0,0.0,0.0,0.0,0.0,0.0,0.0,0.0,0.0,0.0,0.0,0.0,0.0,0.0,0.0,0.0,0.0,0.0,0.0,0.0,0.0,0.0,4.6792,0.0,0.0,0.0,0.0,0.0,0.0,0.0,0.0,0.0,6.0347,6.2135,6.5143,7.0183,7.1943,7.4014,7.7585,0.0,0.0,0.0,0.0,0.0,0.0,0.0,7.5233,7.2904,7.2535,7.2196,7.119,7.1291,7.1494,7.1494,0.0,0.0,6.1597,6.1928,6.4362,6.7492,6.7564,6.708,6.693,6.8728,7.0409,0.0,0.0,0.0,0.0,0.0,0.0,0.0,0.0,0.0,3.4024,3.3377,0.0,0.0,0.0,0.0,0.0,0.0,0.0,0.0,0.0,0.0,0.0,4.8537,4.976,0.0,0.0,0.0,0.0,0.0,0.0,0.0,0.0,0.0,0.0,0.0,0.0,6.0961,6.7207,7.2069,7.6157,7.9461,7.9422,7.867,7.7175,7.503,7.1082,6.5108,0.0,0.0,0.0,0.0,0.0,0.0,0.0,0.0,0.0,0.0,0.0,0.0,0.0,0.0,0.0,0.0,0.0,0.0,0.0,0.0,0.0,0.0,0.0,0.0,0.0,4.2621,0.0,0.0,0.0,0.0,0.0,0.0,0.0,0.0,0.0,0.0,5.8288,6.1103,6.6233,6.8854,7.1527,7.5101,7.5726,7.6081,0.0,0.0,0.0,0.0,0.0,0.0,0.0,0.0,0.0,0.0,0.0,0.0,0.0,6.4821,6.1754,5.5767,5.7471,6.0523,6.2575,0.0,0.0,0.0,0.0,0.0,0.0,0.0,0.0,0.0,0.0,0.0,0.0,0.0,0.0,0.0,2.604,0.0,0.0,2.3668,0.0,0.0,0.0,0.0,0.0,0.0,0.0,0.0,0.0,0.0,0.0,0.0,0.0,0.0,0.0,0.0,0.0,0.0,0.0,0.0,0.0,0.0,5.8005,6.6171,7.0341,7.4842,7.9699,7.8147,7.6963,7.6281,7.3304,6.9526,6.4909,0.0,0.0,0.0,0.0,0.0,0.0,0.0,0.0,0.0,0.0,0.0,0.0,0.0,0.0,0.0,0.0,0.0,0.0,0.0,0.0,0.0,0.0,0.0,0.0,0.0,0.0,3.9951,4.1041,4.165,0.0,0.0,0.0,0.0,0.0,0.0,0.0,0.0,0.0,6.2594,6.6782,7.037,7.2851,7.4208,7.4725,7.4337,7.4225,7.3537,7.1811,7.0285,6.8609,0.0,0.0,0.0,0.0,0.0,0.0,0.0,0.0,0.0,0.0,0.0,0.0,0.0,0.0,0.0,0.0,0.0,0.0,0.0,0.0,0.0,0.0,0.0,0.0,0.0,0.0,0.0,0.0,0.0,0.0,0.0,0.0,0.0,0.0,0.0,0.0,0.0,0.0,0.0,0.0,0.0,0.0,0.0,0.0,0.0,0.0,0.0,0.0,0.0,0.0,0.0,0.0,0.0,0.0,5.7663,6.5107,7.0057,7.4105,7.7199,7.7382,7.6558,7.4614,7.1429,6.7504,0.0,0.0,0.0,0.0,0.0,0.0,0.0,0.0,0.0,0.0,0.0,0.0,0.0,0.0,0.0,0.0,0.0,0.0,0.0,0.0,0.0,0.0,0.0,0.0,0.0,0.0,0.0,0.0,3.8828,3.9211,3.9891,0.0,0.0,0.0,0.0,0.0,0.0,0.0,0.0,0.0,0.0,6.6545,7.0166,7.1443,7.2304,7.3077,7.2074,7.0996,7.0274,6.9627,6.7688,6.317,0.0,0.0,0.0,0.0,0.0,0.0,0.0,0.0,0.0,0.0,0.0,0.0,0.0,0.0,0.0,0.0,0.0,0.0,0.0,0.0,0.0,0.0,0.0,0.0,0.0,0.0,0.0,0.0,0.0,0.0,0.0,0.0,0.0,0.0,0.0,0.0,0.0,0.0,0.0,0.0,0.0,0.0,0.0,0.0,0.0,0.0,0.0,0.0,0.0,0.0,0.0,0.0,0.0,5.6703,6.49,6.9095,7.2852,7.6113,7.6046,7.5056,7.3344,6.9364,6.4874,0.0,0.0,0.0,0.0,0.0,0.0,0.0,0.0,0.0,0.0,0.0,0.0,0.0,0.0,0.0,0.0,0.0,0.0,0.0,0.0,0.0,0.0,0.0,0.0,0.0,0.0,0.0,0.0,3.6328,3.7115,3.7639,0.0,0.0,0.0,0.0,0.0,0.0,0.0,0.0,0.0,0.0,6.2462,6.6649,6.7947,0.0,0.0,6.9342,6.8435,6.8084,6.6846,6.4737,6.1422,5.9042,0.0,0.0,0.0,0.0,0.0,0.0,0.0,0.0,0.0,0.0,0.0,0.0,0.0,0.0,0.0,0.0,0.0,0.0,0.0,0.0,0.0,0.0,0.0,0.0,0.0,0.0,0.0,0.0,0.0,0.0,0.0,0.0,0.0,0.0,0.0,0.0,0.0,0.0,0.0,0.0,0.0,0.0,0.0,0.0,0.0,0.0,0.0,0.0,0.0,0.0,0.0,0.0,5.535,6.5047,6.767,7.1389,7.625,7.4439,7.3045,7.23,6.7404,6.2063,0.0,0.0,0.0,0.0,0.0,0.0,0.0,0.0,0.0,0.0,0.0,0.0,0.0,0.0,0.0,0.0,0.0,0.0,0.0,0.0,0.0,0.0,0.0,0.0,0.0,0.0,0.0,0.0,0.0,0.0,0.0,0.0,0.0,0.0,0.0,0.0,0.0,0.0,0.0,0.0,0.0,5.841,6.2641,6.3971,6.4829,0.0,6.5883,6.5583,6.5138,6.2618,6.0678,6.0608,0.0,0.0,0.0,0.0,0.0,0.0,0.0,0.0,0.0,0.0,0.0,0.0,0.0,0.0,0.0,0.0,0.0,0.0,0.0,0.0,0.0,0.0,0.0,0.0,0.0,0.0,0.0,0.0,0.0,0.0,0.0,0.0,0.0,0.0,0.0,0.0,0.0,0.0,0.0,0.0,0.0,0.0,0.0,0.0,0.0,0.0,0.0,0.0,0.0,0.0,0.0,0.0,0.0,0.0,6.3874,6.7584,7.0894,7.3897,7.4005,7.3046,7.0922,6.6904,0.0,0.0,0.0,0.0,0.0,0.0,0.0,0.0,0.0,0.0,0.0,0.0,0.0,0.0,0.0,0.0,0.0,0.0,0.0,0.0,0.0,0.0,0.0,0.0,0.0,0.0,0.0,2.7827,0.0,0.0,0.0,0.0,0.0,0.0,0.0,0.0,0.0,0.0,0.0,0.0,0.0,0.0,5.6842,5.9647,6.1062,6.18,0.0,0.0,6.0238,6.0885,6.1015,5.9634,0.0,0.0,0.0,0.0,0.0,0.0,0.0,0.0,0.0,0.0,0.0,0.0,0.0,0.0,0.0,0.0,0.0,0.0,0.0,0.0,0.0,0.0,0.0,0.0,0.0,0.0,0.0,0.0,0.0,0.0,0.0,0.0,0.0,0.0,0.0,0.0,0.0,0.0,0.0,0.0,0.0,0.0,0.0,0.0,0.0,0.0,0.0,0.0,0.0,0.0,0.0,0.0,0.0,0.0,5.481,6.2612,6.6779,7.0289,7.3179,7.2698,7.1791,7.0446,6.6139,6.0882,0.0,0.0,0.0,0.0,0.0,0.0,0.0,0.0,0.0,0.0,0.0,0.0,0.0,0.0,0.0,0.0,0.0,0.0,0.0,0.0,0.0,0.0,0.0,0.0,0.0,0.0,0.0,0.0,0.0,0.0,0.0,0.0,0.0,0.0,0.0,0.0,0.0,0.0,0.0,0.0,0.0,0.0,5.5815,5.6618,0.0,0.0,0.0,5.4877,5.6675,0.0,0.0,0.0,0.0,0.0,0.0,0.0,0.0,0.0,0.0,0.0,0.0,0.0,0.0,0.0,0.0,0.0,0.0,0.0,0.0,0.0,0.0,0.0,0.0,0.0,0.0,0.0,0.0,0.0,0.0,0.0,0.0,0.0,0.0,0.0,0.0,0.0,0.0,0.0,0.0,0.0,0.0,0.0,0.0,0.0,0.0,0.0,0.0,0.0,0.0,0.0,0.0,0.0,0.0,0.0,0.0,0.0,6.1627,6.5666,6.9526,7.3122,7.1298,7.0206,7.0321,6.5264,5.9654,0.0,0.0,0.0,0.0,0.0,0.0,0.0,0.0,0.0,0.0,0.0,0.0,0.0,0.0,0.0,0.0,0.0,0.0,0.0,0.0,0.0,0.0,0.0,0.0,0.0,0.0,0.0,0.0,0.0,0.0,0.0,0.0,0.0,0.0,0.0,0.0,0.0,0.0,0.0,0.0,0.0,4.912,5.1861,5.1906,5.2086,0.0,0.0,4.9969,5.2766,5.2867,0.0,0.0,0.0,0.0,0.0,0.0,0.0,0.0,0.0,0.0,0.0,0.0,0.0,0.0,0.0,0.0,0.0,0.0,0.0,0.0,0.0,0.0,0.0,0.0,0.0,0.0,0.0,0.0,0.0,0.0,0.0,0.0,0.0,0.0,0.0,0.0,0.0,0.0,0.0,0.0,0.0,0.0,0.0,0.0,0.0,0.0,0.0,0.0,0.0,0.0,0.0,0.0,0.0,0.0,0.0,0.0,6.1653,6.5018,6.8448,7.2074,7.1396,7.0468,6.9408,6.4515,5.9284,0.0,0.0,0.0,0.0,0.0,0.0,0.0,0.0,0.0,0.0,0.0,0.0,0.0,0.0,0.0,0.0,0.0,0.0,0.0,0.0,0.0,0.0,0.0,0.0,0.0,0.0,0.0,0.0,0.0,0.0,0.0,0.0,0.0,0.0,0.0,0.0,0.0,0.0,0.0,0.0,0.0,4.7749,5.0241,5.0545,0.0,0.0,0.0,0.0,5.0149,5.0123,0.0,0.0,0.0,0.0,0.0,0.0,0.0,0.0,0.0,0.0,0.0,0.0,0.0,0.0,0.0,0.0,0.0,0.0,0.0,0.0,0.0,0.0,0.0,0.0,0.0,0.0,0.0,0.0,0.0,0.0,0.0,0.0,0.0,0.0,0.0,0.0,0.0,0.0,0.0,0.0,0.0,0.0,0.0,0.0,0.0,0.0,0.0,0.0,0.0,0.0,0.0,0.0,0.0,0.0,0.0,0.0,5.8829,6.3852,6.7905,7.1,7.1133,7.0255,6.8337,6.4011,5.8861,0.0,0.0,0.0,0.0,0.0,0.0,0.0,0.0,0.0,0.0,0.0,0.0,0.0,0.0,0.0,0.0,0.0,0.0,0.0,0.0,0.0,0.0,0.0,0.0,0.0,0.0,0.0,0.0,0.0,0.0,0.0,0.0,0.0,0.0,0.0,0.0,0.0,0.0,0.0,0.0,4.4183,4.5755,4.6889,0.0,0.0,0.0,0.0,0.0,0.0,4.6467,4.6045,0.0,0.0,0.0,0.0,0.0,0.0,0.0,0.0,0.0,0.0,0.0,0.0,0.0,0.0,0.0,0.0,0.0,0.0,0.0,0.0,0.0,0.0,0.0,0.0,0.0,0.0,0.0,0.0,0.0,0.0,0.0,0.0,0.0,0.0,0.0,0.0,0.0,0.0,0.0,0.0,0.0,0.0,0.0,0.0,0.0,0.0,0.0,0.0,0.0,0.0,0.0,0.0,0.0,0.0,0.0,5.5825,6.2694,6.7617,7.0346,7.1026,7.0107,6.7591,6.3543,5.8189,5.1361,0.0,0.0,0.0,0.0,0.0,0.0,0.0,0.0,0.0,0.0,0.0,0.0,0.0,0.0,0.0,0.0,0.0,0.0,0.0,0.0,0.0,0.0,0.0,0.0,0.0,0.0,0.0,0.0,0.0,0.0,0.0,0.0,0.0,0.0,0.0,0.0,0.0,0.0,0.0,4.1934,4.3425,0.0,0.0,0.0,0.0,0.0,0.0,0.0,0.0,4.2719,0.0,0.0,0.0,0.0,0.0,0.0,0.0,0.0,0.0,0.0,0.0,0.0,0.0,0.0,0.0,0.0,0.0,0.0,0.0,0.0,0.0,0.0,0.0,0.0,0.0,0.0,0.0,0.0,0.0,0.0,0.0,0.0,0.0,0.0,0.0,0.0,0.0,0.0,0.0,0.0,0.0,0.0,0.0,0.0,0.0,0.0,0.0,0.0,0.0,0.0,0.0,0.0,0.0,0.0,0.0,0.0,6.2081,6.6939,7.0555,7.1536,7.0672,6.7961,6.319,5.6875,4.9046,0.0,0.0,0.0,0.0,0.0,0.0,0.0,0.0,0.0,0.0,0.0,0.0,0.0,0.0,0.0,0.0,0.0,0.0,0.0,0.0,0.0,0.0,0.0,0.0,0.0,0.0,0.0,0.0,0.0,0.0,0.0,0.0,0.0,0.0,0.0,0.0,0.0,0.0,3.6896,3.9251,0.0,0.0,0.0,0.0,0.0,0.0,0.0,0.0,3.9609,0.0,0.0,0.0,0.0,0.0,0.0,0.0,0.0,0.0,0.0,0.0,0.0,0.0,0.0,0.0,0.0,0.0,0.0,0.0,0.0,0.0,0.0,0.0,0.0,0.0,0.0,0.0,0.0,0.0,0.0,0.0,0.0,0.0,0.0,0.0,0.0,0.0,0.0,0.0,0.0,0.0,0.0,0.0,0.0,0.0,0.0,0.0,0.0,0.0,0.0,0.0,0.0,0.0,0.0,0.0,0.0,0.0,0.0,6.5816,6.9721,7.1484,7.0619,6.7168,6.2905,5.6739,0.0,0.0,0.0,0.0,0.0,0.0,0.0,0.0,0.0,0.0,0.0,0.0,0.0,0.0,0.0,0.0,0.0,0.0,0.0,0.0,0.0,0.0,0.0,0.0,0.0,0.0,0.0,0.0,0.0,0.0,0.0,0.0,0.0,0.0,0.0,0.0,0.0,0.0,0.0,0.0,0.0,0.0,0.0,0.0,0.0,0.0,0.0,0.0,0.0,0.0,0.0,0.0,0.0,0.0,0.0,0.0,0.0,0.0,0.0,0.0,0.0,0.0,0.0,0.0,0.0,0.0,0.0,0.0,0.0,0.0,0.0,0.0,0.0,0.0,0.0,0.0,0.0,0.0,0.0,0.0,0.0,0.0,0.0,0.0,0.0,0.0,0.0,0.0,0.0,0.0,0.0,0.0,0.0,0.0,0.0,0.0,0.0,0.0,0.0,0.0,0.0,0.0,0.0,0.0,0.0,0.0,0.0,0.0,6.4163,6.8463,7.0867,7.021,6.6425,6.2553,5.6549,0.0,0.0,0.0,0.0,0.0,0.0,0.0,0.0,0.0,0.0,0.0,0.0,0.0,0.0,0.0,0.0,0.0,0.0,0.0,0.0,0.0,0.0,0.0,0.0,0.0,0.0,0.0,0.0,0.0,0.0,0.0,0.0,0.0,0.0,0.0,0.0,0.0,0.0,0.0,0.0,0.0,0.0,0.0,0.0,0.0,0.0,0.0,0.0,3.7793,0.0,0.0,0.0,0.0,0.0,0.0,0.0,0.0,0.0,0.0,0.0,0.0,0.0,0.0,0.0,0.0,0.0,0.0,0.0,0.0,0.0,0.0,0.0,0.0,0.0,0.0,0.0,0.0,0.0,0.0,0.0,0.0,0.0,0.0,0.0,0.0,0.0,0.0,0.0,0.0,0.0,0.0,0.0,0.0,0.0,0.0,0.0,0.0,0.0,0.0,0.0,0.0,0.0,0.0,0.0,0.0,0.0,0.0,0.0,6.1692,6.7163,6.946,6.9297,6.6443,6.1764,5.5421,0.0,0.0,0.0,0.0,0.0,0.0,0.0,0.0,0.0,0.0,0.0,0.0,0.0,0.0,0.0,0.0,0.0,0.0,0.0,0.0,0.0,0.0,0.0,0.0,0.0,0.0,0.0,0.0,0.0,0.0,0.0,0.0,0.0,0.0,0.0,0.0,0.0,0.0,0.0,0.0,0.0,0.0,0.0,0.0,0.0,0.0,0.0,0.0,0.0,0.0,0.0,0.0,0.0,0.0,0.0,0.0,0.0,0.0,0.0,0.0,0.0,0.0,0.0,0.0,0.0,0.0,0.0,0.0,0.0,0.0,0.0,0.0,0.0,0.0,0.0,0.0,0.0,0.0,0.0,0.0,0.0,0.0,0.0,0.0,0.0,0.0,0.0,0.0,0.0,0.0,0.0,0.0,0.0,0.0,0.0,0.0,0.0,0.0,0.0,0.0,0.0,0.0,0.0,0.0,0.0,0.0,0.0,0.0,6.034,6.5907,6.9246,6.8979,6.492,6.1235,5.4656,0.0,0.0,0.0,0.0,0.0,0.0,0.0,0.0,0.0,0.0,0.0,0.0,0.0,0.0,0.0,0.0,0.0,0.0,0.0,0.0,0.0,0.0,0.0,0.0,0.0,0.0,0.0,0.0,0.0,0.0,0.0,0.0,0.0,0.0,0.0,0.0,0.0,0.0,0.0,0.0,0.0,0.0,0.0,0.0,0.0,0.0,0.0,0.0,0.0,0.0,0.0,0.0,0.0,0.0,0.0,0.0,0.0,0.0,0.0,0.0,0.0,0.0,0.0,0.0,0.0,0.0,0.0,0.0,0.0,0.0,0.0,0.0,0.0,0.0,0.0,0.0,0.0,0.0,0.0,0.0,0.0,0.0,0.0,0.0,0.0,0.0,0.0,0.0,0.0,0.0,0.0,0.0,0.0,0.0,0.0,0.0,0.0,0.0,0.0,0.0,0.0,0.0,0.0,0.0,0.0,0.0,0.0,0.0,0.0,6.3437,6.6975,6.6802,6.2795,5.9222,5.2668,0.0,0.0,0.0,0.0,0.0,0.0,0.0,0.0,0.0,0.0,0.0,0.0,0.0,0.0,0.0,0.0,0.0,0.0,0.0,0.0,0.0,0.0,0.0,0.0,0.0,0.0,0.0,0.0,0.0,0.0,0.0,0.0,0.0,0.0,0.0,0.0,0.0,0.0,0.0,0.0,0.0,0.0,0.0,0.0,0.0,0.0,0.0,0.0,0.0,0.0,0.0,0.0,0.0,0.0,0.0,0.0,0.0,0.0,0.0,0.0,0.0,0.0,0.0,0.0,0.0,0.0,0.0,0.0,0.0,0.0,0.0,0.0,0.0,0.0,0.0,0.0,0.0,0.0,0.0,0.0,0.0,0.0,0.0,0.0,0.0,0.0,0.0,0.0,0.0,0.0,0.0,0.0,0.0,0.0,0.0,0.0,0.0,0.0,0.0,0.0,0.0,0.0,0.0,0.0,0.0,0.0,0.0,0.0,0.0,5.9136,6.1061,6.1445,6.0186,5.4881,4.8643,0.0,0.0,0.0,0.0,0.0,0.0,0.0,0.0,0.0,0.0,0.0,0.0,0.0,0.0,0.0,0.0,0.0,0.0,0.0,0.0,0.0,0.0,0.0,0.0,0.0,0.0,0.0,0.0,0.0,0.0,0.0,0.0,0.0,0.0,0.0,0.0,0.0,0.0,0.0,0.0,0.0,0.0,0.0,0.0,0.0,0.0,0.0,0.0,0.0,0.0,0.0,0.0,0.0,0.0,0.0,0.0,0.0,0.0,0.0,0.0,0.0,0.0,0.0,0.0,0.0,0.0,0.0,0.0,0.0,0.0,0.0,0.0,0.0,0.0,0.0,0.0,0.0,0.0,0.0,0.0,0.0,0.0,0.0,0.0,0.0,0.0,0.0,0.0,0.0,0.0,0.0,0.0,0.0,0.0,0.0,0.0,0.0,0.0,0.0,0.0,0.0,0.0,0.0,0.0,0.0,0.0,0.0,0.0,0.0,5.0865,5.505,5.6495,5.4866,5.1157,4.5529,3.7747,0.0,0.0,0.0,0.0,0.0,0.0,0.0,0.0,0.0,0.0,0.0,0.0,0.0,0.0,0.0,0.0,0.0,0.0,0.0,0.0,0.0,0.0,0.0,0.0,0.0,0.0,0.0,0.0,0.0,0.0,0.0,0.0,0.0,0.0,0.0,0.0,0.0,0.0,0.0,0.0,0.0,0.0,0.0,0.0,0.0,0.0,0.0,0.0,0.0,0.0,0.0,0.0,0.0,0.0,0.0,0.0,0.0,0.0,0.0,0.0,0.0,0.0,0.0,0.0,0.0,0.0,0.0,0.0,0.0,0.0,0.0,0.0,0.0,0.0,0.0,0.0,0.0,0.0,0.0,0.0,0.0,0.0,0.0,0.0,0.0,0.0,0.0,0.0,0.0,0.0,0.0,0.0,0.0,0.0,0.0,0.0,0.0,0.0,0.0,0.0,0.0,0.0,0.0,0.0,0.0,0.0,0.0,0.0,4.3183,4.7995,4.9799,4.8214,4.5741,4.1137,0.0,0.0,0.0,0.0,0.0,0.0,0.0,0.0,0.0,0.0,0.0,0.0,0.0,0.0,0.0,0.0,0.0,0.0,0.0,0.0,0.0,0.0,0.0,0.0,0.0,0.0,0.0,0.0,0.0,0.0,0.0,0.0,0.0,0.0,0.0,0.0,0.0,0.0,0.0,0.0,0.0,0.0,0.0,0.0,0.0,0.0,0.0,0.0,0.0,0.0,0.0,0.0,0.0,0.0,0.0,0.0,0.0,0.0,0.0,0.0,0.0,0.0,0.0,0.0,0.0,0.0,0.0,0.0,0.0,0.0,0.0,0.0,0.0,0.0,0.0,0.0,0.0,0.0,0.0,0.0,0.0,0.0,0.0,0.0,0.0,0.0,0.0,0.0,0.0,0.0,0.0,0.0,0.0,0.0,0.0,0.0,0.0,0.0,0.0,0.0,0.0,0.0,0.0,0.0,0.0,0.0,0.0,0.0,2.8904,3.6517,3.9741,4.1303,4.0562,3.845,3.5286,0.0,0.0,0.0,0.0,0.0,0.0,0.0,0.0,0.0,0.0,0.0,0.0,0.0,0.0,0.0,0.0,0.0,0.0,0.0,0.0,0.0,0.0,0.0,0.0,0.0,0.0,0.0,0.0,0.0,0.0,0.0,0.0,0.0,0.0,0.0,0.0,0.0,0.0,0.0,0.0,0.0,0.0,0.0,0.0,0.0,0.0,0.0,0.0,0.0,0.0,0.0,0.0,0.0,0.0,0.0,0.0,0.0,0.0,0.0,0.0,0.0,0.0,0.0,0.0,0.0,0.0,0.0,0.0,0.0,0.0,0.0,0.0,0.0,0.0,0.0,0.0,0.0,0.0,0.0,0.0,0.0,0.0,0.0,0.0,0.0,0.0,0.0,0.0,0.0,0.0,0.0,0.0,0.0,0.0,0.0,0.0,0.0,0.0,0.0,0.0,0.0,0.0,0.0,0.0,0.0,0.0,0.0,0.0,0.0,3.0231,0.0,3.7832,3.7342,3.5219,3.2711,0.0,0.0,0.0,0.0,0.0,0.0,0.0,0.0,0.0,0.0,0.0,0.0,0.0,0.0,0.0,0.0,0.0,0.0,0.0,0.0,0.0,0.0,0.0,0.0,0.0,0.0,0.0,0.0,0.0,0.0,0.0,0.0,0.0,0.0,0.0,0.0,0.0,0.0,0.0,0.0,0.0,0.0,0.0,0.0,0.0,0.0,0.0,0.0,0.0,0.0,0.0,0.0,0.0,0.0,0.0,0.0,0.0,0.0,0.0,0.0,0.0,0.0,0.0,0.0,0.0,0.0,0.0,0.0,0.0,0.0,0.0,0.0,0.0,0.0,0.0,0.0,0.0,0.0,0.0,0.0,0.0,0.0,0.0,0.0,0.0,0.0,0.0,0.0,0.0,0.0,0.0,0.0,0.0,0.0,0.0,0.0,0.0,0.0,0.0,0.0,0.0,0.0,0.0,0.0,0.0,0.0,0.0,0.0,0.0,2.6352,3.0764,3.3192,3.3304,3.1862,3.0181,0.0,0.0,0.0,0.0,0.0,0.0,0.0,0.0,0.0,0.0,0.0,0.0,0.0,0.0,0.0,0.0,0.0,0.0,0.0,0.0,0.0,0.0,0.0,0.0,0.0,0.0,0.0,0.0,0.0,0.0,0.0,0.0,0.0,0.0,0.0,0.0,0.0,0.0,0.0,0.0,0.0,0.0,0.0,0.0,0.0,0.0,0.0,0.0,0.0,0.0,0.0,0.0,0.0,0.0,0.0,0.0,0.0,0.0,0.0,0.0,0.0,0.0,0.0,0.0,0.0,0.0,0.0,0.0,0.0,0.0,0.0,0.0,0.0,0.0,0.0,0.0,0.0,0.0,0.0,0.0,0.0,0.0,0.0,0.0,0.0,0.0,0.0,0.0,0.0,0.0,0.0,0.0,0.0,0.0,0.0,0.0,0.0,0.0,0.0,0.0,0.0,0.0,0.0,0.0,0.0,0.0,0.0,0.0,0.0,2.4568,2.6092,2.7459,2.8706,2.8276,2.7699,0.0,0.0,0.0,0.0,0.0,0.0,0.0,0.0,0.0,0.0,0.0,0.0,0.0,0.0,0.0,0.0,0.0,0.0,0.0,0.0,0.0,0.0,0.0,0.0,0.0,0.0,0.0,0.0,0.0,0.0,0.0,0.0,0.0,0.0,0.0,0.0,0.0,0.0,0.0,0.0,0.0,0.0,0.0,0.0,0.0,0.0,0.0,0.0,0.0,0.0,0.0,0.0,0.0,0.0,0.0,0.0,0.0,0.0,0.0,0.0,0.0,0.0,0.0,0.0,0.0,0.0,0.0,0.0,0.0,0.0,0.0,0.0,0.0,0.0,0.0,0.0,0.0,0.0,0.0,0.0,0.0,0.0,0.0,0.0,0.0,0.0,0.0,0.0,0.0,0.0,0.0,0.0,0.0,0.0,0.0,0.0,0.0,0.0,0.0,0.0,0.0,0.0,0.0,0.0,0.0,0.0,0.0,0.0,0.0,0.0,2.3264,2.4738,2.7225,2.7866,2.7836,2.7191,0.0,0.0,0.0,0.0,0.0,0.0,0.0,0.0,0.0,0.0,0.0,0.0,0.0,0.0,0.0,0.0,0.0,0.0,0.0,0.0,0.0,0.0,0.0,0.0,0.0,0.0,0.0,0.0,0.0,0.0,0.0,0.0,0.0,0.0,0.0,0.0,0.0,0.0,0.0,0.0,0.0,0.0,0.0,0.0,0.0,0.0,0.0,0.0,0.0,0.0,0.0,0.0,0.0,0.0,0.0,0.0,0.0,0.0,0.0,0.0,0.0,0.0,0.0,0.0,0.0,0.0,0.0,0.0,0.0,0.0,0.0,0.0,0.0,0.0,0.0,0.0,0.0,0.0,0.0,0.0,0.0,0.0,0.0,0.0,0.0,0.0,0.0,0.0,0.0,0.0,0.0,0.0,0.0,0.0,0.0,0.0,0.0,0.0,0.0,0.0,0.0,0.0,0.0,0.0,0.0,0.0,0.0,0.0,0.0,0.0,2.3348,2.5819,2.6293,2.6478,0.0,0.0,0.0,0.0,0.0,0.0,0.0,0.0,0.0,0.0,0.0,0.0,0.0,0.0,0.0,0.0,0.0,0.0,0.0,0.0,0.0,0.0,0.0,0.0,0.0,0.0,0.0,0.0,0.0,0.0,0.0,0.0,0.0,0.0,0.0,0.0,0.0,0.0,0.0,0.0,0.0,0.0,0.0,0.0,0.0,0.0,0.0,0.0,0.0,0.0,0.0,0.0,0.0,0.0,0.0,0.0,0.0,0.0,0.0,0.0,0.0,0.0,0.0,0.0,0.0,0.0,0.0,0.0,0.0,0.0,0.0,0.0,0.0,0.0,0.0,0.0,0.0,0.0,0.0,0.0,0.0,0.0,0.0,0.0,0.0,0.0,0.0,0.0,0.0,0.0,0.0,0.0,0.0,0.0,0.0,0.0,0.0,0.0,0.0,0.0,0.0,0.0,0.0,0.0,0.0,0.0,0.0,0.0,0.0,0.0,0.0,2.2669,2.4205,2.4043,0.0,2.4886,0.0,0.0,0.0,0.0,0.0,0.0,0.0,0.0,0.0,0.0,0.0,0.0,0.0,0.0,0.0,0.0,0.0,0.0,0.0,0.0,0.0,0.0,0.0,0.0,0.0,0.0,0.0,0.0,0.0,0.0,0.0,0.0,0.0,0.0,0.0,0.0,0.0,0.0,0.0,0.0,0.0,0.0,0.0,0.0,0.0,0.0,0.0,0.0,0.0,0.0,0.0,0.0,0.0,0.0,0.0,0.0,0.0,0.0,0.0,0.0,0.0,0.0,0.0,0.0,0.0,0.0,0.0,0.0,0.0,0.0,0.0,0.0,0.0,0.0,0.0,0.0,0.0,0.0,0.0,0.0,0.0,0.0,0.0,0.0,0.0,0.0,0.0,0.0,0.0,0.0,0.0,0.0,0.0,0.0,0.0,0.0,0.0,0.0,0.0,0.0,0.0,0.0,0.0,0.0,0.0,0.0,0.0,0.0,0.0,0.0,0.0,0.0,2.2389,2.2885,2.4125,0.0,0.0,0.0,0.0,0.0,0.0,0.0,0.0,0.0,0.0,0.0,0.0,0.0,0.0,0.0,0.0,0.0,0.0,0.0,0.0,0.0,0.0,0.0,0.0,0.0,0.0,0.0,0.0,0.0,0.0,0.0,0.0,0.0,0.0,0.0,0.0,0.0,0.0,0.0,0.0,0.0,0.0,0.0,0.0,0.0,0.0,0.0,0.0,0.0,0.0,0.0,0.0,0.0,0.0,0.0,0.0,0.0,0.0,0.0,0.0,0.0,0.0,0.0,0.0,0.0,0.0,0.0,0.0,0.0,0.0,0.0,0.0,0.0,0.0,0.0,0.0,0.0,0.0,0.0,0.0,0.0,0.0,0.0,0.0,0.0,0.0,0.0,0.0,0.0,0.0,0.0,0.0,0.0,0.0,0.0,0.0,0.0,0.0,0.0,0.0,0.0,0.0,0.0,0.0,0.0,0.0,0.0,0.0,0.0,0.0,2.0104,2.0858,2.0824,2.112,2.1774,0.0,0.0,0.0,0.0,0.0,0.0,0.0,0.0,0.0,0.0,0.0,0.0,0.0,0.0,0.0,0.0,0.0,0.0,0.0,0.0,0.0,0.0,0.0,0.0,0.0,0.0,0.0,0.0,0.0,0.0,0.0,0.0,0.0,0.0,0.0,0.0,0.0,0.0,0.0,0.0,0.0,0.0,0.0,0.0,0.0,0.0,0.0,0.0,0.0,0.0,0.0,0.0,0.0,0.0,0.0,0.0,0.0,0.0,0.0,0.0,0.0,0.0,0.0,0.0,0.0,0.0,0.0,0.0,0.0,0.0,0.0,0.0,0.0,0.0,0.0,0.0,0.0,0.0,0.0,0.0,0.0,0.0,0.0,0.0,0.0,0.0,0.0,0.0,0.0,0.0,0.0,0.0,0.0,0.0,0.0,0.0,0.0,0.0,0.0,0.0,0.0,0.0,0.0,0.0,0.0,0.0,0.0,0.0,0.0,0.0,0.0,0.0,0.0,0.0,1.9296,0.0,0.0,0.0,0.0,0.0,0.0,0.0,0.0,0.0,0.0,0.0,0.0,0.0,0.0,0.0,0.0,0.0,0.0,0.0,0.0,0.0,0.0,0.0,0.0,0.0,0.0,0.0,0.0,0.0,0.0,0.0,0.0,0.0,0.0,0.0,0.0,0.0,0.0,0.0,0.0,0.0,0.0,0.0,0.0,0.0,0.0,0.0,0.0,0.0,0.0,0.0,0.0,0.0,0.0,0.0,0.0,0.0,0.0,0.0,0.0,0.0,0.0,0.0,0.0,0.0,0.0,0.0,0.0,0.0,0.0,0.0,0.0,0.0,0.0,0.0,0.0,0.0,0.0,0.0,0.0,0.0,0.0,0.0,0.0,0.0,0.0,0.0,0.0,0.0,0.0,0.0,0.0,0.0,0.0,0.0,0.0,0.0,0.0,0.0,0.0,0.0,0.0,0.0,0.0,0.0,0.0,0.0,0.0,0.0,0.0,0.0,0.0,0.0,0.0,0.0,0.0,0.0,0.0,0.0,0.0,0.0,0.0,0.0,0.0,0.0,0.0,0.0,0.0,0.0,0.0,0.0,0.0,0.0,0.0,0.0,0.0,0.0,0.0,0.0,0.0,0.0,0.0,0.0,0.0,0.0,0.0,0.0,0.0,0.0,0.0,0.0,0.0,0.0,0.0,0.0,0.0,0.0,0.0,0.0,0.0,0.0,0.0,0.0,0.0,0.0,0.0,0.0,0.0,0.0,0.0,0.0,0.0,0.0,0.0,0.0,0.0,0.0,0.0,0.0,0.0,0.0,0.0,0.0,0.0,0.0,0.0,0.0,0.0,0.0,0.0,0.0,0.0,0.0,0.0,0.0,0.0,0.0,0.0,0.0,0.0,0.0,0.0,0.0,0.0,0.0,0.0,0.0,0.0,0.0,0.0,0.0,0.0,0.0,0.0,0.0,0.0,0.0,0.0,0.0,0.0,0.0,0.0,0.0,0.0,0.0,0.0,0.0,0.0,0.0,0.0,0.0,0.0,0.0,0.0,0.0,0.0,0.0,0.0,0.0,0.0,0.0,0.0,0.0,0.0,0.0,0.0,0.0,0.0,0.0,0.0,0.0,0.0,0.0,0.0,0.0,0.0,0.0,0.0,0.0,0.0,0.0,0.0,0.0,0.0,0.0,0.0,0.0,0.0,0.0,0.0,0.0,0.0,0.0,0.0,0.0,0.0,0.0,0.0,0.0,0.0,0.0,0.0,0.0,0.0,0.0,0.0,0.0,0.0,0.0,0.0,0.0,0.0,0.0,0.0,0.0,0.0,0.0,0.0,0.0,0.0,0.0,0.0,0.0,0.0,0.0,0.0,0.0,0.0,0.0,0.0,0.0,0.0,0.0,0.0,0.0,0.0,0.0,0.0,0.0,0.0,0.0,0.0,0.0,0.0,0.0,0.0,0.0,0.0,0.0,0.0,0.0,0.0,0.0,0.0,0.0,0.0,0.0,0.0,0.0,0.0,0.0,0.0,0.0,0.0,0.0,0.0,0.0,0.0,0.0,0.0,0.0,0.0,0.0,0.0,0.0,0.0,0.0,0.0,0.0,0.0,0.0,0.0,0.0,0.0,0.0,0.0,0.0,0.0,0.0,0.0,0.0,0.0,0.0,0.0,0.0,0.0,0.0,0.0,0.0,0.0,0.0,0.0,0.0,0.0,0.0,0.0,0.0,0.0,0.0,0.0,0.0,0.0,0.0,0.0,0.0,0.0,0.0,0.0,0.0,0.0,0.0,0.0,0.0,0.0,0.0,0.0,0.0,0.0,0.0,0.0,0.0,0.0,0.0,0.0,0.0,0.0,0.0,0.0,0.0,0.0,0.0,0.0,0.0,0.0,0.0,0.0,0.0,0.0,0.0,0.0,0.0,0.0,0.0,0.0,0.0,0.0,0.0,0.0,0.0,0.0,0.0,0.0,0.0,0.0,0.0,0.0,0.0,0.0,0.0,0.0,0.0,0.0,0.0,0.0,0.0,0.0,0.0,0.0,0.0,0.0,0.0,0.0,0.0,0.0,0.0,0.0,0.0,0.0,0.0,0.0,0.0,0.0,0.0,0.0,0.0,0.0,0.0,0.0,0.0,0.0,0.0,0.0,0.0,0.0,0.0,0.0,0.0,0.0,0.0,0.0,0.0,0.0,0.0,0.0,0.0,0.0,0.0,0.0,0.0,0.0,0.0,0.0,0.0,0.0,0.0,0.0,0.0,0.0,0.0,0.0,0.0,0.0,0.0,0.0,0.0,0.0,0.0,0.0,0.0,0.0,0.0,0.0,0.0,0.0,0.0,0.0,0.0,0.0,0.0,0.0,0.0,0.0,0.0,0.0,0.0,0.0,0.0,0.0,0.0,0.0,0.0,0.0,0.0,0.0,0.0,0.0,0.0,0.0,0.0,0.0,0.0,0.0,0.0,0.0,0.0,0.0,0.0,0.0,0.0,0.0,0.0,0.0,0.0,0.0,0.0,0.0,0.0,0.0,0.0,0.0,0.0,0.0,0.0,0.0,0.0,0.0,0.0,0.0,0.0,0.0,0.0,0.0,0.0,0.0,0.0,0.0,0.0,0.0,0.0,0.0,0.0,0.0,0.0,0.0,0.0,0.0,0.0,0.0,0.0,0.0,0.0,0.0,0.0,0.0,0.0,0.0,0.0,0.0,0.0,0.0,0.0,0.0,0.0,0.0,0.0,0.0,0.0,0.0,0.0,0.0,0.0,0.0,0.0,0.0,0.0,0.0,0.0,0.0,0.0,0.0,0.0,0.0,0.0,0.0,0.0,0.0,0.0,0.0,0.0,0.0,0.0,0.0,0.0,0.0,0.0,0.0,0.0,0.0,0.0,0.0,0.0,0.0,0.0,0.0,0.0,0.0,0.0,0.0,0.0,0.0,0.0,0.0,0.0,0.0,0.0,0.0,0.0,0.0,0.0,0.0,0.0,0.0,0.0,0.0,0.0,0.0,0.0,0.0,0.0,0.0,0.0,0.0,0.0,0.0,0.0,0.0,0.0,0.0,0.0,0.0,0.0,0.0,0.0,0.0,0.0,0.0,0.0,0.0,0.0,0.0,0.0,0.0,0.0,0.0,0.0,0.0,0.0,0.0,0.0,0.0,0.0,0.0,0.0,0.0,0.0,0.0,0.0,0.0,0.0,0.0,0.0,0.0,0.0,0.0,0.0,0.0,0.0,0.0,0.0,0.0,0.0,0.0,0.0,0.0,0.0,0.0,0.0,0.0,0.0,0.0,0.0,0.0,0.0,0.0,0.0,0.0,0.0,0.0,0.0,0.0,0.0,0.0,0.0,0.0,0.0,0.0,0.0,0.0,0.0,0.0,0.0,0.0,0.0,0.0,0.0,0.0,0.0,0.0,0.0,0.0,0.0,0.0,0.0,0.0,0.0,0.0,0.0,0.0,0.0,0.0,0.0,0.0,0.0,0.0,0.0,0.0,0.0,0.0,0.0,0.0,0.0,0.0,0.0,0.0,0.0,0.0,0.0,0.0,0.0,0.0,0.0,0.0,0.0,0.0,0.0,0.0,0.0,0.0,0.0,0.0,0.0,0.0,0.0,0.0,0.0,0.0,0.0,0.0,0.0,0.0,0.0,0.0,0.0,0.0,0.0,0.0,0.0,0.0,0.0,0.0,0.0,0.0,0.0,0.0,0.0,0.0,0.0,0.0,0.0,0.0,0.0,0.0,0.0,0.0,0.0,0.0,0.0,0.0,0.0,0.0,0.0,0.0,0.0,0.0,0.0,0.0,0.0,0.0,0.0,0.0,0.0,0.0,0.0,0.0,0.0,0.0,0.0,0.0,0.0,0.0,0.0,0.0,0.0,0.0,0.0,0.0,0.0,0.0,0.0,0.0,0.0,0.0,0.0,0.0,0.0,0.0,0.0,0.0,0.0,0.0,0.0,0.0,0.0,0.0,0.0,0.0,0.0,0.0,0.0,0.0,0.0,0.0,0.0,0.0,0.0,0.0,0.0,0.0,0.0,0.0,0.0,0.0,0.0,0.0,0.0,0.0,0.0,0.0,0.0,0.0,0.0,0.0,0.0,0.0,0.0,0.0,0.0,0.0,0.0,0.0,0.0,0.0,0.0,0.0,0.0,0.0,0.0,0.0,0.0,0.0,0.0,0.0,0.0,0.0,0.0,0.0,0.0,0.0,0.0,0.0,0.0,0.0,0.0,0.0,0.0,0.0,0.0,0.0,0.0,0.0,0.0,0.0,0.0,0.0,0.0,0.0,0.0,0.0,0.0,0.0,0.0,0.0,0.0,0.0,0.0,0.0,0.0,0.0,0.0,0.0,0.0,0.0,0.0,0.0,0.0,0.0,0.0,0.0]}],[{"header":{"parameterUnit":"kt","parameterCategory":2,"dx":1,"dy":1,"la1":29.587661999999998,"la2":31.0,"lo1":-88.76705300000003,"lo2":-86.6583820000003,"nx":115,"ny":88,"refTime":"2022-09-20T00:00:00:Z","depth":0,"parameterNumber":2,"parameterNumberName":"V-component_of_WINDS"},"data":[5.6042,5.9035,6.181,6.3466,6.4577,6.6275,6.7136,6.7298,6.7942,6.848,6.9017,6.953,7.0014,7.0522,7.0548,7.112,7.228,7.347,7.4598,7.5917,7.7342,7.8249,7.8905,7.9243,7.9631,7.9888,8.0084,8.0084,8.0084,8.0084,8.0084,8.0084,8.0084,8.0084,8.0084,8.0084,8.0084,8.0084,8.0084,8.0084,8.0084,8.0084,8.0084,8.0084,8.0084,8.0084,8.0084,8.0084,8.0084,8.0084,8.0084,8.0084,8.0084,8.0112,8.0256,8.0594,8.0876,8.1925,8.2993,8.4213,8.5714,8.6932,8.7667,8.8708,8.961,8.997,9.0021,9.0098,9.0405,9.0405,9.0405,9.0405,9.0405,9.0405,9.0482,9.104,9.162,9.1972,9.2395,9.3189,9.3851,9.4218,9.4656,9.5161,9.5714,9.6335,9.6624,9.6624,9.6624,9.6624,9.6624,9.6624,9.6624,9.6624,9.6624,9.6624,9.6624,9.6624,9.6671,9.6818,9.6983,9.7271,9.76,9.8061,9.8294,9.8462,9.8894,9.933,9.9422,9.9559,9.9559,9.9756,10.0406,10.1576,10.3249,5.5655,5.8167,6.1847,6.3811,6.4561,6.628,6.7352,6.7942,6.848,6.899,6.953,7.0146,7.0416,7.0548,7.0566,7.1205,7.2076,7.3235,7.4639,7.61,7.7802,7.8647,7.9207,7.9608,7.9832,8.0028,8.0084,8.0084,8.0084,8.0084,8.0084,8.0084,8.0084,8.0084,8.0084,8.0084,8.0084,8.0084,8.0084,8.0084,8.0084,8.0084,8.0084,8.0084,8.0084,8.0084,8.0084,8.0084,8.0084,8.0084,8.0084,8.0084,8.0084,8.0084,8.0251,8.0312,8.0594,8.1402,8.2474,8.3401,8.4886,8.6219,8.6801,8.7772,8.9069,8.9482,8.9507,8.9739,9.02,9.038,9.0405,9.0405,9.0405,9.0431,9.0533,9.0761,9.1368,9.1897,9.2596,9.334,9.371,9.3903,9.434,9.4826,9.5502,9.6315,9.6624,9.6624,9.6624,9.6624,9.6624,9.6624,9.6624,9.6624,9.6624,9.6624,9.6624,9.6624,9.6624,9.6671,9.6794,9.7054,9.736,9.7712,9.7898,9.809,9.8508,9.9147,9.9399,9.9559,9.9559,9.9646,10.04,10.1587,10.3232,5.6222,5.8292,6.1386,6.3331,6.4455,6.5728,6.6964,6.7958,6.8588,6.9316,7.0093,7.0389,7.0548,7.0548,7.0548,7.1007,7.1716,7.3042,7.449,7.5971,7.7435,7.8656,7.9473,7.9916,8.0056,8.0084,8.0084,8.0084,8.0084,8.0084,8.0084,8.0084,8.0084,8.0084,8.0084,8.0084,8.0084,8.0084,8.0084,8.0084,8.0084,8.0084,8.0084,8.0084,8.0084,8.0084,8.0084,8.0084,8.0084,8.0084,8.0084,8.0084,8.0084,8.0084,8.0084,8.0168,8.0367,8.0816,8.1646,8.2584,8.3805,8.5207,8.6113,8.7168,8.8422,8.8656,8.8708,8.9405,8.9842,9.0278,9.0303,9.0381,9.0406,9.0405,9.0507,9.0609,9.1014,9.1721,9.2547,9.3217,9.3562,9.383,9.4538,9.4996,9.5502,9.6319,9.66,9.6624,9.6624,9.6624,9.6624,9.6624,9.6624,9.6624,9.6624,9.6624,9.6624,9.6624,9.6624,9.6647,9.6671,9.6884,9.7049,9.7238,9.7454,9.767,9.8271,9.9026,9.9347,9.9536,9.9559,9.9559,10.0586,10.165,10.2362,5.6961,5.8695,6.0784,6.2716,6.4353,6.5441,6.6773,6.8238,6.8776,6.9583,7.0411,7.0548,7.0623,7.0759,7.0812,7.1121,7.1836,7.3187,7.446,7.5979,7.7432,7.8785,7.9813,8.0056,8.0084,8.0084,8.0084,8.0084,8.0084,8.0084,8.0084,8.0084,8.0084,8.0084,8.0084,8.0084,8.0084,8.0084,8.0084,8.0084,8.0084,8.0084,8.0084,8.0084,8.0084,8.0084,8.0084,8.0084,8.0084,8.0084,8.0084,8.0084,8.0084,8.0084,8.0084,8.0084,8.014,8.0507,8.1149,8.1977,8.3045,8.4294,8.5501,8.6641,8.7378,8.7614,8.811,8.8889,8.9483,8.9894,9.0202,9.0331,9.0409,9.0406,9.0431,9.0558,9.0659,9.1519,9.237,9.2919,9.3389,9.4029,9.4757,9.5313,9.577,9.6153,9.6481,9.6624,9.6624,9.6624,9.6624,9.6624,9.6624,9.6624,9.6624,9.6624,9.6624,9.6624,9.6624,9.6624,9.6624,9.6742,9.6837,9.6931,9.7002,9.7143,9.7613,9.8635,9.9301,9.9513,9.9559,9.9559,10.0417,10.0864,10.1249,5.7505,5.9146,6.0313,6.2126,6.4389,6.5724,6.7219,6.8759,6.929,6.9907,7.0442,7.0548,7.0808,7.1102,7.1181,7.1471,7.2344,7.3409,7.4723,7.6212,7.7431,7.8679,7.9588,8.0084,8.0084,8.0084,8.0084,8.0084,8.0084,8.0084,8.0084,8.0084,8.0084,8.0084,8.0084,8.0084,8.0084,8.0084,8.0084,8.0084,8.0084,8.0084,8.0084,8.0084,8.0084,8.0084,8.0084,8.0112,8.0084,8.0084,8.0084,8.014,8.0112,8.0084,8.0084,8.0084,8.0084,8.0367,8.0816,8.1426,8.2443,8.3534,8.4748,8.5764,8.6297,8.6563,8.6853,8.7536,8.8656,8.9224,8.9741,8.9922,9.0101,9.015,9.0328,9.0584,9.0862,9.1493,9.2295,9.2944,9.3414,9.4029,9.4733,9.5172,9.5582,9.6319,9.6624,9.6624,9.6624,9.6624,9.6624,9.6624,9.6624,9.6624,9.6624,9.6624,9.6624,9.6624,9.6624,9.6624,9.6624,9.6647,9.6619,9.6719,9.679,9.6837,9.712,9.8335,9.9193,9.9422,9.9559,9.9559,9.9588,9.9837,10.0273,5.8411,5.9621,6.0355,6.1359,6.2828,6.4753,6.6552,6.8096,6.958,7.0305,7.0522,7.0548,7.0839,7.1313,7.1444,7.1887,7.269,7.3632,7.4566,7.5773,7.6929,7.8159,7.9172,7.9682,7.9967,8.0084,8.0084,8.0084,8.0084,8.0084,8.0084,8.0084,8.0084,8.0084,8.0084,8.0084,8.0084,8.0084,8.0084,8.0084,8.0084,8.0084,8.0084,8.0084,8.0084,8.0084,8.0112,8.0483,8.0339,8.014,8.0483,8.0427,8.0112,8.0084,8.0084,8.0084,8.0084,8.0228,8.0455,8.0983,8.1867,8.2854,8.3778,8.4642,8.51,8.5421,8.5714,8.6195,8.7408,8.8475,8.8993,8.9459,8.9638,8.9868,9.0226,9.0583,9.1116,9.1619,9.2245,9.2919,9.3513,9.405,9.4538,9.4982,9.5513,9.62,9.6553,9.66,9.6624,9.6624,9.6624,9.6624,9.6624,9.6624,9.6624,9.6624,9.6624,9.6624,9.6624,9.6624,9.6624,9.6624,9.6647,9.6647,9.6624,9.6671,9.6742,9.7992,9.9032,9.9353,9.9559,9.9513,9.9519,9.9513,9.982,5.9167,6.0125,6.0656,6.1084,6.1698,6.3442,6.547,6.7462,6.9587,7.0548,7.0597,7.0707,7.1129,7.1549,7.1782,7.2462,7.3005,7.3505,7.4297,7.5124,7.6239,7.7341,7.835,7.9214,7.9705,7.9967,8.0084,8.0084,8.0084,8.0084,8.0084,8.0084,8.0084,8.0084,8.0084,8.0084,8.0084,8.0084,8.0084,8.0084,8.0084,8.0084,8.0084,8.0084,8.0084,8.0228,8.0367,8.0682,8.0678,8.04,8.0682,8.0571,8.0168,8.0084,8.0084,8.0084,8.0084,8.0084,8.0196,8.0566,8.1343,8.2303,8.2963,8.3561,8.3887,8.4157,8.44,8.4976,8.5861,8.6964,8.7693,8.8318,8.8785,8.9225,8.9816,9.0455,9.1419,9.1922,9.232,9.2944,9.3367,9.3906,9.4434,9.485,9.5237,9.6029,9.6505,9.6576,9.6624,9.6624,9.6624,9.6624,9.6624,9.6624,9.6624,9.6624,9.6624,9.6624,9.6624,9.6624,9.6624,9.6624,9.6624,9.6624,9.6624,9.6624,9.6647,9.7548,9.8716,9.9101,9.9376,9.9457,9.948,9.9542,9.9733,5.9676,6.061,6.1188,6.1387,6.1507,6.2199,6.4105,6.6963,6.9468,7.0526,7.0601,7.1102,7.1549,7.2122,7.2716,7.3239,7.3658,7.3761,7.4394,7.5095,7.5588,7.69,7.7905,7.8653,7.9331,7.9827,8.0084,8.0084,8.0084,8.0084,8.0084,8.0084,8.0084,8.0084,8.0084,8.0084,8.0084,8.0084,8.0084,8.0084,8.0084,8.0084,8.0084,8.0084,8.014,8.0312,8.065,8.0904,8.0904,8.0848,8.0825,8.0566,8.0284,8.0084,8.0084,8.0084,8.0084,8.0084,8.0168,8.0594,8.1287,8.1942,8.2468,8.2987,8.3398,8.3697,8.3941,8.433,8.4588,8.5541,8.6514,8.7248,8.7953,8.8656,8.9302,9.0353,9.1419,9.1972,9.2345,9.2845,9.3241,9.3731,9.4264,9.4598,9.4912,9.5662,9.6248,9.6367,9.6415,9.6438,9.6624,9.6624,9.6624,9.6624,9.6624,9.6624,9.6624,9.6624,9.6624,9.6624,9.6624,9.6624,9.6624,9.6624,9.6624,9.6695,9.6813,9.7454,9.8369,9.8716,9.8992,9.909,9.9199,9.9307,9.9559,6.0003,6.0706,6.1209,6.1387,6.1486,6.1982,6.3341,6.5604,6.8278,7.0173,7.096,7.1234,7.1834,7.2589,7.3028,7.3345,7.3815,7.3867,7.4285,7.4376,7.5028,7.6196,7.7344,7.8209,7.8934,7.9827,8.0084,8.0084,8.0084,8.0084,8.0084,8.0084,8.0084,8.0084,8.0084,8.0084,8.0084,8.0084,8.0084,8.0084,8.0084,8.0084,8.0084,8.0084,8.0168,8.0395,8.0844,8.1149,8.1339,8.1121,8.1066,8.1034,8.0391,8.0084,8.0084,8.0084,8.0084,8.0084,8.0223,8.0594,8.1177,8.1804,8.2306,8.2881,8.3398,8.3586,8.3751,8.3789,8.3757,8.4422,8.5215,8.6617,8.7378,8.8188,8.8992,9.0046,9.0989,9.1368,9.1744,9.2522,9.3019,9.3559,9.4069,9.433,9.4619,9.5306,9.5938,9.6009,9.6057,9.6367,9.6624,9.6624,9.6624,9.6624,9.6624,9.6624,9.6624,9.6624,9.6624,9.6624,9.6624,9.6624,9.6624,9.6624,9.6624,9.6695,9.6884,9.7323,9.8169,9.864,9.8664,9.8716,9.8894,9.917,9.9513,6.0455,6.093,6.1283,6.1387,6.1511,6.2205,6.3311,6.4873,6.7307,6.9598,7.1057,7.1572,7.2223,7.2901,7.3265,7.3529,7.3815,7.3867,7.3867,7.3958,7.4469,7.5495,7.6453,7.7411,7.8466,7.9359,8.0014,8.0084,8.0084,8.0084,8.0084,8.0084,8.0084,8.0084,8.0084,8.0084,8.0084,8.0084,8.0084,8.0084,8.0084,8.0084,8.0084,8.0084,8.0084,8.0502,8.1204,8.1532,8.1611,8.1394,8.1505,8.1197,8.0307,8.0084,8.0084,8.0084,8.0084,8.0084,8.0223,8.0566,8.1149,8.1753,8.233,8.2881,8.3453,8.3586,8.3586,8.3594,8.361,8.3877,8.4247,8.5556,8.6641,8.7431,8.8344,8.9456,9.0429,9.081,9.1241,9.197,9.2497,9.2967,9.3557,9.3873,9.4386,9.5048,9.512,9.5217,9.5926,9.6332,9.6386,9.641,9.6481,9.6529,9.6624,9.6624,9.6624,9.6624,9.6624,9.6624,9.6624,9.6624,9.6624,9.6624,9.6624,9.6624,9.6719,9.696,9.7898,9.834,9.8169,9.8119,9.8437,9.8808,9.9113,6.0892,6.1387,6.1387,6.1411,6.1607,6.267,6.3661,6.4686,6.6719,6.9003,7.115,7.1864,7.2462,7.3135,7.358,7.3738,7.3867,7.3867,7.3867,7.3867,7.4121,7.4636,7.5542,7.6546,7.7602,7.8564,7.9312,7.985,8.0084,8.0084,8.0084,8.0084,8.0084,8.0084,8.0084,8.0084,8.0084,8.0084,8.0084,8.0084,8.0084,8.0084,8.0084,8.0084,8.0084,8.053,8.1173,8.156,8.1532,8.1422,8.1584,8.1141,8.0251,8.0112,8.0084,8.0084,8.0084,8.0084,8.0112,8.0566,8.1066,8.1587,8.2252,8.2775,8.3317,8.3586,8.3586,8.3586,8.3594,8.3835,8.4108,8.4593,8.5634,8.651,8.7404,8.8448,8.9636,9.0353,9.081,9.1417,9.1769,9.2147,9.2818,9.3434,9.4026,9.427,9.4267,9.4861,9.5797,9.6082,9.5914,9.5933,9.6077,9.6148,9.6296,9.6462,9.6624,9.6624,9.6624,9.6624,9.6624,9.6624,9.6624,9.6624,9.6624,9.6624,9.6647,9.6572,9.7016,9.7408,9.7398,9.7521,9.7973,9.826,9.8223,6.0374,6.1387,6.1387,6.161,6.2056,6.2843,6.3506,6.4385,6.5867,6.8143,7.0937,7.1773,7.2673,7.3451,7.3815,7.3841,7.3867,7.3867,7.3867,7.3867,7.3958,7.4493,7.5191,7.5962,7.6803,7.8283,7.8957,7.9476,7.9944,8.006,8.0084,8.0084,8.0084,8.0084,8.0084,8.0084,8.0084,8.0084,8.0084,8.0084,8.0084,8.0084,8.0084,8.0084,8.0084,8.0558,8.0983,8.1232,8.1232,8.1204,8.1121,8.0789,8.0367,8.0084,8.0084,8.0084,8.0084,8.0084,8.0112,8.0312,8.059,8.1177,8.1953,8.258,8.2963,8.3341,8.3559,8.3586,8.3586,8.3616,8.3751,8.4186,8.4993,8.5821,8.6694,8.7509,8.8708,8.9584,9.0122,9.0657,9.1139,9.1493,9.212,9.2644,9.3066,9.3189,9.3485,9.4301,9.5218,9.5508,9.5389,9.5454,9.5502,9.5674,9.5914,9.6296,9.6576,9.6553,9.6458,9.6505,9.6624,9.6624,9.6624,9.6576,9.6576,9.6624,9.6481,9.6196,9.6315,9.6553,9.6576,9.6652,9.7007,9.7007,9.7078,6.029,6.139,6.1387,6.1734,6.2254,6.2892,6.3476,6.4163,6.5453,6.7384,6.9316,7.1144,7.2638,7.3565,7.3867,7.3867,7.3867,7.3867,7.3867,7.3867,7.389,7.4238,7.4727,7.5358,7.6032,7.7157,7.8233,7.8957,7.9569,7.9897,7.999,8.0084,8.0084,8.0084,8.0084,8.0084,8.0084,8.0084,8.0084,8.0084,8.0084,8.0084,8.0084,8.0084,8.0084,8.0367,8.0765,8.0848,8.0848,8.0876,8.0904,8.0566,8.0196,8.0112,8.0084,8.0084,8.0084,8.0084,8.0112,8.014,8.0228,8.0761,8.1591,8.2413,8.269,8.3208,8.3507,8.3586,8.3586,8.3586,8.364,8.3914,8.4429,8.5234,8.6032,8.6773,8.764,8.8422,8.9018,8.9559,9.0148,9.0734,9.1266,9.1769,9.1947,9.2172,9.2944,9.3688,9.4411,9.4853,9.4837,9.4847,9.4584,9.4635,9.5165,9.5838,9.6505,9.6386,9.6272,9.641,9.66,9.6576,9.6458,9.6505,9.6481,9.641,9.622,9.5838,9.591,9.6291,9.6291,9.5953,9.5682,9.5634,9.5826,6.0527,6.1327,6.1365,6.1759,6.2353,6.2941,6.35,6.4219,6.5463,6.645,6.7631,6.9987,7.2247,7.3528,7.3867,7.3867,7.3867,7.3867,7.3867,7.3867,7.3867,7.3911,7.4215,7.4773,7.5428,7.5986,7.7294,7.8209,7.8724,7.9476,7.985,8.0084,8.0084,8.0084,8.0084,8.0084,8.0084,8.0084,8.0084,8.0084,8.0084,8.0084,8.0084,8.0084,8.0088,8.026,8.0765,8.0737,8.071,8.071,8.0682,8.0455,8.0168,8.0084,8.0084,8.0084,8.0084,8.0084,8.0084,8.0084,8.0088,8.0367,8.0979,8.1804,8.2334,8.3072,8.3507,8.3586,8.3586,8.3586,8.3586,8.3643,8.397,8.4617,8.5234,8.5952,8.6614,8.7326,8.7902,8.8474,8.907,8.9661,9.0224,9.0505,9.0709,9.0988,9.1692,9.2372,9.3202,9.3748,9.383,9.3998,9.3682,9.383,9.4389,9.5044,9.5718,9.5838,9.5766,9.6029,9.6291,9.6315,9.612,9.6125,9.5957,9.6025,9.5953,9.5165,9.4902,9.5694,9.581,9.5089,9.467,9.467,9.4847,5.9569,6.0439,6.1139,6.2007,6.2919,6.311,6.3696,6.457,6.5348,6.6113,6.7343,6.9324,7.1722,7.3436,7.3794,7.3867,7.3867,7.3867,7.3867,7.3867,7.3867,7.3867,7.4007,7.4124,7.4755,7.5472,7.681,7.7683,7.8287,7.8864,7.9429,8.0088,8.0014,8.0084,8.0084,8.0084,8.0084,8.0084,8.0084,8.0084,8.0084,8.0084,8.0084,8.0084,8.0084,8.0168,8.0284,8.0312,8.0312,8.0312,8.0339,8.0312,8.014,8.0084,8.0084,8.0084,8.0084,8.0084,8.0084,8.0084,8.0084,8.0168,8.0558,8.1086,8.1891,8.2526,8.299,8.348,8.3534,8.3586,8.3586,8.3586,8.3833,8.4159,8.451,8.5018,8.5605,8.619,8.6747,8.7326,8.798,8.8604,8.8915,8.9225,8.9507,8.9841,9.0378,9.104,9.1647,9.2199,9.2569,9.3066,9.2895,9.2991,9.3778,9.4604,9.4996,9.5261,9.5237,9.5358,9.5526,9.5598,9.569,9.5522,9.5309,9.5213,9.4923,9.4246,9.3712,9.4295,9.4684,9.4072,9.3848,9.3778,9.3952,5.9253,6.0169,6.1304,6.2328,6.3184,6.3405,6.4111,6.5008,6.5371,6.6027,6.7148,6.9093,7.0838,7.236,7.3584,7.3843,7.3867,7.3867,7.3867,7.3867,7.3867,7.3867,7.3941,7.4117,7.4206,7.5024,7.6013,7.7105,7.7567,7.8119,7.8774,7.9429,7.9831,8.0037,8.0084,8.0084,8.0084,8.0084,8.0084,8.0084,8.0084,8.0084,8.0084,8.0084,8.0084,8.0084,8.0112,8.0084,8.0084,8.0084,8.0084,8.0084,8.0084,8.0084,8.0084,8.0084,8.0084,8.0084,8.0084,8.0084,8.0084,8.0112,8.0168,8.0502,8.1311,8.2114,8.2826,8.3154,8.3398,8.3561,8.3586,8.3586,8.3754,8.3889,8.3997,8.4454,8.483,8.5259,8.5685,8.627,8.6878,8.7195,8.7536,8.7849,8.8189,8.8578,8.9121,8.9713,9.0224,9.0786,9.1344,9.1871,9.197,9.2095,9.3063,9.3974,9.4218,9.4337,9.4313,9.4608,9.4753,9.4947,9.5189,9.5141,9.4705,9.4221,9.3759,9.3515,9.3515,9.3515,9.3491,9.3587,9.3658,9.3562,9.3636,5.9237,6.012,6.156,6.2624,6.3307,6.384,6.4596,6.5468,6.5636,6.6166,6.7019,6.8949,7.0218,7.1238,7.2859,7.3654,7.3843,7.3867,7.3918,7.4044,7.3967,7.3967,7.4173,7.4507,7.447,7.4755,7.5709,7.61,7.66,7.7513,7.8116,7.8751,7.9406,7.9967,8.0037,8.0084,8.0084,8.0084,8.0084,8.0084,8.0084,8.0084,8.0084,8.0084,8.0084,8.0084,8.0084,8.0084,8.0084,8.0084,8.0084,8.0084,8.0084,8.0084,8.0084,8.0084,8.0084,8.0084,8.0084,8.0084,8.0084,8.0084,8.0084,8.0312,8.0844,8.1674,8.2334,8.2529,8.3184,8.3534,8.3586,8.3586,8.3586,8.3643,8.3673,8.3916,8.4133,8.4561,8.4803,8.5339,8.5741,8.6007,8.6193,8.6537,8.688,8.7327,8.7824,8.8319,8.8837,8.9458,8.9998,9.0482,9.0683,9.119,9.2018,9.2843,9.3165,9.3283,9.3505,9.3824,9.3851,9.3876,9.4291,9.434,9.3995,9.3532,9.309,9.3043,9.3315,9.3417,9.3491,9.3515,9.3515,9.3515,9.3488,5.9066,5.9724,6.145,6.2818,6.3794,6.435,6.4936,6.5588,6.6263,6.6693,6.7094,6.8614,6.9906,7.0892,7.2015,7.3139,7.3867,7.3867,7.4122,7.4276,7.407,7.4378,7.4763,7.489,7.4786,7.4981,7.5914,7.6147,7.6215,7.6354,7.7141,7.7999,7.8611,7.9195,7.992,8.0014,8.0084,8.0084,8.0084,8.0084,8.0084,8.0084,8.0084,8.0084,8.0084,8.0084,8.0084,8.0084,8.0084,8.0084,8.0084,8.0084,8.0084,8.0084,8.0084,8.0084,8.0084,8.0084,8.0084,8.0084,8.0084,8.0084,8.0084,8.014,8.0479,8.0955,8.165,8.2526,8.3154,8.3507,8.3561,8.3586,8.3586,8.3586,8.3589,8.3643,8.3778,8.3914,8.4182,8.44,8.462,8.4861,8.5047,8.5341,8.5794,8.6246,8.6641,8.7116,8.7484,8.8082,8.8499,8.8967,8.9508,9.0072,9.081,9.1619,9.2068,9.2141,9.2366,9.2791,9.2843,9.2892,9.2892,9.2989,9.2741,9.2515,9.2393,9.2245,9.2895,9.3343,9.3441,9.3515,9.3515,9.3515,9.3515,5.8463,5.9277,6.113,6.2555,6.3652,6.4646,6.5395,6.5949,6.6574,6.7027,6.7567,6.8574,6.9537,7.0284,7.1548,7.2882,7.3656,7.3867,7.4147,7.443,7.4173,7.443,7.5246,7.5169,7.522,7.5515,7.6002,7.6162,7.5871,7.5752,7.6277,7.7191,7.8163,7.8774,7.9289,7.978,8.006,8.0084,8.0084,8.0084,8.0084,8.0084,8.0084,8.0084,8.0084,8.0084,8.0084,8.0084,8.0084,8.0084,8.0084,8.0084,8.0084,8.0084,8.0084,8.0084,8.0084,8.0084,8.0084,8.0084,8.0084,8.0084,8.0084,8.0084,8.0168,8.0367,8.0872,8.1678,8.2447,8.3235,8.3534,8.3586,8.3586,8.3586,8.3586,8.3586,8.3613,8.3613,8.3751,8.3968,8.4106,8.4186,8.4133,8.4402,8.475,8.5096,8.5469,8.5816,8.6137,8.6505,8.677,8.7299,8.7823,8.8552,8.9456,9.0352,9.101,9.0986,9.1113,9.1567,9.182,9.2172,9.2147,9.1744,9.1468,9.1214,9.1215,9.1543,9.2472,9.3244,9.3343,9.3441,9.3466,9.3491,9.3515,5.785,5.8997,6.085,6.2287,6.3486,6.4865,6.5757,6.6309,6.6693,6.7146,6.7689,6.8555,6.8976,6.97,7.1267,7.2553,7.3401,7.3976,7.4327,7.4686,7.4532,7.4737,7.5551,7.5627,7.5728,7.5805,7.5877,7.6025,7.5835,7.5796,7.5791,7.5987,7.7118,7.826,7.8704,7.9285,7.9756,8.0014,8.0084,8.0084,8.0084,8.0084,8.0084,8.0084,8.0084,8.0084,8.0084,8.0084,8.0084,8.0084,8.0084,8.0084,8.0084,8.0084,8.0084,8.0084,8.0084,8.0084,8.0084,8.0084,8.0084,8.0084,8.0084,8.0084,8.0084,8.0168,8.0483,8.1098,8.1925,8.2799,8.3504,8.3586,8.3586,8.3586,8.3586,8.3586,8.3586,8.3586,8.364,8.3697,8.3643,8.3643,8.3833,8.4049,8.4238,8.4451,8.4667,8.4855,8.5179,8.5418,8.5603,8.5977,8.635,8.7221,8.8006,8.8889,8.9635,8.9507,8.9815,9.0302,9.0633,9.1165,9.1139,9.0479,9.0071,8.9969,9.0326,9.081,9.1744,9.3093,9.3293,9.3343,9.3244,9.3142,9.3217,5.7709,5.9474,6.0996,6.2503,6.3874,6.5033,6.5829,6.6309,6.667,6.7194,6.7619,6.7761,6.8438,6.928,7.0471,7.1548,7.2633,7.3615,7.4662,7.5146,7.5067,7.55,7.6083,7.626,7.6361,7.6739,7.6185,7.5932,7.5853,7.546,7.5391,7.589,7.6133,7.683,7.8139,7.8724,7.9125,7.9827,7.992,7.9967,8.0088,8.0084,8.0084,8.0084,8.0084,8.0084,8.0084,8.0084,8.0084,8.0084,8.0084,8.0084,8.0084,8.0084,8.0084,8.0084,8.0084,8.0084,8.0084,8.0084,8.0084,8.0084,8.0084,8.0084,8.0084,8.0112,8.0316,8.0848,8.1481,8.2358,8.3423,8.3561,8.3561,8.3586,8.3586,8.3586,8.3586,8.3586,8.3586,8.3586,8.3586,8.3586,8.3643,8.3724,8.3697,8.3751,8.3805,8.3968,8.4321,8.4617,8.4882,8.523,8.5419,8.6112,8.6324,8.7011,8.7824,8.8032,8.85,8.8811,8.9044,8.9224,8.9095,8.876,8.8837,8.8863,8.907,9.0021,9.1316,9.2845,9.3217,9.287,9.2795,9.282,9.282,5.6876,5.8693,6.0258,6.1596,6.2975,6.4977,6.6069,6.6381,6.6955,6.7431,6.7596,6.7644,6.7924,6.8462,6.9467,7.0168,7.1014,7.2528,7.4091,7.5176,7.545,7.5932,7.6613,7.6838,7.6512,7.6209,7.6209,7.6083,7.5829,7.5368,7.5201,7.5343,7.5427,7.6085,7.6757,7.7438,7.826,7.9078,7.9265,7.9569,8.0014,8.0084,8.0084,8.0084,8.0084,8.0084,8.0084,8.0084,8.0084,8.0084,8.0084,8.0084,8.0084,8.0084,8.0084,8.0084,8.0084,8.0084,8.0084,8.0084,8.0084,8.0084,8.0084,8.0084,8.0084,8.0084,8.0228,8.0507,8.1038,8.1784,8.2908,8.329,8.3561,8.3586,8.3586,8.3586,8.3586,8.3586,8.3586,8.3586,8.3586,8.3586,8.3586,8.364,8.364,8.3643,8.367,8.3697,8.4024,8.4078,8.4317,8.4451,8.4613,8.4748,8.4857,8.5366,8.6297,8.6747,8.722,8.7509,8.7588,8.7352,8.7194,8.7431,8.7693,8.7719,8.798,8.9482,9.0709,9.1821,9.2372,9.2272,9.2147,9.202,9.202,5.6013,5.7609,5.9298,6.0654,6.2126,6.46,6.6009,6.6431,6.7193,6.7501,6.762,6.7644,6.7667,6.7737,6.8812,6.9234,6.9654,7.1225,7.3009,7.4817,7.5259,7.626,7.6915,7.6964,7.6537,7.6285,7.6713,7.6562,7.6032,7.5754,7.5373,7.4981,7.5177,7.5346,7.5591,7.641,7.7181,7.8069,7.8494,7.9008,7.9569,7.9873,8.0084,8.0084,8.0084,8.0084,8.0084,8.0084,8.0084,8.0084,8.0084,8.0084,8.0084,8.0084,8.0084,8.0084,8.0084,8.0084,8.0084,8.0084,8.0084,8.0084,8.0084,8.0084,8.0084,8.0084,8.0084,8.0168,8.0543,8.1264,8.2118,8.2908,8.3341,8.3559,8.3586,8.3586,8.3586,8.3586,8.3586,8.3586,8.3586,8.3586,8.3586,8.3586,8.3586,8.3586,8.3586,8.3586,8.364,8.3643,8.3803,8.3911,8.4047,8.4211,8.4319,8.4588,8.5179,8.5526,8.5977,8.627,8.6216,8.6057,8.611,8.6271,8.6484,8.6588,8.664,8.8032,8.9842,9.0582,9.1266,9.1089,9.1013,9.1165,9.1138,5.5353,5.6829,5.8374,6.0297,6.2241,6.3668,6.5183,6.658,6.6887,6.7195,6.7573,6.7644,6.7644,6.769,6.8602,6.9187,6.921,7.0356,7.1876,7.3373,7.5129,7.6316,7.6795,7.657,7.6518,7.6714,7.6537,7.6614,7.6563,7.6362,7.5932,7.5392,7.4879,7.5007,7.5247,7.5472,7.6176,7.706,7.7812,7.8326,7.8751,7.9476,7.985,7.992,7.9944,8.0084,8.0084,8.0084,8.0,8.0056,8.0084,8.0028,8.0028,8.0084,8.0084,8.0084,8.0084,8.0084,8.0084,8.0084,8.0084,8.0084,8.0084,8.0084,8.0084,8.0084,8.0084,8.0084,8.0566,8.0932,8.1402,8.2118,8.2881,8.3504,8.3586,8.3586,8.3586,8.3586,8.3586,8.3586,8.3586,8.3586,8.3586,8.3586,8.3586,8.3586,8.3586,8.3586,8.3586,8.3586,8.3586,8.3586,8.3667,8.3751,8.3833,8.3911,8.4238,8.4481,8.4989,8.5123,8.507,8.5043,8.507,8.5177,8.5419,8.5553,8.5738,8.7036,8.876,8.9713,8.9918,8.9841,8.979,9.0071,9.0173,5.4628,5.5804,5.7686,5.9322,6.0856,6.2733,6.4503,6.5915,6.6288,6.6849,6.7526,6.7644,6.7644,6.7667,6.8088,6.8298,6.8438,6.9373,7.0391,7.1757,7.3902,7.5196,7.5717,7.599,7.6132,7.6493,7.674,7.6714,7.654,7.6438,7.6033,7.545,7.4914,7.4588,7.4589,7.454,7.503,7.5939,7.6453,7.706,7.7672,7.8657,7.9125,7.9265,7.9775,8.0084,8.0084,8.0084,7.9669,7.9169,7.9304,7.9524,7.9552,7.9832,8.0084,8.0084,8.0084,8.0084,8.0084,8.0084,8.0084,8.0084,8.0084,8.0084,8.0084,8.0084,8.0084,8.0084,8.0284,8.0757,8.1311,8.1836,8.2577,8.3341,8.3586,8.3586,8.3586,8.3586,8.3586,8.3586,8.3586,8.3586,8.3586,8.3586,8.3586,8.3586,8.3586,8.3586,8.3586,8.3586,8.3586,8.3586,8.364,8.3643,8.3722,8.3749,8.3968,8.3941,8.4236,8.4209,8.413,8.4103,8.4292,8.4537,8.4508,8.4723,8.5446,8.6456,8.7823,8.8448,8.8526,8.8656,8.8941,8.925,8.9199,5.4124,5.5077,5.6895,5.8398,5.9797,6.1787,6.3633,6.5083,6.5801,6.6499,6.713,6.748,6.7644,6.7644,6.7644,6.7644,6.7854,6.8461,6.9194,7.0167,7.217,7.321,7.3798,7.4919,7.5722,7.6031,7.6696,7.6891,7.639,7.6564,7.621,7.545,7.5042,7.4556,7.3918,7.3911,7.4308,7.4911,7.5235,7.5892,7.664,7.7443,7.7925,7.7995,7.8385,7.879,7.9166,7.9213,7.8622,7.7563,7.8082,7.8611,7.9112,7.9552,7.986,8.0,8.0084,8.0084,8.0084,8.0084,8.0084,8.0084,8.0084,8.0084,8.0084,8.0084,8.0084,8.0084,8.0112,8.0474,8.1141,8.1552,8.208,8.296,8.3205,8.3344,8.348,8.348,8.3398,8.3534,8.3586,8.3586,8.3586,8.3586,8.3586,8.3586,8.3586,8.3586,8.3586,8.3586,8.3586,8.3586,8.3586,8.3586,8.3586,8.3586,8.3586,8.3586,8.364,8.367,8.367,8.367,8.3862,8.4027,8.4076,8.4076,8.4857,8.566,8.6455,8.7378,8.7325,8.7115,8.7561,8.7979,8.7875,5.3963,5.4608,5.6032,5.7766,5.9688,6.1041,6.2555,6.4089,6.5359,6.5986,6.6383,6.7083,6.755,6.7597,6.7597,6.7644,6.7667,6.7854,6.8393,6.924,6.993,7.0648,7.1511,7.3825,7.5163,7.5675,7.6578,7.7042,7.699,7.7015,7.6588,7.5602,7.5424,7.489,7.4098,7.3916,7.4012,7.4215,7.4911,7.5305,7.5462,7.6095,7.6363,7.6332,7.6086,7.6296,7.6933,7.6919,7.6396,7.5701,7.6345,7.74,7.8685,7.9107,7.9208,7.9636,7.9981,7.9879,8.0009,7.993,8.0,8.0056,8.0028,8.0084,7.9972,7.9888,7.986,7.986,7.9944,8.0112,8.0363,8.0887,8.1438,8.1887,8.2303,8.2854,8.3396,8.299,8.2963,8.3368,8.3586,8.3586,8.3586,8.3586,8.3586,8.3586,8.3586,8.3586,8.3586,8.3586,8.3586,8.3586,8.3586,8.3586,8.3586,8.3586,8.3586,8.3586,8.3613,8.364,8.3613,8.3613,8.3724,8.3697,8.3722,8.3694,8.4047,8.4748,8.5498,8.6162,8.6109,8.5603,8.5735,8.6186,8.6292,5.3733,5.4515,5.5378,5.6879,5.8734,5.9471,6.1013,6.2889,6.3552,6.4335,6.5286,6.6243,6.6686,6.6803,6.7387,6.762,6.7644,6.7644,6.7854,6.8205,6.8466,6.8775,6.958,7.1583,7.3341,7.5041,7.5896,7.6531,7.7141,7.714,7.6789,7.6184,7.6033,7.5475,7.4455,7.4353,7.4173,7.3937,7.4236,7.429,7.4184,7.4784,7.5004,7.4724,7.5013,7.5381,7.5651,7.4389,7.3853,7.4173,7.4466,7.5148,7.6092,7.652,7.6754,7.7117,7.7606,7.8239,7.8642,7.9111,7.9608,7.9916,7.9692,7.9468,7.9412,7.9051,7.8887,7.8938,7.9141,7.9533,8.0084,8.08,8.0994,8.0808,8.1204,8.1784,8.2303,8.2248,8.2385,8.2714,8.2936,8.3205,8.3477,8.3586,8.3586,8.3586,8.3586,8.3586,8.3586,8.3586,8.3586,8.3586,8.3586,8.3586,8.3586,8.3586,8.3586,8.3532,8.3559,8.3586,8.3586,8.3586,8.3586,8.3586,8.3586,8.3586,8.3613,8.4209,8.4611,8.4931,8.5307,8.5119,8.5119,8.525,8.5169,5.3503,5.4261,5.4921,5.6078,5.747,5.8359,5.9601,6.1231,6.2153,6.3018,6.4077,6.5146,6.5658,6.5892,6.6709,6.7153,6.7153,6.6848,6.6987,6.7336,6.7454,6.7809,6.8563,6.9556,7.1344,7.3438,7.4457,7.5382,7.6259,7.6578,7.6622,7.6438,7.6386,7.578,7.4686,7.4609,7.4378,7.3916,7.3709,7.3498,7.3201,7.3459,7.3388,7.3036,7.344,7.3664,7.343,7.2009,7.1663,7.2491,7.2679,7.331,7.4293,7.4808,7.503,7.5289,7.5957,7.6543,7.6997,7.7574,7.8151,7.8771,7.8645,7.8503,7.8695,7.8408,7.821,7.8215,7.8106,7.8524,7.9393,8.0322,8.0373,7.9585,8.0149,8.0789,8.0947,8.1497,8.186,8.2083,8.2389,8.2772,8.3126,8.3534,8.3561,8.3586,8.3586,8.3586,8.3586,8.3586,8.3586,8.3586,8.3586,8.3586,8.3586,8.3586,8.3398,8.3181,8.3398,8.3586,8.3586,8.3586,8.3586,8.3586,8.3586,8.3586,8.3586,8.3803,8.4074,8.4368,8.4503,8.4663,8.4797,8.4743,8.4582,5.3296,5.3823,5.4739,5.5512,5.635,5.7783,5.8647,5.9312,6.1254,6.2108,6.2495,6.3985,6.4541,6.4842,6.5521,6.5987,6.5639,6.5105,6.5447,6.6606,6.6746,6.729,6.8233,6.8422,6.9438,7.0889,7.2376,7.3703,7.4817,7.5308,7.5697,7.6147,7.6144,7.5589,7.4564,7.4585,7.4378,7.3864,7.3394,7.3132,7.2973,7.2056,7.1524,7.1369,7.1014,7.055,6.9871,6.9769,7.0004,7.0595,7.0984,7.2187,7.3731,7.4089,7.4476,7.4644,7.5016,7.5144,7.5166,7.5249,7.5838,7.6569,7.6715,7.6923,7.7408,7.7528,7.7472,7.724,7.6793,7.6838,7.797,7.9238,7.943,7.8469,7.8822,7.9366,7.9557,8.0678,8.1643,8.1449,8.1949,8.2471,8.2635,8.2963,8.3344,8.3398,8.3453,8.348,8.3534,8.3586,8.3586,8.3586,8.3586,8.3504,8.3532,8.3532,8.3126,8.2881,8.3154,8.3423,8.3341,8.3561,8.3561,8.3586,8.3586,8.3586,8.3586,8.3613,8.383,8.3857,8.3749,8.3857,8.3992,8.4125,8.4017,5.3293,5.3664,5.4009,5.4855,5.5989,5.6621,5.7404,5.8404,5.9424,6.0089,6.0668,6.1981,6.2642,6.2803,6.3655,6.3473,6.2286,6.3013,6.3877,6.4883,6.5258,6.5956,6.6887,6.7241,6.7831,6.8774,7.0244,7.1797,7.3144,7.3679,7.3873,7.389,7.4787,7.4652,7.3914,7.4304,7.4402,7.3864,7.3319,7.2823,7.2331,7.1339,7.0601,7.0146,6.9663,6.9263,6.9071,6.9071,6.9183,6.9414,6.9816,7.0415,7.1052,7.1128,7.1074,7.0952,7.1564,7.2072,7.2449,7.3139,7.3801,7.4473,7.4264,7.4127,7.4339,7.4048,7.3875,7.3751,7.3423,7.408,7.5857,7.7629,7.7678,7.5611,7.5739,7.6754,7.8031,7.8724,7.947,8.0248,8.0896,8.1492,8.1946,8.2248,8.255,8.2932,8.2908,8.3181,8.348,8.3586,8.3586,8.3586,8.3532,8.3317,8.2963,8.2687,8.2382,8.233,8.2522,8.2796,8.2936,8.3344,8.3534,8.3561,8.3586,8.3586,8.3586,8.3586,8.3613,8.3613,8.3453,8.332,8.348,8.3532,8.3694,5.3247,5.3434,5.3595,5.4215,5.5174,5.5537,5.6304,5.7381,5.796,5.8514,5.9133,6.0115,6.0587,6.061,6.0951,6.0566,5.9911,6.0785,6.1864,6.2857,6.346,6.4309,6.5407,6.5881,6.6445,6.7216,6.8297,6.9836,7.1508,7.2039,7.2303,7.2614,7.3433,7.3425,7.2871,7.3548,7.3686,7.3117,7.2843,7.2436,7.1812,7.0782,6.9474,6.8092,6.7635,6.7472,6.7446,6.7494,6.7752,6.8285,6.8418,6.8704,6.9219,6.929,6.9156,6.89,6.945,6.9961,7.0303,7.0917,7.1597,7.2213,7.2027,7.196,7.1918,7.1553,7.1237,7.1265,7.0765,7.0793,7.2528,7.3959,7.4278,7.316,7.3628,7.4769,7.5883,7.664,7.7337,7.8417,7.8961,7.9707,8.052,8.1353,8.1788,8.2224,8.2461,8.2653,8.2902,8.296,8.2878,8.2932,8.296,8.2717,8.2087,8.1784,8.1749,8.1781,8.1922,8.2203,8.2635,8.3017,8.3344,8.3371,8.3559,8.3586,8.3507,8.3534,8.3586,8.348,8.2896,8.2842,8.3211,8.3453,8.3534,5.3105,5.3131,5.3478,5.3662,5.3733,5.4716,5.5467,5.6102,5.6912,5.756,5.8071,5.8537,5.8647,5.8559,5.7892,5.7859,5.8666,5.8822,5.9622,6.0875,6.1473,6.2428,6.375,6.4288,6.507,6.5986,6.6482,6.7777,6.9861,7.0388,7.1176,7.2156,7.23,7.2056,7.1611,7.2385,7.2474,7.1654,7.1731,7.1663,7.1008,6.9951,6.7987,6.5648,6.5136,6.5196,6.5101,6.511,6.5752,6.7184,6.6785,6.7073,6.8369,6.8558,6.852,6.851,6.8522,6.8495,6.8414,6.8382,6.8853,6.9765,6.9765,7.0138,7.021,6.9869,6.9743,7.0512,6.8096,6.7258,6.8539,6.9377,6.9892,7.1156,7.2369,7.2992,7.3374,7.4444,7.5338,7.6061,7.6439,7.7249,7.8875,8.0241,8.0792,8.134,8.1922,8.2107,8.1833,8.187,8.197,8.1942,8.1828,8.1508,8.0877,8.0928,8.1113,8.0726,8.0729,8.1727,8.2183,8.2611,8.2936,8.3181,8.3205,8.326,8.3398,8.3344,8.3099,8.3023,8.2408,8.222,8.2529,8.3102,8.3396,5.3105,5.3108,5.3178,5.3385,5.3664,5.3961,5.4602,5.5446,5.608,5.6597,5.7024,5.7515,5.7337,5.6756,5.6485,5.6524,5.6826,5.7052,5.7842,5.8895,5.9441,6.0245,6.1176,6.1429,6.2407,6.38,6.4174,6.5288,6.7206,6.8088,6.868,6.9104,7.0147,7.0381,7.0039,7.0832,7.1049,7.047,7.0127,6.9553,6.8635,6.7522,6.6353,6.5209,6.4756,6.4367,6.4025,6.4341,6.4599,6.4641,6.5215,6.5687,6.6102,6.6149,6.6128,6.6097,6.5417,6.4833,6.4485,6.4432,6.4805,6.5597,6.5744,6.6041,6.663,6.6487,6.6411,6.6611,6.4327,6.3835,6.5767,6.6535,6.7157,6.8126,6.8536,6.9705,7.1469,7.2501,7.3453,7.4703,7.4988,7.577,7.635,7.7067,7.8045,7.8867,7.9635,8.0222,8.0648,8.1224,8.1678,8.1777,8.1011,7.9899,7.8536,7.9409,7.9511,7.9037,7.9275,8.0066,8.0175,8.1402,8.2197,8.1896,8.2186,8.2255,8.1922,8.1428,8.1074,8.1685,8.1463,8.0963,8.1532,8.2873,8.3226,5.3201,5.3105,5.3105,5.3201,5.3388,5.3431,5.3869,5.4556,5.4923,5.5401,5.6012,5.6553,5.6508,5.6012,5.5989,5.5989,5.6012,5.6194,5.6672,5.7256,5.7731,5.8457,5.9327,5.9577,6.0453,6.1872,6.2222,6.3111,6.4631,6.5693,6.6469,6.7144,6.7964,6.8313,6.8095,6.8997,6.9236,6.8694,6.8831,6.7851,6.5981,6.5137,6.4409,6.3677,6.3321,6.2985,6.2755,6.296,6.3201,6.3376,6.3913,6.4397,6.4787,6.4808,6.4683,6.4467,6.3889,6.3341,6.2811,6.2758,6.298,6.3403,6.3486,6.3539,6.3853,6.3533,6.3243,6.3047,6.1899,6.1751,6.3588,6.439,6.4864,6.5291,6.5887,6.6888,6.8783,6.9827,7.0947,7.2215,7.2754,7.3141,7.4112,7.4627,7.5353,7.6544,7.7101,7.7761,7.8475,7.9106,7.9616,7.9549,7.8081,7.6889,7.7267,7.8139,7.8116,7.7542,7.7782,7.8486,7.8722,7.9642,8.0297,8.0497,8.051,8.0375,8.0073,7.926,7.9329,8.0571,8.0438,8.001,8.0073,8.1591,8.1908,5.3304,5.3085,5.3105,5.3105,5.3105,5.3085,5.3316,5.3685,5.3733,5.4259,5.5081,5.5559,5.5763,5.581,5.5899,5.5876,5.5899,5.5967,5.6033,5.61,5.635,5.7004,5.7915,5.8368,5.9142,6.0042,6.0504,6.1267,6.2287,6.3233,6.4436,6.5771,6.612,6.6283,6.6351,6.7083,6.7295,6.6779,6.7636,6.6486,6.3394,6.3162,6.2621,6.1436,6.1408,6.139,6.1224,6.1281,6.1687,6.243,6.2476,6.293,6.3636,6.3737,6.348,6.3019,6.2864,6.2683,6.2141,6.2114,6.1957,6.2221,6.2131,6.2017,6.1638,6.101,6.0395,6.0214,6.0512,6.0934,6.1605,6.2398,6.2887,6.3042,6.3912,6.4836,6.5595,6.6746,6.8076,6.9102,6.9468,7.0133,7.196,7.2506,7.3118,7.422,7.4678,7.5259,7.5969,7.6413,7.666,7.5995,7.4292,7.3784,7.5687,7.661,7.6573,7.662,7.6713,7.7045,7.7413,7.7673,7.7881,7.8767,7.868,7.8192,7.7356,7.676,7.7418,7.8924,7.9793,7.9597,7.8334,7.9409,8.0003,5.2509,5.3085,5.3105,5.3105,5.3105,5.3105,5.3293,5.3687,5.408,5.4169,5.4032,5.4101,5.44,5.4811,5.524,5.5399,5.5422,5.5786,5.5989,5.5989,5.6058,5.6231,5.6468,5.658,5.7346,5.8508,5.871,5.944,6.0666,6.1363,6.2248,6.3299,6.4799,6.552,6.5543,6.625,6.634,6.5808,6.5669,6.4799,6.3233,6.3162,6.2621,6.1532,6.1387,6.0899,5.9854,6.0159,5.9971,5.9136,5.9482,5.9742,5.9954,5.9593,5.9304,5.9155,5.8426,5.7783,5.7416,5.7178,5.7349,5.8029,5.8678,5.9273,5.9615,5.7941,5.7135,5.8273,5.8818,5.9478,6.0214,6.0959,6.1631,6.1994,6.2357,6.281,6.3359,6.4106,6.5071,6.6356,6.7041,6.7913,6.9338,7.0083,7.0519,7.1125,7.235,7.3504,7.4151,7.498,7.4471,7.3237,7.2389,7.2704,7.3618,7.4396,7.463,7.4563,7.5162,7.5632,7.5948,7.6616,7.7148,7.7182,7.7306,7.6612,7.5044,7.4636,7.5498,7.7238,7.8721,7.9019,7.6891,7.7135,7.6884,5.1569,5.1813,5.1833,5.2055,5.2438,5.2438,5.2797,5.335,5.3037,5.2756,5.2552,5.2731,5.3184,5.3807,5.4119,5.4461,5.4855,5.5153,5.5266,5.5289,5.5537,5.5627,5.5649,5.5876,5.6403,5.7078,5.7166,5.7752,5.889,5.9467,6.0154,6.1116,6.2333,6.3343,6.3958,6.4316,6.473,6.5131,6.3752,6.2545,6.1541,6.1492,6.1082,6.0184,6.0184,5.9781,5.9053,5.9276,5.9064,5.8313,5.8577,5.8744,5.8699,5.8228,5.7638,5.698,5.6271,5.5369,5.4247,5.4448,5.4876,5.5535,5.6019,5.6083,5.57,5.4884,5.4791,5.5665,5.5888,5.6345,5.7273,5.8081,5.8733,5.9212,6.0239,6.1072,6.1688,6.2317,6.3161,6.4153,6.4696,6.5388,6.6619,6.7378,6.7957,6.8676,6.9902,7.1147,7.173,7.1902,7.1619,7.1108,7.0755,7.1256,7.269,7.3399,7.358,7.3115,7.3548,7.3846,7.3938,7.4552,7.5076,7.5195,7.5436,7.5028,7.4212,7.3841,7.4285,7.553,7.6629,7.6729,7.5621,7.5018,7.4958,5.0565,5.0273,5.0297,5.0804,5.1509,5.1531,5.1954,5.2561,5.1357,5.0819,5.084,5.1276,5.1818,5.2518,5.2715,5.3238,5.3849,5.4061,5.4192,5.4283,5.4836,5.5104,5.5105,5.5605,5.5854,5.5876,5.5897,5.6323,5.7138,5.7549,5.8226,5.9134,5.9642,6.0636,6.1963,6.2241,6.2922,6.4128,6.2052,6.0466,5.9506,5.9506,5.9199,5.8746,5.8741,5.8656,5.8531,5.8531,5.8444,5.8317,5.8189,5.8105,5.8081,5.7447,5.66,5.5315,5.4665,5.3519,5.1781,5.2161,5.2757,5.3236,5.3612,5.2901,5.0888,5.1724,5.2523,5.2772,5.272,5.2883,5.3889,5.4949,5.5731,5.6074,5.7757,5.9131,5.9507,6.0368,6.1298,6.2125,6.2364,6.2933,6.4089,6.4891,6.5707,6.6622,6.7556,6.8451,6.868,6.8124,6.8192,6.9165,6.8904,6.9602,7.1464,7.2924,7.3141,7.2279,7.225,7.2393,7.2397,7.2825,7.3132,7.3019,7.3577,7.3746,7.3578,7.3709,7.3934,7.4007,7.4222,7.4201,7.4173,7.3838,7.3747,4.9257,4.9893,5.0185,5.0462,5.0582,5.0562,5.0683,5.076,4.9793,0.0,0.0,4.9236,4.9382,4.9823,5.1043,5.1416,5.1152,5.2282,5.2991,5.3329,5.4165,5.456,5.4583,5.5126,5.5331,5.5333,5.5354,5.5621,5.6178,5.5902,5.639,5.7609,5.7789,5.8772,6.0552,6.1389,6.1733,6.1653,6.0831,6.0117,5.9529,5.9506,5.9222,5.8722,5.8744,5.8362,5.7621,5.7578,5.7217,5.6477,5.5643,5.5174,5.5151,5.4075,5.313,5.2416,5.0973,4.9593,4.8515,4.7613,4.7525,4.8573,5.057,5.0499,4.7391,4.7968,4.8992,5.0278,5.1089,5.1872,5.2763,5.3784,5.4473,5.4562,5.5242,5.5721,5.5904,5.6972,5.8376,5.956,6.0403,6.14,6.2714,6.3157,6.3428,6.3764,6.4864,6.5668,6.5637,6.532,6.514,6.5619,6.6059,6.7255,6.946,7.1243,7.2262,7.1933,7.1959,7.2152,7.2152,7.2204,7.2279,7.2148,7.28,7.2861,7.2624,7.303,7.3815,7.3867,7.3867,7.3867,7.3796,7.3161,7.2808,4.7454,4.7698,4.8109,4.8561,0.0,4.8979,4.8226,4.7034,4.6944,4.6939,4.692,4.6773,4.7064,4.7641,4.8437,4.9005,4.9387,5.0086,5.0776,5.1401,5.2073,5.2768,5.3468,5.392,5.4351,5.4788,5.4809,5.4925,5.5175,5.5196,5.5539,5.6233,5.651,5.7225,5.8408,5.9622,5.9759,5.8774,5.8545,5.8179,5.7763,5.7695,5.758,5.7325,5.7323,0.0,0.0,0.0,0.0,0.0,0.0,0.0,0.0,5.2132,5.0745,4.9227,4.7625,4.5963,4.4244,4.37,4.3808,4.4541,4.5983,4.5518,4.2303,4.3646,4.5325,4.6842,4.7652,4.848,4.9542,5.077,5.1585,5.1904,5.3032,5.3958,5.4278,5.5173,5.6236,5.7234,5.8123,5.904,6.0095,6.0953,6.1648,6.2017,6.2638,6.3255,6.3651,6.3358,6.2977,6.3073,6.3142,6.4216,6.7566,6.9975,7.1012,6.9768,6.9668,6.9845,6.9845,7.008,7.0286,7.0311,7.0721,7.105,7.0749,7.1081,7.2015,7.3432,7.3867,7.3432,7.1557,7.0996,7.091,4.5041,4.4893,4.5311,4.5908,4.6654,4.6335,4.4998,4.3058,4.369,4.3969,4.399,4.3765,4.4182,4.509,4.5174,4.5968,4.7165,4.7406,4.8044,4.8995,4.9663,5.0586,5.1715,5.221,5.2804,5.3503,5.3523,5.3657,5.3816,5.4108,5.44,5.458,5.5075,5.5632,5.6227,0.0,0.0,0.0,5.6086,5.608,5.5854,5.5854,5.5899,5.5989,5.5989,0.0,5.5578,5.4834,5.428,5.3936,5.2988,0.0,5.1841,0.0,0.0,0.0,0.0,0.0,0.0,0.0,0.0,0.0,3.9998,3.8956,3.688,3.8955,4.1186,4.3032,4.3725,4.4543,4.5884,4.7132,4.8027,4.8469,5.0347,5.1813,5.2236,5.3274,5.4203,5.4869,5.5788,5.6587,5.7344,5.8557,5.9713,6.0234,6.0581,6.0865,6.1138,6.0846,6.0868,6.1025,6.0603,6.1754,6.6043,6.8343,6.8859,6.7419,6.7086,6.7356,6.7473,6.7839,6.8151,6.8174,6.861,6.9014,6.8433,6.8365,6.9212,7.2113,7.2961,7.2339,6.9285,6.8792,6.8958,4.1591,4.1993,4.2361,4.2782,4.3122,4.1637,4.083,4.0508,4.0637,4.0653,4.0612,3.9597,3.9791,4.0833,4.1315,4.1919,4.2696,4.3821,4.5002,4.6284,4.7886,4.8754,4.8963,4.9771,5.0251,5.0351,5.0349,5.0769,5.1539,5.1146,5.143,5.2302,5.2699,5.3577,5.478,5.3813,5.3595,5.4201,5.4529,5.4902,5.5285,5.5287,5.5535,5.5967,5.5989,5.5404,5.4177,5.4296,5.3742,5.229,5.0899,5.004,4.9564,4.718,4.4972,0.0,4.0455,0.0,0.0,0.0,0.0,0.0,0.0,0.0,0.0,3.3656,3.5979,3.9119,4.0173,4.1283,4.2779,4.3777,4.4414,4.4537,4.6184,4.7302,4.747,4.9493,5.1366,5.2566,5.3512,5.4536,5.5628,5.6048,5.6572,5.7433,5.8103,5.7937,5.6433,5.6852,5.764,5.8189,5.9135,6.0572,6.3492,6.5557,6.6564,6.6264,6.6035,6.6268,6.6126,6.6559,6.6978,6.7032,6.7537,6.7586,6.5659,6.5316,6.6036,6.8236,6.9912,7.0185,6.8118,6.7458,6.8156,3.9954,3.9951,4.0626,3.9512,3.7249,3.6937,3.6816,3.685,3.7268,3.7578,3.7737,3.7233,3.731,3.7755,3.781,3.8309,3.9234,4.0062,4.128,4.2941,4.4436,4.5824,4.7019,4.7854,4.8608,4.9323,4.9345,4.9541,4.9919,4.9987,5.0361,5.1038,5.1496,5.1468,5.0869,5.0434,5.1264,5.3373,5.3586,5.4155,5.5195,5.5238,5.5446,5.5923,5.5412,5.4832,5.4188,5.3131,5.2012,5.0752,4.8875,4.7179,4.5775,4.3092,4.0556,0.0,0.0,0.0,0.0,0.0,0.0,0.0,0.0,0.0,0.0,0.0,3.0818,3.2704,3.5078,3.7194,3.8973,3.9724,4.0174,4.0473,4.1635,4.2731,4.3657,4.5366,4.7219,4.9158,5.0375,5.1646,5.3148,5.377,5.4424,5.5301,5.4919,5.4509,5.4541,5.5102,5.569,5.6098,5.7174,5.851,5.9938,6.2598,6.405,6.2775,6.2661,6.2857,6.2859,6.303,6.3198,6.3247,6.3565,6.3474,6.2506,6.226,6.3314,6.586,6.7189,6.639,6.4099,6.3526,6.3814,3.7388,3.7213,3.7429,3.5478,3.2331,3.2879,3.3129,3.3197,3.3766,3.417,3.4472,3.4472,3.4407,3.4238,3.3922,3.4481,3.5702,3.621,3.7528,3.9442,4.0881,4.2593,4.4506,4.5384,4.6316,4.7217,4.7386,4.7451,4.7473,4.7865,4.8255,4.8622,4.8392,4.7653,4.649,4.6937,4.8666,5.1586,5.2059,5.2937,5.434,5.4796,5.5226,5.5603,5.4858,5.4109,5.3448,5.1739,5.0145,4.867,4.6439,4.4214,4.2013,3.8978,0.0,0.0,0.0,0.0,0.0,0.0,0.0,0.0,0.0,2.22,2.2332,0.0,2.6226,0.0,3.0074,3.3055,3.4887,3.5439,0.0,0.0,3.7053,3.8167,3.9607,4.0894,4.2673,4.5299,4.6816,4.824,4.9796,5.115,5.2193,5.2723,5.1641,5.1325,5.286,5.3618,5.4133,5.4594,5.5556,5.624,5.6631,5.9418,6.1182,5.9389,5.9551,5.9861,5.9882,5.9929,5.9929,5.9886,5.9908,5.9621,5.8996,5.8864,6.0328,6.3799,6.4219,6.2823,6.0231,5.9868,6.0217,3.236,3.2804,3.0988,3.0149,3.0024,3.0073,3.0088,3.0105,3.0154,3.0221,3.0256,3.0256,2.9883,2.9351,2.9318,0.0,3.1453,3.2422,3.393,3.5879,3.7742,3.9317,4.0555,4.1677,4.2262,4.2359,4.284,4.3082,4.3124,4.3126,4.3349,4.3633,4.1247,4.0831,4.2414,4.3328,4.4999,4.7524,4.9177,5.0678,5.1994,5.3626,5.4529,5.4536,5.4474,5.3256,5.0788,5.0125,4.8486,4.5604,4.3335,4.1145,3.8904,0.0,0.0,0.0,0.0,0.0,0.0,0.0,0.0,0.0,0.0,0.0,0.0,0.0,0.0,2.2644,2.603,0.0,3.0683,3.1179,0.0,0.0,0.0,3.3631,3.4338,3.59,3.8109,4.1117,0.0,0.0,4.545,4.7743,4.918,4.8902,4.8622,4.8841,4.9817,5.0998,5.2276,5.3397,5.4848,5.5169,5.3755,5.5883,5.7751,5.7831,5.8487,5.8605,5.8607,5.8631,5.8763,5.8593,5.8898,5.8152,5.538,5.4782,5.6091,5.9881,6.0577,5.9965,5.8048,5.809,5.8736,2.8286,2.7006,2.6171,2.5908,2.5988,2.5972,2.5988,2.5988,2.5972,2.6132,2.6307,2.5947,2.5602,2.5335,2.5019,0.0,0.0,0.0,3.0085,3.2163,3.4425,3.6336,3.7962,3.915,3.9781,4.0054,4.0266,4.0325,4.0326,4.0092,3.8714,3.6165,0.0,3.5533,3.8087,3.9654,4.2141,4.5563,4.7818,4.9687,5.1201,5.3335,5.4398,5.4387,5.3393,5.1909,5.0063,4.8562,4.6335,4.3218,4.0463,3.7625,0.0,0.0,0.0,0.0,0.0,0.0,0.0,0.0,0.0,0.0,0.0,1.6826,1.7143,0.0,0.0,0.0,2.2701,2.4978,2.7324,2.7662,0.0,0.0,0.0,0.0,0.0,0.0,0.0,3.6151,3.8196,4.0424,4.3182,4.344,4.4483,4.741,4.6681,4.6448,4.8069,0.0,4.9716,5.0298,5.1382,5.172,5.0615,5.2194,5.3824,5.443,5.4563,5.458,5.4582,5.4584,5.4606,5.4585,5.4629,5.4084,5.229,4.9809,4.9521,5.4157,5.5211,5.4738,5.328,5.3623,5.4525,2.3743,0.0,0.0,0.0,0.0,2.2058,2.219,2.2354,2.2297,2.2307,2.2407,2.1939,0.0,0.0,0.0,0.0,0.0,0.0,2.6119,2.84,3.0836,3.3016,3.4963,3.6191,3.6941,3.7199,3.7291,3.7291,3.7107,3.5113,3.2473,2.9369,0.0,0.0,0.0,0.0,3.9336,4.332,4.6085,4.8477,5.055,5.232,5.3519,5.4011,5.2162,5.035,4.8605,4.6351,4.3693,4.0576,3.7402,0.0,0.0,0.0,0.0,0.0,0.0,0.0,0.0,0.0,0.0,0.0,0.0,0.0,0.0,0.0,0.0,0.0,0.0,0.0,2.3402,2.4082,2.4492,0.0,0.0,0.0,0.0,0.0,0.0,0.0,0.0,0.0,3.8268,3.8553,4.0094,0.0,0.0,4.436,4.6577,4.7182,4.763,4.8128,4.874,0.0,4.7992,4.9289,5.0531,5.0962,5.085,5.0797,5.0926,5.0733,5.0562,5.0561,5.0454,4.9414,4.6894,4.3975,4.4078,4.8318,4.9447,4.9014,4.8251,4.9298,5.0642,0.0,0.0,0.0,0.0,1.8637,0.0,0.0,0.0,1.9291,1.8931,0.0,1.8405,0.0,0.0,0.0,0.0,1.8522,1.9973,0.0,0.0,2.6923,2.9079,3.1118,3.2532,3.3211,3.3244,3.3599,3.3563,3.2821,2.7116,2.4158,0.0,0.0,0.0,0.0,0.0,3.6444,4.0357,4.3582,4.6709,4.9674,5.0283,5.1353,5.2976,5.1002,4.8564,4.5873,4.3332,4.0515,3.7394,3.3939,0.0,0.0,0.0,0.0,0.0,0.0,0.0,0.0,0.0,0.0,0.0,0.0,0.0,0.0,0.0,0.0,0.0,0.0,0.0,0.0,2.0277,0.0,0.0,0.0,0.0,0.0,0.0,0.0,0.0,0.0,3.1153,2.954,3.3181,3.6551,3.7914,0.0,0.0,0.0,0.0,4.6194,4.7923,4.7903,4.7321,4.632,4.7574,4.849,4.8026,0.0,0.0,4.8593,4.7949,4.7326,4.7345,4.6911,4.4533,3.8138,3.7561,3.9296,4.3311,4.3703,4.3211,4.326,4.5667,4.7936,0.0,0.0,0.0,0.0,0.0,0.0,0.0,0.0,0.0,1.5763,1.5529,1.4702,0.0,0.0,0.0,0.0,0.0,0.0,0.0,0.0,2.3727,2.5923,2.7656,2.8992,2.9618,2.9585,2.9134,2.7595,0.0,0.0,0.0,0.0,0.0,0.0,0.0,0.0,3.4248,3.8308,4.2285,4.5648,4.8261,4.9663,5.0635,5.1236,5.0292,4.7787,4.3662,4.0952,3.7654,0.0,0.0,0.0,0.0,0.0,0.0,0.0,0.0,0.0,0.0,0.0,0.0,0.0,0.0,0.0,0.0,0.0,0.0,0.0,0.0,0.0,0.0,0.0,1.8979,0.0,0.0,0.0,0.0,0.0,0.0,0.0,0.0,0.0,2.6593,2.9616,3.2879,3.5447,3.7751,4.0082,4.273,0.0,0.0,0.0,0.0,0.0,0.0,0.0,4.5878,4.4593,4.4395,4.4296,4.3973,4.3447,4.3038,4.3038,0.0,0.0,3.3749,3.3777,3.5653,3.8453,3.825,3.7639,3.7674,3.9655,4.1371,0.0,0.0,0.0,0.0,0.0,0.0,0.0,0.0,0.0,1.2637,1.2417,0.0,0.0,0.0,0.0,0.0,0.0,0.0,0.0,0.0,0.0,0.0,2.4068,2.5439,0.0,0.0,0.0,0.0,0.0,0.0,0.0,0.0,0.0,0.0,0.0,0.0,3.1798,3.6467,4.0464,4.4025,4.7098,4.8343,4.9129,4.9433,4.8696,4.641,4.2434,0.0,0.0,0.0,0.0,0.0,0.0,0.0,0.0,0.0,0.0,0.0,0.0,0.0,0.0,0.0,0.0,0.0,0.0,0.0,0.0,0.0,0.0,0.0,0.0,0.0,1.6201,0.0,0.0,0.0,0.0,0.0,0.0,0.0,0.0,0.0,0.0,2.691,2.9658,3.282,3.513,3.7483,4.0063,4.1383,4.239,0.0,0.0,0.0,0.0,0.0,0.0,0.0,0.0,0.0,0.0,0.0,0.0,0.0,3.7236,3.4562,2.936,3.0197,3.2223,3.3777,0.0,0.0,0.0,0.0,0.0,0.0,0.0,0.0,0.0,0.0,0.0,0.0,0.0,0.0,0.0,0.915,0.0,0.0,0.8229,0.0,0.0,0.0,0.0,0.0,0.0,0.0,0.0,0.0,0.0,0.0,0.0,0.0,0.0,0.0,0.0,0.0,0.0,0.0,0.0,0.0,0.0,2.9158,3.486,3.8093,4.1806,4.6014,4.6262,4.676,4.7579,4.6251,4.448,4.2253,0.0,0.0,0.0,0.0,0.0,0.0,0.0,0.0,0.0,0.0,0.0,0.0,0.0,0.0,0.0,0.0,0.0,0.0,0.0,0.0,0.0,0.0,0.0,0.0,0.0,0.0,1.4111,1.5549,1.6603,0.0,0.0,0.0,0.0,0.0,0.0,0.0,0.0,0.0,2.971,3.2392,3.4989,3.732,3.8991,4.0283,4.1073,4.1197,4.1183,4.1225,4.0604,3.9861,0.0,0.0,0.0,0.0,0.0,0.0,0.0,0.0,0.0,0.0,0.0,0.0,0.0,0.0,0.0,0.0,0.0,0.0,0.0,0.0,0.0,0.0,0.0,0.0,0.0,0.0,0.0,0.0,0.0,0.0,0.0,0.0,0.0,0.0,0.0,0.0,0.0,0.0,0.0,0.0,0.0,0.0,0.0,0.0,0.0,0.0,0.0,0.0,0.0,0.0,0.0,0.0,0.0,0.0,2.8397,3.3285,3.7177,4.0708,4.4039,4.5241,4.6257,4.7021,4.5944,4.4389,0.0,0.0,0.0,0.0,0.0,0.0,0.0,0.0,0.0,0.0,0.0,0.0,0.0,0.0,0.0,0.0,0.0,0.0,0.0,0.0,0.0,0.0,0.0,0.0,0.0,0.0,0.0,0.0,1.3642,1.4917,1.6396,0.0,0.0,0.0,0.0,0.0,0.0,0.0,0.0,0.0,0.0,3.2097,3.4888,3.682,3.8369,3.942,3.9515,3.9582,3.9936,3.9997,3.9178,3.6678,0.0,0.0,0.0,0.0,0.0,0.0,0.0,0.0,0.0,0.0,0.0,0.0,0.0,0.0,0.0,0.0,0.0,0.0,0.0,0.0,0.0,0.0,0.0,0.0,0.0,0.0,0.0,0.0,0.0,0.0,0.0,0.0,0.0,0.0,0.0,0.0,0.0,0.0,0.0,0.0,0.0,0.0,0.0,0.0,0.0,0.0,0.0,0.0,0.0,0.0,0.0,0.0,0.0,2.6894,3.2005,3.5658,3.9196,4.2489,4.3988,4.507,4.583,4.4804,4.3066,0.0,0.0,0.0,0.0,0.0,0.0,0.0,0.0,0.0,0.0,0.0,0.0,0.0,0.0,0.0,0.0,0.0,0.0,0.0,0.0,0.0,0.0,0.0,0.0,0.0,0.0,0.0,0.0,1.1913,1.336,1.4874,0.0,0.0,0.0,0.0,0.0,0.0,0.0,0.0,0.0,0.0,2.9189,3.1879,3.4063,0.0,0.0,3.7307,3.7545,3.8178,3.8206,3.7305,3.4995,3.3575,0.0,0.0,0.0,0.0,0.0,0.0,0.0,0.0,0.0,0.0,0.0,0.0,0.0,0.0,0.0,0.0,0.0,0.0,0.0,0.0,0.0,0.0,0.0,0.0,0.0,0.0,0.0,0.0,0.0,0.0,0.0,0.0,0.0,0.0,0.0,0.0,0.0,0.0,0.0,0.0,0.0,0.0,0.0,0.0,0.0,0.0,0.0,0.0,0.0,0.0,0.0,0.0,2.4934,3.083,3.3854,3.7336,4.1373,4.2519,4.3403,4.4197,4.3148,4.1054,0.0,0.0,0.0,0.0,0.0,0.0,0.0,0.0,0.0,0.0,0.0,0.0,0.0,0.0,0.0,0.0,0.0,0.0,0.0,0.0,0.0,0.0,0.0,0.0,0.0,0.0,0.0,0.0,0.0,0.0,0.0,0.0,0.0,0.0,0.0,0.0,0.0,0.0,0.0,0.0,0.0,2.6369,2.8712,3.0878,3.2743,0.0,3.4594,3.5078,3.5898,3.5427,3.4614,3.3812,0.0,0.0,0.0,0.0,0.0,0.0,0.0,0.0,0.0,0.0,0.0,0.0,0.0,0.0,0.0,0.0,0.0,0.0,0.0,0.0,0.0,0.0,0.0,0.0,0.0,0.0,0.0,0.0,0.0,0.0,0.0,0.0,0.0,0.0,0.0,0.0,0.0,0.0,0.0,0.0,0.0,0.0,0.0,0.0,0.0,0.0,0.0,0.0,0.0,0.0,0.0,0.0,0.0,0.0,2.9573,3.2826,3.5976,3.893,4.0732,4.22,4.3249,4.2802,0.0,0.0,0.0,0.0,0.0,0.0,0.0,0.0,0.0,0.0,0.0,0.0,0.0,0.0,0.0,0.0,0.0,0.0,0.0,0.0,0.0,0.0,0.0,0.0,0.0,0.0,0.0,0.7035,0.0,0.0,0.0,0.0,0.0,0.0,0.0,0.0,0.0,0.0,0.0,0.0,0.0,0.0,2.4753,2.7498,2.9043,3.0393,0.0,0.0,3.1379,3.2672,3.3626,3.3375,0.0,0.0,0.0,0.0,0.0,0.0,0.0,0.0,0.0,0.0,0.0,0.0,0.0,0.0,0.0,0.0,0.0,0.0,0.0,0.0,0.0,0.0,0.0,0.0,0.0,0.0,0.0,0.0,0.0,0.0,0.0,0.0,0.0,0.0,0.0,0.0,0.0,0.0,0.0,0.0,0.0,0.0,0.0,0.0,0.0,0.0,0.0,0.0,0.0,0.0,0.0,0.0,0.0,0.0,2.323,2.804,3.1517,3.4639,3.7513,3.9241,4.0954,4.2643,4.2237,4.0704,0.0,0.0,0.0,0.0,0.0,0.0,0.0,0.0,0.0,0.0,0.0,0.0,0.0,0.0,0.0,0.0,0.0,0.0,0.0,0.0,0.0,0.0,0.0,0.0,0.0,0.0,0.0,0.0,0.0,0.0,0.0,0.0,0.0,0.0,0.0,0.0,0.0,0.0,0.0,0.0,0.0,0.0,2.5381,2.6628,0.0,0.0,0.0,2.7773,2.9425,0.0,0.0,0.0,0.0,0.0,0.0,0.0,0.0,0.0,0.0,0.0,0.0,0.0,0.0,0.0,0.0,0.0,0.0,0.0,0.0,0.0,0.0,0.0,0.0,0.0,0.0,0.0,0.0,0.0,0.0,0.0,0.0,0.0,0.0,0.0,0.0,0.0,0.0,0.0,0.0,0.0,0.0,0.0,0.0,0.0,0.0,0.0,0.0,0.0,0.0,0.0,0.0,0.0,0.0,0.0,0.0,0.0,2.6696,2.9947,3.3255,3.6532,3.7835,3.9594,4.1967,4.1278,3.9672,0.0,0.0,0.0,0.0,0.0,0.0,0.0,0.0,0.0,0.0,0.0,0.0,0.0,0.0,0.0,0.0,0.0,0.0,0.0,0.0,0.0,0.0,0.0,0.0,0.0,0.0,0.0,0.0,0.0,0.0,0.0,0.0,0.0,0.0,0.0,0.0,0.0,0.0,0.0,0.0,0.0,2.147,2.3158,2.4067,2.4931,0.0,0.0,2.4253,2.6308,2.7283,0.0,0.0,0.0,0.0,0.0,0.0,0.0,0.0,0.0,0.0,0.0,0.0,0.0,0.0,0.0,0.0,0.0,0.0,0.0,0.0,0.0,0.0,0.0,0.0,0.0,0.0,0.0,0.0,0.0,0.0,0.0,0.0,0.0,0.0,0.0,0.0,0.0,0.0,0.0,0.0,0.0,0.0,0.0,0.0,0.0,0.0,0.0,0.0,0.0,0.0,0.0,0.0,0.0,0.0,0.0,0.0,2.6349,2.8609,3.1532,3.5226,3.6329,3.7938,4.0224,3.9317,3.8087,0.0,0.0,0.0,0.0,0.0,0.0,0.0,0.0,0.0,0.0,0.0,0.0,0.0,0.0,0.0,0.0,0.0,0.0,0.0,0.0,0.0,0.0,0.0,0.0,0.0,0.0,0.0,0.0,0.0,0.0,0.0,0.0,0.0,0.0,0.0,0.0,0.0,0.0,0.0,0.0,0.0,1.9748,2.2221,2.2752,0.0,0.0,0.0,0.0,2.3702,2.4973,0.0,0.0,0.0,0.0,0.0,0.0,0.0,0.0,0.0,0.0,0.0,0.0,0.0,0.0,0.0,0.0,0.0,0.0,0.0,0.0,0.0,0.0,0.0,0.0,0.0,0.0,0.0,0.0,0.0,0.0,0.0,0.0,0.0,0.0,0.0,0.0,0.0,0.0,0.0,0.0,0.0,0.0,0.0,0.0,0.0,0.0,0.0,0.0,0.0,0.0,0.0,0.0,0.0,0.0,0.0,0.0,2.4049,2.7289,3.0433,3.3604,3.5417,3.7208,3.8811,3.839,3.7409,0.0,0.0,0.0,0.0,0.0,0.0,0.0,0.0,0.0,0.0,0.0,0.0,0.0,0.0,0.0,0.0,0.0,0.0,0.0,0.0,0.0,0.0,0.0,0.0,0.0,0.0,0.0,0.0,0.0,0.0,0.0,0.0,0.0,0.0,0.0,0.0,0.0,0.0,0.0,0.0,1.6795,1.9201,2.0221,0.0,0.0,0.0,0.0,0.0,0.0,2.1807,2.2426,0.0,0.0,0.0,0.0,0.0,0.0,0.0,0.0,0.0,0.0,0.0,0.0,0.0,0.0,0.0,0.0,0.0,0.0,0.0,0.0,0.0,0.0,0.0,0.0,0.0,0.0,0.0,0.0,0.0,0.0,0.0,0.0,0.0,0.0,0.0,0.0,0.0,0.0,0.0,0.0,0.0,0.0,0.0,0.0,0.0,0.0,0.0,0.0,0.0,0.0,0.0,0.0,0.0,0.0,0.0,2.1639,2.5929,2.9488,3.2128,3.469,3.6593,3.7659,3.7617,3.6626,3.4521,0.0,0.0,0.0,0.0,0.0,0.0,0.0,0.0,0.0,0.0,0.0,0.0,0.0,0.0,0.0,0.0,0.0,0.0,0.0,0.0,0.0,0.0,0.0,0.0,0.0,0.0,0.0,0.0,0.0,0.0,0.0,0.0,0.0,0.0,0.0,0.0,0.0,0.0,0.0,1.5548,1.8377,0.0,0.0,0.0,0.0,0.0,0.0,0.0,0.0,1.951,0.0,0.0,0.0,0.0,0.0,0.0,0.0,0.0,0.0,0.0,0.0,0.0,0.0,0.0,0.0,0.0,0.0,0.0,0.0,0.0,0.0,0.0,0.0,0.0,0.0,0.0,0.0,0.0,0.0,0.0,0.0,0.0,0.0,0.0,0.0,0.0,0.0,0.0,0.0,0.0,0.0,0.0,0.0,0.0,0.0,0.0,0.0,0.0,0.0,0.0,0.0,0.0,0.0,0.0,0.0,0.0,2.4611,2.8177,3.1667,3.3715,3.5404,3.6828,3.5956,3.4343,3.1965,0.0,0.0,0.0,0.0,0.0,0.0,0.0,0.0,0.0,0.0,0.0,0.0,0.0,0.0,0.0,0.0,0.0,0.0,0.0,0.0,0.0,0.0,0.0,0.0,0.0,0.0,0.0,0.0,0.0,0.0,0.0,0.0,0.0,0.0,0.0,0.0,0.0,0.0,0.7927,1.1988,0.0,0.0,0.0,0.0,0.0,0.0,0.0,0.0,1.6775,0.0,0.0,0.0,0.0,0.0,0.0,0.0,0.0,0.0,0.0,0.0,0.0,0.0,0.0,0.0,0.0,0.0,0.0,0.0,0.0,0.0,0.0,0.0,0.0,0.0,0.0,0.0,0.0,0.0,0.0,0.0,0.0,0.0,0.0,0.0,0.0,0.0,0.0,0.0,0.0,0.0,0.0,0.0,0.0,0.0,0.0,0.0,0.0,0.0,0.0,0.0,0.0,0.0,0.0,0.0,0.0,0.0,0.0,2.6821,3.0361,3.2836,3.4658,3.5737,3.5071,3.361,0.0,0.0,0.0,0.0,0.0,0.0,0.0,0.0,0.0,0.0,0.0,0.0,0.0,0.0,0.0,0.0,0.0,0.0,0.0,0.0,0.0,0.0,0.0,0.0,0.0,0.0,0.0,0.0,0.0,0.0,0.0,0.0,0.0,0.0,0.0,0.0,0.0,0.0,0.0,0.0,0.0,0.0,0.0,0.0,0.0,0.0,0.0,0.0,0.0,0.0,0.0,0.0,0.0,0.0,0.0,0.0,0.0,0.0,0.0,0.0,0.0,0.0,0.0,0.0,0.0,0.0,0.0,0.0,0.0,0.0,0.0,0.0,0.0,0.0,0.0,0.0,0.0,0.0,0.0,0.0,0.0,0.0,0.0,0.0,0.0,0.0,0.0,0.0,0.0,0.0,0.0,0.0,0.0,0.0,0.0,0.0,0.0,0.0,0.0,0.0,0.0,0.0,0.0,0.0,0.0,0.0,0.0,0.0,2.5437,2.8863,3.19,3.3936,3.4786,3.4295,3.2958,0.0,0.0,0.0,0.0,0.0,0.0,0.0,0.0,0.0,0.0,0.0,0.0,0.0,0.0,0.0,0.0,0.0,0.0,0.0,0.0,0.0,0.0,0.0,0.0,0.0,0.0,0.0,0.0,0.0,0.0,0.0,0.0,0.0,0.0,0.0,0.0,0.0,0.0,0.0,0.0,0.0,0.0,0.0,0.0,0.0,0.0,0.0,0.0,1.3152,0.0,0.0,0.0,0.0,0.0,0.0,0.0,0.0,0.0,0.0,0.0,0.0,0.0,0.0,0.0,0.0,0.0,0.0,0.0,0.0,0.0,0.0,0.0,0.0,0.0,0.0,0.0,0.0,0.0,0.0,0.0,0.0,0.0,0.0,0.0,0.0,0.0,0.0,0.0,0.0,0.0,0.0,0.0,0.0,0.0,0.0,0.0,0.0,0.0,0.0,0.0,0.0,0.0,0.0,0.0,0.0,0.0,0.0,0.0,2.3836,2.7541,3.0767,3.303,3.4174,3.3122,3.1416,0.0,0.0,0.0,0.0,0.0,0.0,0.0,0.0,0.0,0.0,0.0,0.0,0.0,0.0,0.0,0.0,0.0,0.0,0.0,0.0,0.0,0.0,0.0,0.0,0.0,0.0,0.0,0.0,0.0,0.0,0.0,0.0,0.0,0.0,0.0,0.0,0.0,0.0,0.0,0.0,0.0,0.0,0.0,0.0,0.0,0.0,0.0,0.0,0.0,0.0,0.0,0.0,0.0,0.0,0.0,0.0,0.0,0.0,0.0,0.0,0.0,0.0,0.0,0.0,0.0,0.0,0.0,0.0,0.0,0.0,0.0,0.0,0.0,0.0,0.0,0.0,0.0,0.0,0.0,0.0,0.0,0.0,0.0,0.0,0.0,0.0,0.0,0.0,0.0,0.0,0.0,0.0,0.0,0.0,0.0,0.0,0.0,0.0,0.0,0.0,0.0,0.0,0.0,0.0,0.0,0.0,0.0,0.0,2.1813,2.5775,2.9059,3.0914,3.1183,3.1517,3.0218,0.0,0.0,0.0,0.0,0.0,0.0,0.0,0.0,0.0,0.0,0.0,0.0,0.0,0.0,0.0,0.0,0.0,0.0,0.0,0.0,0.0,0.0,0.0,0.0,0.0,0.0,0.0,0.0,0.0,0.0,0.0,0.0,0.0,0.0,0.0,0.0,0.0,0.0,0.0,0.0,0.0,0.0,0.0,0.0,0.0,0.0,0.0,0.0,0.0,0.0,0.0,0.0,0.0,0.0,0.0,0.0,0.0,0.0,0.0,0.0,0.0,0.0,0.0,0.0,0.0,0.0,0.0,0.0,0.0,0.0,0.0,0.0,0.0,0.0,0.0,0.0,0.0,0.0,0.0,0.0,0.0,0.0,0.0,0.0,0.0,0.0,0.0,0.0,0.0,0.0,0.0,0.0,0.0,0.0,0.0,0.0,0.0,0.0,0.0,0.0,0.0,0.0,0.0,0.0,0.0,0.0,0.0,0.0,0.0,2.3403,2.6066,2.7521,2.7815,2.8925,2.8152,0.0,0.0,0.0,0.0,0.0,0.0,0.0,0.0,0.0,0.0,0.0,0.0,0.0,0.0,0.0,0.0,0.0,0.0,0.0,0.0,0.0,0.0,0.0,0.0,0.0,0.0,0.0,0.0,0.0,0.0,0.0,0.0,0.0,0.0,0.0,0.0,0.0,0.0,0.0,0.0,0.0,0.0,0.0,0.0,0.0,0.0,0.0,0.0,0.0,0.0,0.0,0.0,0.0,0.0,0.0,0.0,0.0,0.0,0.0,0.0,0.0,0.0,0.0,0.0,0.0,0.0,0.0,0.0,0.0,0.0,0.0,0.0,0.0,0.0,0.0,0.0,0.0,0.0,0.0,0.0,0.0,0.0,0.0,0.0,0.0,0.0,0.0,0.0,0.0,0.0,0.0,0.0,0.0,0.0,0.0,0.0,0.0,0.0,0.0,0.0,0.0,0.0,0.0,0.0,0.0,0.0,0.0,0.0,0.0,2.0434,2.1025,2.244,2.4642,2.4957,2.4535,0.0,0.0,0.0,0.0,0.0,0.0,0.0,0.0,0.0,0.0,0.0,0.0,0.0,0.0,0.0,0.0,0.0,0.0,0.0,0.0,0.0,0.0,0.0,0.0,0.0,0.0,0.0,0.0,0.0,0.0,0.0,0.0,0.0,0.0,0.0,0.0,0.0,0.0,0.0,0.0,0.0,0.0,0.0,0.0,0.0,0.0,0.0,0.0,0.0,0.0,0.0,0.0,0.0,0.0,0.0,0.0,0.0,0.0,0.0,0.0,0.0,0.0,0.0,0.0,0.0,0.0,0.0,0.0,0.0,0.0,0.0,0.0,0.0,0.0,0.0,0.0,0.0,0.0,0.0,0.0,0.0,0.0,0.0,0.0,0.0,0.0,0.0,0.0,0.0,0.0,0.0,0.0,0.0,0.0,0.0,0.0,0.0,0.0,0.0,0.0,0.0,0.0,0.0,0.0,0.0,0.0,0.0,0.0,0.0,1.448,1.6929,1.9006,2.053,2.1731,2.1747,2.0468,0.0,0.0,0.0,0.0,0.0,0.0,0.0,0.0,0.0,0.0,0.0,0.0,0.0,0.0,0.0,0.0,0.0,0.0,0.0,0.0,0.0,0.0,0.0,0.0,0.0,0.0,0.0,0.0,0.0,0.0,0.0,0.0,0.0,0.0,0.0,0.0,0.0,0.0,0.0,0.0,0.0,0.0,0.0,0.0,0.0,0.0,0.0,0.0,0.0,0.0,0.0,0.0,0.0,0.0,0.0,0.0,0.0,0.0,0.0,0.0,0.0,0.0,0.0,0.0,0.0,0.0,0.0,0.0,0.0,0.0,0.0,0.0,0.0,0.0,0.0,0.0,0.0,0.0,0.0,0.0,0.0,0.0,0.0,0.0,0.0,0.0,0.0,0.0,0.0,0.0,0.0,0.0,0.0,0.0,0.0,0.0,0.0,0.0,0.0,0.0,0.0,0.0,0.0,0.0,0.0,0.0,0.0,0.0,1.0081,1.3183,1.5403,1.6587,1.8234,1.8679,0.0,0.0,0.0,0.0,0.0,0.0,0.0,0.0,0.0,0.0,0.0,0.0,0.0,0.0,0.0,0.0,0.0,0.0,0.0,0.0,0.0,0.0,0.0,0.0,0.0,0.0,0.0,0.0,0.0,0.0,0.0,0.0,0.0,0.0,0.0,0.0,0.0,0.0,0.0,0.0,0.0,0.0,0.0,0.0,0.0,0.0,0.0,0.0,0.0,0.0,0.0,0.0,0.0,0.0,0.0,0.0,0.0,0.0,0.0,0.0,0.0,0.0,0.0,0.0,0.0,0.0,0.0,0.0,0.0,0.0,0.0,0.0,0.0,0.0,0.0,0.0,0.0,0.0,0.0,0.0,0.0,0.0,0.0,0.0,0.0,0.0,0.0,0.0,0.0,0.0,0.0,0.0,0.0,0.0,0.0,0.0,0.0,0.0,0.0,0.0,0.0,0.0,0.0,0.0,0.0,0.0,0.0,0.0,0.4861,0.77,0.9782,1.16,1.2886,1.4352,1.5297,0.0,0.0,0.0,0.0,0.0,0.0,0.0,0.0,0.0,0.0,0.0,0.0,0.0,0.0,0.0,0.0,0.0,0.0,0.0,0.0,0.0,0.0,0.0,0.0,0.0,0.0,0.0,0.0,0.0,0.0,0.0,0.0,0.0,0.0,0.0,0.0,0.0,0.0,0.0,0.0,0.0,0.0,0.0,0.0,0.0,0.0,0.0,0.0,0.0,0.0,0.0,0.0,0.0,0.0,0.0,0.0,0.0,0.0,0.0,0.0,0.0,0.0,0.0,0.0,0.0,0.0,0.0,0.0,0.0,0.0,0.0,0.0,0.0,0.0,0.0,0.0,0.0,0.0,0.0,0.0,0.0,0.0,0.0,0.0,0.0,0.0,0.0,0.0,0.0,0.0,0.0,0.0,0.0,0.0,0.0,0.0,0.0,0.0,0.0,0.0,0.0,0.0,0.0,0.0,0.0,0.0,0.0,0.0,0.0,0.5424,0.0,0.9894,1.1217,1.2461,1.3591,0.0,0.0,0.0,0.0,0.0,0.0,0.0,0.0,0.0,0.0,0.0,0.0,0.0,0.0,0.0,0.0,0.0,0.0,0.0,0.0,0.0,0.0,0.0,0.0,0.0,0.0,0.0,0.0,0.0,0.0,0.0,0.0,0.0,0.0,0.0,0.0,0.0,0.0,0.0,0.0,0.0,0.0,0.0,0.0,0.0,0.0,0.0,0.0,0.0,0.0,0.0,0.0,0.0,0.0,0.0,0.0,0.0,0.0,0.0,0.0,0.0,0.0,0.0,0.0,0.0,0.0,0.0,0.0,0.0,0.0,0.0,0.0,0.0,0.0,0.0,0.0,0.0,0.0,0.0,0.0,0.0,0.0,0.0,0.0,0.0,0.0,0.0,0.0,0.0,0.0,0.0,0.0,0.0,0.0,0.0,0.0,0.0,0.0,0.0,0.0,0.0,0.0,0.0,0.0,0.0,0.0,0.0,0.0,0.0,0.4233,0.6276,0.8112,0.9609,1.0903,1.2155,0.0,0.0,0.0,0.0,0.0,0.0,0.0,0.0,0.0,0.0,0.0,0.0,0.0,0.0,0.0,0.0,0.0,0.0,0.0,0.0,0.0,0.0,0.0,0.0,0.0,0.0,0.0,0.0,0.0,0.0,0.0,0.0,0.0,0.0,0.0,0.0,0.0,0.0,0.0,0.0,0.0,0.0,0.0,0.0,0.0,0.0,0.0,0.0,0.0,0.0,0.0,0.0,0.0,0.0,0.0,0.0,0.0,0.0,0.0,0.0,0.0,0.0,0.0,0.0,0.0,0.0,0.0,0.0,0.0,0.0,0.0,0.0,0.0,0.0,0.0,0.0,0.0,0.0,0.0,0.0,0.0,0.0,0.0,0.0,0.0,0.0,0.0,0.0,0.0,0.0,0.0,0.0,0.0,0.0,0.0,0.0,0.0,0.0,0.0,0.0,0.0,0.0,0.0,0.0,0.0,0.0,0.0,0.0,0.0,0.4084,0.4843,0.6119,0.8011,0.9538,1.0998,0.0,0.0,0.0,0.0,0.0,0.0,0.0,0.0,0.0,0.0,0.0,0.0,0.0,0.0,0.0,0.0,0.0,0.0,0.0,0.0,0.0,0.0,0.0,0.0,0.0,0.0,0.0,0.0,0.0,0.0,0.0,0.0,0.0,0.0,0.0,0.0,0.0,0.0,0.0,0.0,0.0,0.0,0.0,0.0,0.0,0.0,0.0,0.0,0.0,0.0,0.0,0.0,0.0,0.0,0.0,0.0,0.0,0.0,0.0,0.0,0.0,0.0,0.0,0.0,0.0,0.0,0.0,0.0,0.0,0.0,0.0,0.0,0.0,0.0,0.0,0.0,0.0,0.0,0.0,0.0,0.0,0.0,0.0,0.0,0.0,0.0,0.0,0.0,0.0,0.0,0.0,0.0,0.0,0.0,0.0,0.0,0.0,0.0,0.0,0.0,0.0,0.0,0.0,0.0,0.0,0.0,0.0,0.0,0.0,0.0,0.4272,0.523,0.6623,0.8836,1.0755,1.2293,0.0,0.0,0.0,0.0,0.0,0.0,0.0,0.0,0.0,0.0,0.0,0.0,0.0,0.0,0.0,0.0,0.0,0.0,0.0,0.0,0.0,0.0,0.0,0.0,0.0,0.0,0.0,0.0,0.0,0.0,0.0,0.0,0.0,0.0,0.0,0.0,0.0,0.0,0.0,0.0,0.0,0.0,0.0,0.0,0.0,0.0,0.0,0.0,0.0,0.0,0.0,0.0,0.0,0.0,0.0,0.0,0.0,0.0,0.0,0.0,0.0,0.0,0.0,0.0,0.0,0.0,0.0,0.0,0.0,0.0,0.0,0.0,0.0,0.0,0.0,0.0,0.0,0.0,0.0,0.0,0.0,0.0,0.0,0.0,0.0,0.0,0.0,0.0,0.0,0.0,0.0,0.0,0.0,0.0,0.0,0.0,0.0,0.0,0.0,0.0,0.0,0.0,0.0,0.0,0.0,0.0,0.0,0.0,0.0,0.0,0.4638,0.5621,0.7477,0.9506,0.0,0.0,0.0,0.0,0.0,0.0,0.0,0.0,0.0,0.0,0.0,0.0,0.0,0.0,0.0,0.0,0.0,0.0,0.0,0.0,0.0,0.0,0.0,0.0,0.0,0.0,0.0,0.0,0.0,0.0,0.0,0.0,0.0,0.0,0.0,0.0,0.0,0.0,0.0,0.0,0.0,0.0,0.0,0.0,0.0,0.0,0.0,0.0,0.0,0.0,0.0,0.0,0.0,0.0,0.0,0.0,0.0,0.0,0.0,0.0,0.0,0.0,0.0,0.0,0.0,0.0,0.0,0.0,0.0,0.0,0.0,0.0,0.0,0.0,0.0,0.0,0.0,0.0,0.0,0.0,0.0,0.0,0.0,0.0,0.0,0.0,0.0,0.0,0.0,0.0,0.0,0.0,0.0,0.0,0.0,0.0,0.0,0.0,0.0,0.0,0.0,0.0,0.0,0.0,0.0,0.0,0.0,0.0,0.0,0.0,0.0,0.4355,0.5,0.589,0.0,1.0555,0.0,0.0,0.0,0.0,0.0,0.0,0.0,0.0,0.0,0.0,0.0,0.0,0.0,0.0,0.0,0.0,0.0,0.0,0.0,0.0,0.0,0.0,0.0,0.0,0.0,0.0,0.0,0.0,0.0,0.0,0.0,0.0,0.0,0.0,0.0,0.0,0.0,0.0,0.0,0.0,0.0,0.0,0.0,0.0,0.0,0.0,0.0,0.0,0.0,0.0,0.0,0.0,0.0,0.0,0.0,0.0,0.0,0.0,0.0,0.0,0.0,0.0,0.0,0.0,0.0,0.0,0.0,0.0,0.0,0.0,0.0,0.0,0.0,0.0,0.0,0.0,0.0,0.0,0.0,0.0,0.0,0.0,0.0,0.0,0.0,0.0,0.0,0.0,0.0,0.0,0.0,0.0,0.0,0.0,0.0,0.0,0.0,0.0,0.0,0.0,0.0,0.0,0.0,0.0,0.0,0.0,0.0,0.0,0.0,0.0,0.0,0.0,0.5298,0.6414,0.8065,0.0,0.0,0.0,0.0,0.0,0.0,0.0,0.0,0.0,0.0,0.0,0.0,0.0,0.0,0.0,0.0,0.0,0.0,0.0,0.0,0.0,0.0,0.0,0.0,0.0,0.0,0.0,0.0,0.0,0.0,0.0,0.0,0.0,0.0,0.0,0.0,0.0,0.0,0.0,0.0,0.0,0.0,0.0,0.0,0.0,0.0,0.0,0.0,0.0,0.0,0.0,0.0,0.0,0.0,0.0,0.0,0.0,0.0,0.0,0.0,0.0,0.0,0.0,0.0,0.0,0.0,0.0,0.0,0.0,0.0,0.0,0.0,0.0,0.0,0.0,0.0,0.0,0.0,0.0,0.0,0.0,0.0,0.0,0.0,0.0,0.0,0.0,0.0,0.0,0.0,0.0,0.0,0.0,0.0,0.0,0.0,0.0,0.0,0.0,0.0,0.0,0.0,0.0,0.0,0.0,0.0,0.0,0.0,0.0,0.0,0.3607,0.3919,0.4474,0.5217,0.6295,0.0,0.0,0.0,0.0,0.0,0.0,0.0,0.0,0.0,0.0,0.0,0.0,0.0,0.0,0.0,0.0,0.0,0.0,0.0,0.0,0.0,0.0,0.0,0.0,0.0,0.0,0.0,0.0,0.0,0.0,0.0,0.0,0.0,0.0,0.0,0.0,0.0,0.0,0.0,0.0,0.0,0.0,0.0,0.0,0.0,0.0,0.0,0.0,0.0,0.0,0.0,0.0,0.0,0.0,0.0,0.0,0.0,0.0,0.0,0.0,0.0,0.0,0.0,0.0,0.0,0.0,0.0,0.0,0.0,0.0,0.0,0.0,0.0,0.0,0.0,0.0,0.0,0.0,0.0,0.0,0.0,0.0,0.0,0.0,0.0,0.0,0.0,0.0,0.0,0.0,0.0,0.0,0.0,0.0,0.0,0.0,0.0,0.0,0.0,0.0,0.0,0.0,0.0,0.0,0.0,0.0,0.0,0.0,0.0,0.0,0.0,0.0,0.0,0.0,0.5142,0.0,0.0,0.0,0.0,0.0,0.0,0.0,0.0,0.0,0.0,0.0,0.0,0.0,0.0,0.0,0.0,0.0,0.0,0.0,0.0,0.0,0.0,0.0,0.0,0.0,0.0,0.0,0.0,0.0,0.0,0.0,0.0,0.0,0.0,0.0,0.0,0.0,0.0,0.0,0.0,0.0,0.0,0.0,0.0,0.0,0.0,0.0,0.0,0.0,0.0,0.0,0.0,0.0,0.0,0.0,0.0,0.0,0.0,0.0,0.0,0.0,0.0,0.0,0.0,0.0,0.0,0.0,0.0,0.0,0.0,0.0,0.0,0.0,0.0,0.0,0.0,0.0,0.0,0.0,0.0,0.0,0.0,0.0,0.0,0.0,0.0,0.0,0.0,0.0,0.0,0.0,0.0,0.0,0.0,0.0,0.0,0.0,0.0,0.0,0.0,0.0,0.0,0.0,0.0,0.0,0.0,0.0,0.0,0.0,0.0,0.0,0.0,0.0,0.0,0.0,0.0,0.0,0.0,0.0,0.0,0.0,0.0,0.0,0.0,0.0,0.0,0.0,0.0,0.0,0.0,0.0,0.0,0.0,0.0,0.0,0.0,0.0,0.0,0.0,0.0,0.0,0.0,0.0,0.0,0.0,0.0,0.0,0.0,0.0,0.0,0.0,0.0,0.0,0.0,0.0,0.0,0.0,0.0,0.0,0.0,0.0,0.0,0.0,0.0,0.0,0.0,0.0,0.0,0.0,0.0,0.0,0.0,0.0,0.0,0.0,0.0,0.0,0.0,0.0,0.0,0.0,0.0,0.0,0.0,0.0,0.0,0.0,0.0,0.0,0.0,0.0,0.0,0.0,0.0,0.0,0.0,0.0,0.0,0.0,0.0,0.0,0.0,0.0,0.0,0.0,0.0,0.0,0.0,0.0,0.0,0.0,0.0,0.0,0.0,0.0,0.0,0.0,0.0,0.0,0.0,0.0,0.0,0.0,0.0,0.0,0.0,0.0,0.0,0.0,0.0,0.0,0.0,0.0,0.0,0.0,0.0,0.0,0.0,0.0,0.0,0.0,0.0,0.0,0.0,0.0,0.0,0.0,0.0,0.0,0.0,0.0,0.0,0.0,0.0,0.0,0.0,0.0,0.0,0.0,0.0,0.0,0.0,0.0,0.0,0.0,0.0,0.0,0.0,0.0,0.0,0.0,0.0,0.0,0.0,0.0,0.0,0.0,0.0,0.0,0.0,0.0,0.0,0.0,0.0,0.0,0.0,0.0,0.0,0.0,0.0,0.0,0.0,0.0,0.0,0.0,0.0,0.0,0.0,0.0,0.0,0.0,0.0,0.0,0.0,0.0,0.0,0.0,0.0,0.0,0.0,0.0,0.0,0.0,0.0,0.0,0.0,0.0,0.0,0.0,0.0,0.0,0.0,0.0,0.0,0.0,0.0,0.0,0.0,0.0,0.0,0.0,0.0,0.0,0.0,0.0,0.0,0.0,0.0,0.0,0.0,0.0,0.0,0.0,0.0,0.0,0.0,0.0,0.0,0.0,0.0,0.0,0.0,0.0,0.0,0.0,0.0,0.0,0.0,0.0,0.0,0.0,0.0,0.0,0.0,0.0,0.0,0.0,0.0,0.0,0.0,0.0,0.0,0.0,0.0,0.0,0.0,0.0,0.0,0.0,0.0,0.0,0.0,0.0,0.0,0.0,0.0,0.0,0.0,0.0,0.0,0.0,0.0,0.0,0.0,0.0,0.0,0.0,0.0,0.0,0.0,0.0,0.0,0.0,0.0,0.0,0.0,0.0,0.0,0.0,0.0,0.0,0.0,0.0,0.0,0.0,0.0,0.0,0.0,0.0,0.0,0.0,0.0,0.0,0.0,0.0,0.0,0.0,0.0,0.0,0.0,0.0,0.0,0.0,0.0,0.0,0.0,0.0,0.0,0.0,0.0,0.0,0.0,0.0,0.0,0.0,0.0,0.0,0.0,0.0,0.0,0.0,0.0,0.0,0.0,0.0,0.0,0.0,0.0,0.0,0.0,0.0,0.0,0.0,0.0,0.0,0.0,0.0,0.0,0.0,0.0,0.0,0.0,0.0,0.0,0.0,0.0,0.0,0.0,0.0,0.0,0.0,0.0,0.0,0.0,0.0,0.0,0.0,0.0,0.0,0.0,0.0,0.0,0.0,0.0,0.0,0.0,0.0,0.0,0.0,0.0,0.0,0.0,0.0,0.0,0.0,0.0,0.0,0.0,0.0,0.0,0.0,0.0,0.0,0.0,0.0,0.0,0.0,0.0,0.0,0.0,0.0,0.0,0.0,0.0,0.0,0.0,0.0,0.0,0.0,0.0,0.0,0.0,0.0,0.0,0.0,0.0,0.0,0.0,0.0,0.0,0.0,0.0,0.0,0.0,0.0,0.0,0.0,0.0,0.0,0.0,0.0,0.0,0.0,0.0,0.0,0.0,0.0,0.0,0.0,0.0,0.0,0.0,0.0,0.0,0.0,0.0,0.0,0.0,0.0,0.0,0.0,0.0,0.0,0.0,0.0,0.0,0.0,0.0,0.0,0.0,0.0,0.0,0.0,0.0,0.0,0.0,0.0,0.0,0.0,0.0,0.0,0.0,0.0,0.0,0.0,0.0,0.0,0.0,0.0,0.0,0.0,0.0,0.0,0.0,0.0,0.0,0.0,0.0,0.0,0.0,0.0,0.0,0.0,0.0,0.0,0.0,0.0,0.0,0.0,0.0,0.0,0.0,0.0,0.0,0.0,0.0,0.0,0.0,0.0,0.0,0.0,0.0,0.0,0.0,0.0,0.0,0.0,0.0,0.0,0.0,0.0,0.0,0.0,0.0,0.0,0.0,0.0,0.0,0.0,0.0,0.0,0.0,0.0,0.0,0.0,0.0,0.0,0.0,0.0,0.0,0.0,0.0,0.0,0.0,0.0,0.0,0.0,0.0,0.0,0.0,0.0,0.0,0.0,0.0,0.0,0.0,0.0,0.0,0.0,0.0,0.0,0.0,0.0,0.0,0.0,0.0,0.0,0.0,0.0,0.0,0.0,0.0,0.0,0.0,0.0,0.0,0.0,0.0,0.0,0.0,0.0,0.0,0.0,0.0,0.0,0.0,0.0,0.0,0.0,0.0,0.0,0.0,0.0,0.0,0.0,0.0,0.0,0.0,0.0,0.0,0.0,0.0,0.0,0.0,0.0,0.0,0.0,0.0,0.0,0.0,0.0,0.0,0.0,0.0,0.0,0.0,0.0,0.0,0.0,0.0,0.0,0.0,0.0,0.0,0.0,0.0,0.0,0.0,0.0,0.0,0.0,0.0,0.0,0.0,0.0,0.0,0.0,0.0,0.0,0.0,0.0,0.0,0.0,0.0,0.0,0.0,0.0,0.0,0.0,0.0,0.0,0.0,0.0,0.0,0.0,0.0,0.0,0.0,0.0,0.0,0.0,0.0,0.0,0.0,0.0,0.0,0.0,0.0,0.0,0.0,0.0,0.0,0.0,0.0,0.0,0.0,0.0,0.0,0.0,0.0,0.0,0.0,0.0,0.0,0.0,0.0,0.0,0.0,0.0,0.0,0.0,0.0,0.0,0.0,0.0,0.0,0.0,0.0,0.0,0.0,0.0,0.0,0.0,0.0,0.0,0.0,0.0,0.0,0.0,0.0,0.0,0.0,0.0,0.0,0.0,0.0,0.0,0.0,0.0,0.0,0.0,0.0,0.0,0.0,0.0,0.0,0.0,0.0,0.0,0.0,0.0,0.0,0.0,0.0,0.0,0.0,0.0,0.0,0.0,0.0,0.0,0.0,0.0,0.0,0.0,0.0,0.0,0.0,0.0,0.0,0.0,0.0,0.0,0.0,0.0,0.0,0.0,0.0,0.0,0.0,0.0,0.0,0.0,0.0,0.0,0.0,0.0,0.0,0.0,0.0,0.0,0.0,0.0,0.0,0.0,0.0,0.0,0.0,0.0,0.0,0.0,0.0,0.0,0.0,0.0,0.0,0.0,0.0,0.0,0.0,0.0,0.0,0.0,0.0,0.0,0.0,0.0,0.0,0.0,0.0,0.0,0.0,0.0,0.0,0.0,0.0,0.0,0.0,0.0,0.0,0.0,0.0,0.0,0.0,0.0,0.0,0.0,0.0,0.0,0.0,0.0,0.0,0.0,0.0,0.0,0.0,0.0,0.0,0.0,0.0,0.0,0.0,0.0,0.0,0.0,0.0,0.0,0.0,0.0,0.0,0.0,0.0,0.0,0.0,0.0,0.0,0.0,0.0,0.0,0.0,0.0,0.0,0.0,0.0,0.0,0.0,0.0,0.0,0.0,0.0,0.0,0.0,0.0,0.0,0.0,0.0,0.0,0.0]}]]]